<?xml version="1.0" encoding="UTF-8" standalone="no" ?>
<gpx xmlns="http://www.topografix.com/GPX/1/1" xmlns:xsi="http://www.w3.org/2001/XMLSchema-instance" xsi:schemaLocation="http://www.topografix.com/GPX/1/1 http://www.topografix.com/GPX/1/1/gpx.xsd" version="1.1" creator="VisuGPX - https://www.visugpx.com">
  <metadata>
    <name>20260707-la breteque</name>
    <desc><![CDATA[Boucle A-R au départ de la maison forestiere du grand candon]]></desc>
  </metadata>
  <trk>
    <name><![CDATA[SityTrail - 20260707-la breteque]]></name>
    <desc><![CDATA[Boucle A-R au départ de la maison forestiere du grand candon]]></desc>
    <trkseg>
      <trkpt lat="49.49018" lon="1.10358">
        <ele>171</ele>
        <time>2026-07-07T11:42:08.554Z</time>
      </trkpt>
      <trkpt lat="49.4902" lon="1.10367">
        <ele>171</ele>
        <time>2026-07-07T12:00:46.352Z</time>
      </trkpt>
      <trkpt lat="49.4902" lon="1.10369">
        <ele>171</ele>
        <time>2026-07-07T12:00:50.653Z</time>
      </trkpt>
      <trkpt lat="49.49022" lon="1.10377">
        <ele>168</ele>
        <time>2026-07-07T12:00:54.809Z</time>
      </trkpt>
      <trkpt lat="49.49025" lon="1.10388">
        <ele>168</ele>
        <time>2026-07-07T12:00:59.351Z</time>
      </trkpt>
      <trkpt lat="49.49026" lon="1.10394">
        <ele>168</ele>
        <time>2026-07-07T12:01:04.027Z</time>
      </trkpt>
      <trkpt lat="49.49027" lon="1.10401">
        <ele>168</ele>
        <time>2026-07-07T12:01:08.048Z</time>
      </trkpt>
      <trkpt lat="49.49029" lon="1.10407">
        <ele>166</ele>
        <time>2026-07-07T12:01:12.150Z</time>
      </trkpt>
      <trkpt lat="49.49031" lon="1.10414">
        <ele>166</ele>
        <time>2026-07-07T12:01:16.171Z</time>
      </trkpt>
      <trkpt lat="49.49034" lon="1.10421">
        <ele>166</ele>
        <time>2026-07-07T12:01:20.351Z</time>
      </trkpt>
      <trkpt lat="49.49037" lon="1.10427">
        <ele>166</ele>
        <time>2026-07-07T12:01:24.934Z</time>
      </trkpt>
      <trkpt lat="49.49033" lon="1.10432">
        <ele>167</ele>
        <time>2026-07-07T12:01:28.990Z</time>
      </trkpt>
      <trkpt lat="49.49037" lon="1.1044">
        <ele>167</ele>
        <time>2026-07-07T12:01:33.351Z</time>
      </trkpt>
      <trkpt lat="49.49038" lon="1.10447">
        <ele>167</ele>
        <time>2026-07-07T12:01:37.906Z</time>
      </trkpt>
      <trkpt lat="49.49037" lon="1.10456">
        <ele>167</ele>
        <time>2026-07-07T12:01:42.253Z</time>
      </trkpt>
      <trkpt lat="49.49037" lon="1.10465">
        <ele>168</ele>
        <time>2026-07-07T12:01:46.705Z</time>
      </trkpt>
      <trkpt lat="49.49036" lon="1.10472">
        <ele>168</ele>
        <time>2026-07-07T12:01:51.210Z</time>
      </trkpt>
      <trkpt lat="49.49034" lon="1.1048">
        <ele>168</ele>
        <time>2026-07-07T12:01:55.670Z</time>
      </trkpt>
      <trkpt lat="49.49032" lon="1.10487">
        <ele>170</ele>
        <time>2026-07-07T12:02:00.025Z</time>
      </trkpt>
      <trkpt lat="49.49031" lon="1.10493">
        <ele>170</ele>
        <time>2026-07-07T12:02:04.126Z</time>
      </trkpt>
      <trkpt lat="49.49032" lon="1.10499">
        <ele>170</ele>
        <time>2026-07-07T12:02:08.351Z</time>
      </trkpt>
      <trkpt lat="49.49032" lon="1.10509">
        <ele>170</ele>
        <time>2026-07-07T12:02:13.249Z</time>
      </trkpt>
      <trkpt lat="49.49033" lon="1.10516">
        <ele>171</ele>
        <time>2026-07-07T12:02:17.728Z</time>
      </trkpt>
      <trkpt lat="49.49033" lon="1.10523">
        <ele>171</ele>
        <time>2026-07-07T12:02:22.351Z</time>
      </trkpt>
      <trkpt lat="49.49033" lon="1.10531">
        <ele>171</ele>
        <time>2026-07-07T12:02:26.807Z</time>
      </trkpt>
      <trkpt lat="49.49033" lon="1.10538">
        <ele>171</ele>
        <time>2026-07-07T12:02:31.206Z</time>
      </trkpt>
      <trkpt lat="49.49031" lon="1.10544">
        <ele>171</ele>
        <time>2026-07-07T12:02:35.631Z</time>
      </trkpt>
      <trkpt lat="49.49027" lon="1.10548">
        <ele>171</ele>
        <time>2026-07-07T12:02:39.872Z</time>
      </trkpt>
      <trkpt lat="49.49023" lon="1.10551">
        <ele>171</ele>
        <time>2026-07-07T12:02:44.052Z</time>
      </trkpt>
      <trkpt lat="49.49018" lon="1.10555">
        <ele>171</ele>
        <time>2026-07-07T12:02:48.206Z</time>
      </trkpt>
      <trkpt lat="49.49013" lon="1.10558">
        <ele>175</ele>
        <time>2026-07-07T12:02:52.288Z</time>
      </trkpt>
      <trkpt lat="49.49009" lon="1.10563">
        <ele>175</ele>
        <time>2026-07-07T12:02:56.530Z</time>
      </trkpt>
      <trkpt lat="49.49006" lon="1.10569">
        <ele>175</ele>
        <time>2026-07-07T12:03:00.692Z</time>
      </trkpt>
      <trkpt lat="49.49003" lon="1.10575">
        <ele>174</ele>
        <time>2026-07-07T12:03:04.713Z</time>
      </trkpt>
      <trkpt lat="49.49001" lon="1.10581">
        <ele>174</ele>
        <time>2026-07-07T12:03:08.752Z</time>
      </trkpt>
      <trkpt lat="49.49" lon="1.10589">
        <ele>174</ele>
        <time>2026-07-07T12:03:12.931Z</time>
      </trkpt>
      <trkpt lat="49.48998" lon="1.10596">
        <ele>174</ele>
        <time>2026-07-07T12:03:17.569Z</time>
      </trkpt>
      <trkpt lat="49.48997" lon="1.10604">
        <ele>172</ele>
        <time>2026-07-07T12:03:21.713Z</time>
      </trkpt>
      <trkpt lat="49.48997" lon="1.1061">
        <ele>172</ele>
        <time>2026-07-07T12:03:25.751Z</time>
      </trkpt>
      <trkpt lat="49.48995" lon="1.10618">
        <ele>172</ele>
        <time>2026-07-07T12:03:29.914Z</time>
      </trkpt>
      <trkpt lat="49.48994" lon="1.10625">
        <ele>172</ele>
        <time>2026-07-07T12:03:33.988Z</time>
      </trkpt>
      <trkpt lat="49.48992" lon="1.10632">
        <ele>169</ele>
        <time>2026-07-07T12:03:38.149Z</time>
      </trkpt>
      <trkpt lat="49.48991" lon="1.10639">
        <ele>169</ele>
        <time>2026-07-07T12:03:42.294Z</time>
      </trkpt>
      <trkpt lat="49.4899" lon="1.10647">
        <ele>169</ele>
        <time>2026-07-07T12:03:46.868Z</time>
      </trkpt>
      <trkpt lat="49.48989" lon="1.10655">
        <ele>166</ele>
        <time>2026-07-07T12:03:50.907Z</time>
      </trkpt>
      <trkpt lat="49.48989" lon="1.10663">
        <ele>166</ele>
        <time>2026-07-07T12:03:55.352Z</time>
      </trkpt>
      <trkpt lat="49.48989" lon="1.10671">
        <ele>166</ele>
        <time>2026-07-07T12:03:59.971Z</time>
      </trkpt>
      <trkpt lat="49.48989" lon="1.10679">
        <ele>166</ele>
        <time>2026-07-07T12:04:04.210Z</time>
      </trkpt>
      <trkpt lat="49.48989" lon="1.10688">
        <ele>166</ele>
        <time>2026-07-07T12:04:08.626Z</time>
      </trkpt>
      <trkpt lat="49.48987" lon="1.10695">
        <ele>166</ele>
        <time>2026-07-07T12:04:12.727Z</time>
      </trkpt>
      <trkpt lat="49.48985" lon="1.10702">
        <ele>172</ele>
        <time>2026-07-07T12:04:16.827Z</time>
      </trkpt>
      <trkpt lat="49.48984" lon="1.1071">
        <ele>172</ele>
        <time>2026-07-07T12:04:20.866Z</time>
      </trkpt>
      <trkpt lat="49.48983" lon="1.10717">
        <ele>172</ele>
        <time>2026-07-07T12:04:24.932Z</time>
      </trkpt>
      <trkpt lat="49.48981" lon="1.10723">
        <ele>172</ele>
        <time>2026-07-07T12:04:28.928Z</time>
      </trkpt>
      <trkpt lat="49.4898" lon="1.10732">
        <ele>172</ele>
        <time>2026-07-07T12:04:33.229Z</time>
      </trkpt>
      <trkpt lat="49.48978" lon="1.10739">
        <ele>171</ele>
        <time>2026-07-07T12:04:37.347Z</time>
      </trkpt>
      <trkpt lat="49.48977" lon="1.10746">
        <ele>171</ele>
        <time>2026-07-07T12:04:41.351Z</time>
      </trkpt>
      <trkpt lat="49.48976" lon="1.10753">
        <ele>171</ele>
        <time>2026-07-07T12:04:46.110Z</time>
      </trkpt>
      <trkpt lat="49.48974" lon="1.1076">
        <ele>171</ele>
        <time>2026-07-07T12:04:50.193Z</time>
      </trkpt>
      <trkpt lat="49.48973" lon="1.10767">
        <ele>168</ele>
        <time>2026-07-07T12:04:54.267Z</time>
      </trkpt>
      <trkpt lat="49.48972" lon="1.10774">
        <ele>168</ele>
        <time>2026-07-07T12:04:58.351Z</time>
      </trkpt>
      <trkpt lat="49.48971" lon="1.10781">
        <ele>168</ele>
        <time>2026-07-07T12:05:02.611Z</time>
      </trkpt>
      <trkpt lat="49.4897" lon="1.10788">
        <ele>168</ele>
        <time>2026-07-07T12:05:06.727Z</time>
      </trkpt>
      <trkpt lat="49.48969" lon="1.10794">
        <ele>165</ele>
        <time>2026-07-07T12:05:10.827Z</time>
      </trkpt>
      <trkpt lat="49.48967" lon="1.10802">
        <ele>165</ele>
        <time>2026-07-07T12:05:14.849Z</time>
      </trkpt>
      <trkpt lat="49.48967" lon="1.10809">
        <ele>165</ele>
        <time>2026-07-07T12:05:19.028Z</time>
      </trkpt>
      <trkpt lat="49.48965" lon="1.10817">
        <ele>165</ele>
        <time>2026-07-07T12:05:23.568Z</time>
      </trkpt>
      <trkpt lat="49.48963" lon="1.10824">
        <ele>164</ele>
        <time>2026-07-07T12:05:27.791Z</time>
      </trkpt>
      <trkpt lat="49.48962" lon="1.10831">
        <ele>164</ele>
        <time>2026-07-07T12:05:31.865Z</time>
      </trkpt>
      <trkpt lat="49.48961" lon="1.10838">
        <ele>164</ele>
        <time>2026-07-07T12:05:35.967Z</time>
      </trkpt>
      <trkpt lat="49.48964" lon="1.10844">
        <ele>164</ele>
        <time>2026-07-07T12:05:40.070Z</time>
      </trkpt>
      <trkpt lat="49.48965" lon="1.10852">
        <ele>164</ele>
        <time>2026-07-07T12:05:44.189Z</time>
      </trkpt>
      <trkpt lat="49.48963" lon="1.1086">
        <ele>164</ele>
        <time>2026-07-07T12:05:48.228Z</time>
      </trkpt>
      <trkpt lat="49.4896" lon="1.1087">
        <ele>164</ele>
        <time>2026-07-07T12:05:52.267Z</time>
      </trkpt>
      <trkpt lat="49.48959" lon="1.10879">
        <ele>167</ele>
        <time>2026-07-07T12:05:56.351Z</time>
      </trkpt>
      <trkpt lat="49.48959" lon="1.10886">
        <ele>167</ele>
        <time>2026-07-07T12:06:00.670Z</time>
      </trkpt>
      <trkpt lat="49.48958" lon="1.10892">
        <ele>174</ele>
        <time>2026-07-07T12:06:04.763Z</time>
      </trkpt>
      <trkpt lat="49.48957" lon="1.10898">
        <ele>174</ele>
        <time>2026-07-07T12:06:08.968Z</time>
      </trkpt>
      <trkpt lat="49.48959" lon="1.10905">
        <ele>171</ele>
        <time>2026-07-07T12:06:13.113Z</time>
      </trkpt>
      <trkpt lat="49.48964" lon="1.10907">
        <ele>171</ele>
        <time>2026-07-07T12:06:17.187Z</time>
      </trkpt>
      <trkpt lat="49.48968" lon="1.10907">
        <ele>171</ele>
        <time>2026-07-07T12:06:21.349Z</time>
      </trkpt>
      <trkpt lat="49.48972" lon="1.10908">
        <ele>171</ele>
        <time>2026-07-07T12:06:26.351Z</time>
      </trkpt>
      <trkpt lat="49.48975" lon="1.10908">
        <ele>171</ele>
        <time>2026-07-07T12:06:30.929Z</time>
      </trkpt>
      <trkpt lat="49.48979" lon="1.10911">
        <ele>171</ele>
        <time>2026-07-07T12:06:35.089Z</time>
      </trkpt>
      <trkpt lat="49.48983" lon="1.10912">
        <ele>171</ele>
        <time>2026-07-07T12:06:39.350Z</time>
      </trkpt>
      <trkpt lat="49.48989" lon="1.10913">
        <ele>165</ele>
        <time>2026-07-07T12:06:44.033Z</time>
      </trkpt>
      <trkpt lat="49.48992" lon="1.10914">
        <ele>165</ele>
        <time>2026-07-07T12:06:48.169Z</time>
      </trkpt>
      <trkpt lat="49.48997" lon="1.10916">
        <ele>165</ele>
        <time>2026-07-07T12:06:52.351Z</time>
      </trkpt>
      <trkpt lat="49.49001" lon="1.10917">
        <ele>165</ele>
        <time>2026-07-07T12:06:57.012Z</time>
      </trkpt>
      <trkpt lat="49.49006" lon="1.1092">
        <ele>165</ele>
        <time>2026-07-07T12:07:01.130Z</time>
      </trkpt>
      <trkpt lat="49.4901" lon="1.10921">
        <ele>165</ele>
        <time>2026-07-07T12:07:05.171Z</time>
      </trkpt>
      <trkpt lat="49.49015" lon="1.10923">
        <ele>163</ele>
        <time>2026-07-07T12:07:09.647Z</time>
      </trkpt>
      <trkpt lat="49.4902" lon="1.10924">
        <ele>163</ele>
        <time>2026-07-07T12:07:14.189Z</time>
      </trkpt>
      <trkpt lat="49.49025" lon="1.10923">
        <ele>163</ele>
        <time>2026-07-07T12:07:18.226Z</time>
      </trkpt>
      <trkpt lat="49.4903" lon="1.10925">
        <ele>163</ele>
        <time>2026-07-07T12:07:22.309Z</time>
      </trkpt>
      <trkpt lat="49.49034" lon="1.10926">
        <ele>163</ele>
        <time>2026-07-07T12:07:26.349Z</time>
      </trkpt>
      <trkpt lat="49.49039" lon="1.10928">
        <ele>163</ele>
        <time>2026-07-07T12:07:30.350Z</time>
      </trkpt>
      <trkpt lat="49.49043" lon="1.10929">
        <ele>162</ele>
        <time>2026-07-07T12:07:34.532Z</time>
      </trkpt>
      <trkpt lat="49.49048" lon="1.1093">
        <ele>162</ele>
        <time>2026-07-07T12:07:38.553Z</time>
      </trkpt>
      <trkpt lat="49.49054" lon="1.10932">
        <ele>163</ele>
        <time>2026-07-07T12:07:43.233Z</time>
      </trkpt>
      <trkpt lat="49.4906" lon="1.10933">
        <ele>163</ele>
        <time>2026-07-07T12:07:47.852Z</time>
      </trkpt>
      <trkpt lat="49.49065" lon="1.10934">
        <ele>163</ele>
        <time>2026-07-07T12:07:51.891Z</time>
      </trkpt>
      <trkpt lat="49.4907" lon="1.10937">
        <ele>161</ele>
        <time>2026-07-07T12:07:55.966Z</time>
      </trkpt>
      <trkpt lat="49.49075" lon="1.1094">
        <ele>161</ele>
        <time>2026-07-07T12:08:00.426Z</time>
      </trkpt>
      <trkpt lat="49.49081" lon="1.10942">
        <ele>161</ele>
        <time>2026-07-07T12:08:05.071Z</time>
      </trkpt>
      <trkpt lat="49.49085" lon="1.10944">
        <ele>161</ele>
        <time>2026-07-07T12:08:09.190Z</time>
      </trkpt>
      <trkpt lat="49.49089" lon="1.10945">
        <ele>161</ele>
        <time>2026-07-07T12:08:13.272Z</time>
      </trkpt>
      <trkpt lat="49.49094" lon="1.10946">
        <ele>161</ele>
        <time>2026-07-07T12:08:17.351Z</time>
      </trkpt>
      <trkpt lat="49.49099" lon="1.10948">
        <ele>159</ele>
        <time>2026-07-07T12:08:21.508Z</time>
      </trkpt>
      <trkpt lat="49.49103" lon="1.10954">
        <ele>159</ele>
        <time>2026-07-07T12:08:25.749Z</time>
      </trkpt>
      <trkpt lat="49.49106" lon="1.10957">
        <ele>159</ele>
        <time>2026-07-07T12:08:30.332Z</time>
      </trkpt>
      <trkpt lat="49.49111" lon="1.1096">
        <ele>158</ele>
        <time>2026-07-07T12:08:34.793Z</time>
      </trkpt>
      <trkpt lat="49.49117" lon="1.10962">
        <ele>158</ele>
        <time>2026-07-07T12:08:39.351Z</time>
      </trkpt>
      <trkpt lat="49.49123" lon="1.1096">
        <ele>158</ele>
        <time>2026-07-07T12:08:43.846Z</time>
      </trkpt>
      <trkpt lat="49.49127" lon="1.10959">
        <ele>157</ele>
        <time>2026-07-07T12:08:47.868Z</time>
      </trkpt>
      <trkpt lat="49.49132" lon="1.10961">
        <ele>157</ele>
        <time>2026-07-07T12:08:51.985Z</time>
      </trkpt>
      <trkpt lat="49.49137" lon="1.10963">
        <ele>157</ele>
        <time>2026-07-07T12:08:56.351Z</time>
      </trkpt>
      <trkpt lat="49.49139" lon="1.10966">
        <ele>157</ele>
        <time>2026-07-07T12:09:00.494Z</time>
      </trkpt>
      <trkpt lat="49.49144" lon="1.1097">
        <ele>157</ele>
        <time>2026-07-07T12:09:04.585Z</time>
      </trkpt>
      <trkpt lat="49.4915" lon="1.10972">
        <ele>157</ele>
        <time>2026-07-07T12:09:08.650Z</time>
      </trkpt>
      <trkpt lat="49.49155" lon="1.10973">
        <ele>159</ele>
        <time>2026-07-07T12:09:12.769Z</time>
      </trkpt>
      <trkpt lat="49.4916" lon="1.10975">
        <ele>159</ele>
        <time>2026-07-07T12:09:16.851Z</time>
      </trkpt>
      <trkpt lat="49.49165" lon="1.10976">
        <ele>159</ele>
        <time>2026-07-07T12:09:20.926Z</time>
      </trkpt>
      <trkpt lat="49.49169" lon="1.10977">
        <ele>159</ele>
        <time>2026-07-07T12:09:25.027Z</time>
      </trkpt>
      <trkpt lat="49.49174" lon="1.10978">
        <ele>159</ele>
        <time>2026-07-07T12:09:29.189Z</time>
      </trkpt>
      <trkpt lat="49.49179" lon="1.10979">
        <ele>159</ele>
        <time>2026-07-07T12:09:33.289Z</time>
      </trkpt>
      <trkpt lat="49.49185" lon="1.1098">
        <ele>161</ele>
        <time>2026-07-07T12:09:37.350Z</time>
      </trkpt>
      <trkpt lat="49.49189" lon="1.10983">
        <ele>161</ele>
        <time>2026-07-07T12:09:41.613Z</time>
      </trkpt>
      <trkpt lat="49.49193" lon="1.10988">
        <ele>161</ele>
        <time>2026-07-07T12:09:45.731Z</time>
      </trkpt>
      <trkpt lat="49.49197" lon="1.10993">
        <ele>161</ele>
        <time>2026-07-07T12:09:49.932Z</time>
      </trkpt>
      <trkpt lat="49.49201" lon="1.10997">
        <ele>161</ele>
        <time>2026-07-07T12:09:54.350Z</time>
      </trkpt>
      <trkpt lat="49.49205" lon="1.11">
        <ele>161</ele>
        <time>2026-07-07T12:09:58.488Z</time>
      </trkpt>
      <trkpt lat="49.49211" lon="1.10999">
        <ele>161</ele>
        <time>2026-07-07T12:10:02.633Z</time>
      </trkpt>
      <trkpt lat="49.49216" lon="1.10996">
        <ele>161</ele>
        <time>2026-07-07T12:10:07.172Z</time>
      </trkpt>
      <trkpt lat="49.49221" lon="1.10998">
        <ele>161</ele>
        <time>2026-07-07T12:10:11.185Z</time>
      </trkpt>
      <trkpt lat="49.49227" lon="1.11">
        <ele>161</ele>
        <time>2026-07-07T12:10:15.768Z</time>
      </trkpt>
      <trkpt lat="49.49231" lon="1.11002">
        <ele>161</ele>
        <time>2026-07-07T12:10:19.853Z</time>
      </trkpt>
      <trkpt lat="49.49236" lon="1.10999">
        <ele>161</ele>
        <time>2026-07-07T12:10:24.350Z</time>
      </trkpt>
      <trkpt lat="49.49242" lon="1.10998">
        <ele>161</ele>
        <time>2026-07-07T12:10:29.027Z</time>
      </trkpt>
      <trkpt lat="49.49245" lon="1.11">
        <ele>161</ele>
        <time>2026-07-07T12:10:33.145Z</time>
      </trkpt>
      <trkpt lat="49.4925" lon="1.11003">
        <ele>161</ele>
        <time>2026-07-07T12:10:37.211Z</time>
      </trkpt>
      <trkpt lat="49.49256" lon="1.11006">
        <ele>161</ele>
        <time>2026-07-07T12:10:41.311Z</time>
      </trkpt>
      <trkpt lat="49.49261" lon="1.11008">
        <ele>161</ele>
        <time>2026-07-07T12:10:45.332Z</time>
      </trkpt>
      <trkpt lat="49.49266" lon="1.11008">
        <ele>162</ele>
        <time>2026-07-07T12:10:49.350Z</time>
      </trkpt>
      <trkpt lat="49.49271" lon="1.1101">
        <ele>162</ele>
        <time>2026-07-07T12:10:53.350Z</time>
      </trkpt>
      <trkpt lat="49.49277" lon="1.11013">
        <ele>162</ele>
        <time>2026-07-07T12:10:58.028Z</time>
      </trkpt>
      <trkpt lat="49.49281" lon="1.11016">
        <ele>162</ele>
        <time>2026-07-07T12:11:02.173Z</time>
      </trkpt>
      <trkpt lat="49.49286" lon="1.11018">
        <ele>162</ele>
        <time>2026-07-07T12:11:06.273Z</time>
      </trkpt>
      <trkpt lat="49.4929" lon="1.11019">
        <ele>162</ele>
        <time>2026-07-07T12:11:10.550Z</time>
      </trkpt>
      <trkpt lat="49.49295" lon="1.1102">
        <ele>165</ele>
        <time>2026-07-07T12:11:14.589Z</time>
      </trkpt>
      <trkpt lat="49.49297" lon="1.11022">
        <ele>165</ele>
        <time>2026-07-07T12:11:18.627Z</time>
      </trkpt>
      <trkpt lat="49.49302" lon="1.11027">
        <ele>165</ele>
        <time>2026-07-07T12:11:22.991Z</time>
      </trkpt>
      <trkpt lat="49.49303" lon="1.11032">
        <ele>165</ele>
        <time>2026-07-07T12:11:27.350Z</time>
      </trkpt>
      <trkpt lat="49.49305" lon="1.11033">
        <ele>165</ele>
        <time>2026-07-07T12:11:31.991Z</time>
      </trkpt>
      <trkpt lat="49.49308" lon="1.11035">
        <ele>165</ele>
        <time>2026-07-07T12:12:20.357Z</time>
      </trkpt>
      <trkpt lat="49.49306" lon="1.11042">
        <ele>165</ele>
        <time>2026-07-07T12:12:24.547Z</time>
      </trkpt>
      <trkpt lat="49.49303" lon="1.11049">
        <ele>165</ele>
        <time>2026-07-07T12:12:28.971Z</time>
      </trkpt>
      <trkpt lat="49.49301" lon="1.11055">
        <ele>165</ele>
        <time>2026-07-07T12:12:33.350Z</time>
      </trkpt>
      <trkpt lat="49.493" lon="1.11061">
        <ele>165</ele>
        <time>2026-07-07T12:12:37.972Z</time>
      </trkpt>
      <trkpt lat="49.49299" lon="1.11068">
        <ele>165</ele>
        <time>2026-07-07T12:12:42.253Z</time>
      </trkpt>
      <trkpt lat="49.49298" lon="1.11074">
        <ele>165</ele>
        <time>2026-07-07T12:12:46.350Z</time>
      </trkpt>
      <trkpt lat="49.49295" lon="1.11079">
        <ele>165</ele>
        <time>2026-07-07T12:12:50.652Z</time>
      </trkpt>
      <trkpt lat="49.49293" lon="1.11086">
        <ele>165</ele>
        <time>2026-07-07T12:12:54.888Z</time>
      </trkpt>
      <trkpt lat="49.49292" lon="1.11093">
        <ele>165</ele>
        <time>2026-07-07T12:12:59.613Z</time>
      </trkpt>
      <trkpt lat="49.49292" lon="1.11097">
        <ele>166</ele>
        <time>2026-07-07T12:13:03.652Z</time>
      </trkpt>
      <trkpt lat="49.49291" lon="1.11104">
        <ele>163</ele>
        <time>2026-07-07T12:13:08.192Z</time>
      </trkpt>
      <trkpt lat="49.4929" lon="1.11109">
        <ele>163</ele>
        <time>2026-07-07T12:13:12.214Z</time>
      </trkpt>
      <trkpt lat="49.49292" lon="1.1113">
        <ele>163</ele>
        <time>2026-07-07T12:13:31.349Z</time>
      </trkpt>
      <trkpt lat="49.4929" lon="1.11134">
        <ele>163</ele>
        <time>2026-07-07T12:13:35.731Z</time>
      </trkpt>
      <trkpt lat="49.49286" lon="1.11143">
        <ele>163</ele>
        <time>2026-07-07T12:13:40.316Z</time>
      </trkpt>
      <trkpt lat="49.49286" lon="1.11152">
        <ele>163</ele>
        <time>2026-07-07T12:13:44.350Z</time>
      </trkpt>
      <trkpt lat="49.49286" lon="1.11161">
        <ele>164</ele>
        <time>2026-07-07T12:13:48.867Z</time>
      </trkpt>
      <trkpt lat="49.49283" lon="1.11171">
        <ele>164</ele>
        <time>2026-07-07T12:13:52.907Z</time>
      </trkpt>
      <trkpt lat="49.49282" lon="1.11179">
        <ele>164</ele>
        <time>2026-07-07T12:13:56.989Z</time>
      </trkpt>
      <trkpt lat="49.49279" lon="1.11188">
        <ele>165</ele>
        <time>2026-07-07T12:14:01.591Z</time>
      </trkpt>
      <trkpt lat="49.49276" lon="1.11195">
        <ele>165</ele>
        <time>2026-07-07T12:14:06.113Z</time>
      </trkpt>
      <trkpt lat="49.49274" lon="1.11202">
        <ele>165</ele>
        <time>2026-07-07T12:14:10.170Z</time>
      </trkpt>
      <trkpt lat="49.49272" lon="1.11209">
        <ele>166</ele>
        <time>2026-07-07T12:14:14.332Z</time>
      </trkpt>
      <trkpt lat="49.49271" lon="1.11216">
        <ele>166</ele>
        <time>2026-07-07T12:14:18.531Z</time>
      </trkpt>
      <trkpt lat="49.4927" lon="1.11223">
        <ele>166</ele>
        <time>2026-07-07T12:14:22.726Z</time>
      </trkpt>
      <trkpt lat="49.49268" lon="1.1123">
        <ele>166</ele>
        <time>2026-07-07T12:14:26.932Z</time>
      </trkpt>
      <trkpt lat="49.49268" lon="1.11238">
        <ele>166</ele>
        <time>2026-07-07T12:14:31.062Z</time>
      </trkpt>
      <trkpt lat="49.49268" lon="1.11245">
        <ele>166</ele>
        <time>2026-07-07T12:14:35.132Z</time>
      </trkpt>
      <trkpt lat="49.49267" lon="1.11252">
        <ele>166</ele>
        <time>2026-07-07T12:14:39.207Z</time>
      </trkpt>
      <trkpt lat="49.49265" lon="1.11259">
        <ele>166</ele>
        <time>2026-07-07T12:14:43.554Z</time>
      </trkpt>
      <trkpt lat="49.49264" lon="1.11266">
        <ele>164</ele>
        <time>2026-07-07T12:14:47.628Z</time>
      </trkpt>
      <trkpt lat="49.49262" lon="1.11272">
        <ele>164</ele>
        <time>2026-07-07T12:14:51.790Z</time>
      </trkpt>
      <trkpt lat="49.4926" lon="1.11279">
        <ele>164</ele>
        <time>2026-07-07T12:14:56.031Z</time>
      </trkpt>
      <trkpt lat="49.49258" lon="1.11285">
        <ele>164</ele>
        <time>2026-07-07T12:15:00.132Z</time>
      </trkpt>
      <trkpt lat="49.49255" lon="1.11292">
        <ele>164</ele>
        <time>2026-07-07T12:15:04.206Z</time>
      </trkpt>
      <trkpt lat="49.49253" lon="1.11298">
        <ele>165</ele>
        <time>2026-07-07T12:15:08.289Z</time>
      </trkpt>
      <trkpt lat="49.49252" lon="1.11305">
        <ele>165</ele>
        <time>2026-07-07T12:15:12.349Z</time>
      </trkpt>
      <trkpt lat="49.49251" lon="1.11313">
        <ele>165</ele>
        <time>2026-07-07T12:15:16.693Z</time>
      </trkpt>
      <trkpt lat="49.4925" lon="1.11319">
        <ele>166</ele>
        <time>2026-07-07T12:15:20.889Z</time>
      </trkpt>
      <trkpt lat="49.49249" lon="1.11327">
        <ele>166</ele>
        <time>2026-07-07T12:15:25.034Z</time>
      </trkpt>
      <trkpt lat="49.49248" lon="1.11334">
        <ele>166</ele>
        <time>2026-07-07T12:15:29.232Z</time>
      </trkpt>
      <trkpt lat="49.49246" lon="1.11341">
        <ele>166</ele>
        <time>2026-07-07T12:15:33.752Z</time>
      </trkpt>
      <trkpt lat="49.49245" lon="1.11349">
        <ele>167</ele>
        <time>2026-07-07T12:15:37.827Z</time>
      </trkpt>
      <trkpt lat="49.49244" lon="1.11356">
        <ele>167</ele>
        <time>2026-07-07T12:15:41.910Z</time>
      </trkpt>
      <trkpt lat="49.49244" lon="1.11364">
        <ele>167</ele>
        <time>2026-07-07T12:15:45.931Z</time>
      </trkpt>
      <trkpt lat="49.49244" lon="1.11372">
        <ele>167</ele>
        <time>2026-07-07T12:15:49.989Z</time>
      </trkpt>
      <trkpt lat="49.49243" lon="1.1138">
        <ele>168</ele>
        <time>2026-07-07T12:15:54.088Z</time>
      </trkpt>
      <trkpt lat="49.49242" lon="1.11387">
        <ele>168</ele>
        <time>2026-07-07T12:15:58.171Z</time>
      </trkpt>
      <trkpt lat="49.4924" lon="1.11394">
        <ele>168</ele>
        <time>2026-07-07T12:16:02.211Z</time>
      </trkpt>
      <trkpt lat="49.49239" lon="1.11401">
        <ele>168</ele>
        <time>2026-07-07T12:16:06.293Z</time>
      </trkpt>
      <trkpt lat="49.49238" lon="1.11409">
        <ele>170</ele>
        <time>2026-07-07T12:16:10.350Z</time>
      </trkpt>
      <trkpt lat="49.49236" lon="1.11415">
        <ele>170</ele>
        <time>2026-07-07T12:16:14.349Z</time>
      </trkpt>
      <trkpt lat="49.49235" lon="1.11423">
        <ele>168</ele>
        <time>2026-07-07T12:16:18.534Z</time>
      </trkpt>
      <trkpt lat="49.49233" lon="1.11429">
        <ele>168</ele>
        <time>2026-07-07T12:16:22.669Z</time>
      </trkpt>
      <trkpt lat="49.49232" lon="1.11436">
        <ele>171</ele>
        <time>2026-07-07T12:16:26.787Z</time>
      </trkpt>
      <trkpt lat="49.49235" lon="1.11443">
        <ele>171</ele>
        <time>2026-07-07T12:16:30.852Z</time>
      </trkpt>
      <trkpt lat="49.49241" lon="1.11447">
        <ele>171</ele>
        <time>2026-07-07T12:16:35.093Z</time>
      </trkpt>
      <trkpt lat="49.49245" lon="1.11453">
        <ele>171</ele>
        <time>2026-07-07T12:16:39.350Z</time>
      </trkpt>
      <trkpt lat="49.49245" lon="1.11462">
        <ele>173</ele>
        <time>2026-07-07T12:16:43.514Z</time>
      </trkpt>
      <trkpt lat="49.49244" lon="1.11469">
        <ele>173</ele>
        <time>2026-07-07T12:16:47.526Z</time>
      </trkpt>
      <trkpt lat="49.49242" lon="1.11477">
        <ele>173</ele>
        <time>2026-07-07T12:16:51.654Z</time>
      </trkpt>
      <trkpt lat="49.4924" lon="1.11483">
        <ele>173</ele>
        <time>2026-07-07T12:16:55.757Z</time>
      </trkpt>
      <trkpt lat="49.49237" lon="1.11488">
        <ele>174</ele>
        <time>2026-07-07T12:16:59.953Z</time>
      </trkpt>
      <trkpt lat="49.49234" lon="1.11494">
        <ele>175</ele>
        <time>2026-07-07T12:17:04.088Z</time>
      </trkpt>
      <trkpt lat="49.49232" lon="1.11498">
        <ele>175</ele>
        <time>2026-07-07T12:17:08.249Z</time>
      </trkpt>
      <trkpt lat="49.4923" lon="1.11505">
        <ele>175</ele>
        <time>2026-07-07T12:17:12.349Z</time>
      </trkpt>
      <trkpt lat="49.49228" lon="1.11512">
        <ele>175</ele>
        <time>2026-07-07T12:17:16.573Z</time>
      </trkpt>
      <trkpt lat="49.49228" lon="1.1152">
        <ele>176</ele>
        <time>2026-07-07T12:17:20.711Z</time>
      </trkpt>
      <trkpt lat="49.49229" lon="1.11527">
        <ele>176</ele>
        <time>2026-07-07T12:17:24.872Z</time>
      </trkpt>
      <trkpt lat="49.49229" lon="1.11535">
        <ele>176</ele>
        <time>2026-07-07T12:17:29.034Z</time>
      </trkpt>
      <trkpt lat="49.49229" lon="1.11543">
        <ele>176</ele>
        <time>2026-07-07T12:17:33.134Z</time>
      </trkpt>
      <trkpt lat="49.49228" lon="1.11549">
        <ele>176</ele>
        <time>2026-07-07T12:17:37.253Z</time>
      </trkpt>
      <trkpt lat="49.49226" lon="1.11554">
        <ele>176</ele>
        <time>2026-07-07T12:17:41.350Z</time>
      </trkpt>
      <trkpt lat="49.49225" lon="1.11561">
        <ele>176</ele>
        <time>2026-07-07T12:17:45.507Z</time>
      </trkpt>
      <trkpt lat="49.49225" lon="1.11568">
        <ele>176</ele>
        <time>2026-07-07T12:17:49.652Z</time>
      </trkpt>
      <trkpt lat="49.49223" lon="1.11575">
        <ele>177</ele>
        <time>2026-07-07T12:17:53.734Z</time>
      </trkpt>
      <trkpt lat="49.49221" lon="1.11582">
        <ele>177</ele>
        <time>2026-07-07T12:17:57.887Z</time>
      </trkpt>
      <trkpt lat="49.49219" lon="1.11589">
        <ele>177</ele>
        <time>2026-07-07T12:18:02.062Z</time>
      </trkpt>
      <trkpt lat="49.49217" lon="1.11595">
        <ele>177</ele>
        <time>2026-07-07T12:18:06.167Z</time>
      </trkpt>
      <trkpt lat="49.49213" lon="1.116">
        <ele>177</ele>
        <time>2026-07-07T12:18:10.329Z</time>
      </trkpt>
      <trkpt lat="49.49211" lon="1.11608">
        <ele>177</ele>
        <time>2026-07-07T12:18:14.491Z</time>
      </trkpt>
      <trkpt lat="49.49211" lon="1.11626">
        <ele>177</ele>
        <time>2026-07-07T12:18:31.349Z</time>
      </trkpt>
      <trkpt lat="49.49211" lon="1.1163">
        <ele>177</ele>
        <time>2026-07-07T12:18:35.530Z</time>
      </trkpt>
      <trkpt lat="49.4921" lon="1.1164">
        <ele>177</ele>
        <time>2026-07-07T12:18:39.789Z</time>
      </trkpt>
      <trkpt lat="49.4921" lon="1.11648">
        <ele>177</ele>
        <time>2026-07-07T12:18:44.127Z</time>
      </trkpt>
      <trkpt lat="49.49208" lon="1.11654">
        <ele>175</ele>
        <time>2026-07-07T12:18:48.350Z</time>
      </trkpt>
      <trkpt lat="49.49205" lon="1.11661">
        <ele>175</ele>
        <time>2026-07-07T12:18:52.714Z</time>
      </trkpt>
      <trkpt lat="49.49201" lon="1.11666">
        <ele>175</ele>
        <time>2026-07-07T12:18:56.973Z</time>
      </trkpt>
      <trkpt lat="49.49198" lon="1.11673">
        <ele>175</ele>
        <time>2026-07-07T12:19:01.109Z</time>
      </trkpt>
      <trkpt lat="49.49197" lon="1.1168">
        <ele>175</ele>
        <time>2026-07-07T12:19:05.350Z</time>
      </trkpt>
      <trkpt lat="49.49196" lon="1.11688">
        <ele>175</ele>
        <time>2026-07-07T12:19:09.687Z</time>
      </trkpt>
      <trkpt lat="49.49196" lon="1.11696">
        <ele>175</ele>
        <time>2026-07-07T12:19:14.033Z</time>
      </trkpt>
      <trkpt lat="49.49195" lon="1.11703">
        <ele>175</ele>
        <time>2026-07-07T12:19:18.291Z</time>
      </trkpt>
      <trkpt lat="49.49193" lon="1.1171">
        <ele>174</ele>
        <time>2026-07-07T12:19:22.348Z</time>
      </trkpt>
      <trkpt lat="49.49191" lon="1.11716">
        <ele>174</ele>
        <time>2026-07-07T12:19:26.349Z</time>
      </trkpt>
      <trkpt lat="49.49189" lon="1.11723">
        <ele>174</ele>
        <time>2026-07-07T12:19:30.770Z</time>
      </trkpt>
      <trkpt lat="49.49187" lon="1.11729">
        <ele>174</ele>
        <time>2026-07-07T12:19:34.992Z</time>
      </trkpt>
      <trkpt lat="49.49186" lon="1.11731">
        <ele>174</ele>
        <time>2026-07-07T12:19:39.349Z</time>
      </trkpt>
      <trkpt lat="49.49187" lon="1.1173">
        <ele>174</ele>
        <time>2026-07-07T12:19:54.348Z</time>
      </trkpt>
      <trkpt lat="49.49187" lon="1.11729">
        <ele>174</ele>
        <time>2026-07-07T12:19:58.349Z</time>
      </trkpt>
      <trkpt lat="49.49188" lon="1.11728">
        <ele>174</ele>
        <time>2026-07-07T12:20:02.928Z</time>
      </trkpt>
      <trkpt lat="49.49191" lon="1.11724">
        <ele>174</ele>
        <time>2026-07-07T12:20:07.348Z</time>
      </trkpt>
      <trkpt lat="49.49191" lon="1.11718">
        <ele>174</ele>
        <time>2026-07-07T12:20:12.068Z</time>
      </trkpt>
      <trkpt lat="49.49193" lon="1.1171">
        <ele>174</ele>
        <time>2026-07-07T12:20:16.349Z</time>
      </trkpt>
      <trkpt lat="49.49196" lon="1.11703">
        <ele>175</ele>
        <time>2026-07-07T12:20:20.994Z</time>
      </trkpt>
      <trkpt lat="49.49198" lon="1.11697">
        <ele>175</ele>
        <time>2026-07-07T12:20:25.068Z</time>
      </trkpt>
      <trkpt lat="49.49198" lon="1.1169">
        <ele>175</ele>
        <time>2026-07-07T12:20:29.310Z</time>
      </trkpt>
      <trkpt lat="49.492" lon="1.11684">
        <ele>175</ele>
        <time>2026-07-07T12:20:33.348Z</time>
      </trkpt>
      <trkpt lat="49.49199" lon="1.1168">
        <ele>175</ele>
        <time>2026-07-07T12:20:37.871Z</time>
      </trkpt>
      <trkpt lat="49.492" lon="1.11677">
        <ele>175</ele>
        <time>2026-07-07T12:20:42.349Z</time>
      </trkpt>
      <trkpt lat="49.49203" lon="1.11673">
        <ele>175</ele>
        <time>2026-07-07T12:20:46.672Z</time>
      </trkpt>
      <trkpt lat="49.49208" lon="1.11667">
        <ele>177</ele>
        <time>2026-07-07T12:20:51.006Z</time>
      </trkpt>
      <trkpt lat="49.49211" lon="1.11659">
        <ele>177</ele>
        <time>2026-07-07T12:20:55.230Z</time>
      </trkpt>
      <trkpt lat="49.49213" lon="1.11652">
        <ele>177</ele>
        <time>2026-07-07T12:20:59.348Z</time>
      </trkpt>
      <trkpt lat="49.49213" lon="1.11645">
        <ele>177</ele>
        <time>2026-07-07T12:21:03.369Z</time>
      </trkpt>
      <trkpt lat="49.49212" lon="1.11639">
        <ele>177</ele>
        <time>2026-07-07T12:21:07.830Z</time>
      </trkpt>
      <trkpt lat="49.49212" lon="1.11631">
        <ele>177</ele>
        <time>2026-07-07T12:21:12.057Z</time>
      </trkpt>
      <trkpt lat="49.49212" lon="1.11621">
        <ele>177</ele>
        <time>2026-07-07T12:21:16.348Z</time>
      </trkpt>
      <trkpt lat="49.49213" lon="1.11613">
        <ele>177</ele>
        <time>2026-07-07T12:21:20.589Z</time>
      </trkpt>
      <trkpt lat="49.49215" lon="1.11605">
        <ele>177</ele>
        <time>2026-07-07T12:21:25.349Z</time>
      </trkpt>
      <trkpt lat="49.49218" lon="1.11599">
        <ele>177</ele>
        <time>2026-07-07T12:21:30.168Z</time>
      </trkpt>
      <trkpt lat="49.4922" lon="1.11593">
        <ele>177</ele>
        <time>2026-07-07T12:21:34.348Z</time>
      </trkpt>
      <trkpt lat="49.49222" lon="1.11586">
        <ele>177</ele>
        <time>2026-07-07T12:21:38.651Z</time>
      </trkpt>
      <trkpt lat="49.49224" lon="1.11581">
        <ele>177</ele>
        <time>2026-07-07T12:21:42.830Z</time>
      </trkpt>
      <trkpt lat="49.49225" lon="1.11574">
        <ele>177</ele>
        <time>2026-07-07T12:21:47.106Z</time>
      </trkpt>
      <trkpt lat="49.49225" lon="1.11567">
        <ele>176</ele>
        <time>2026-07-07T12:21:51.349Z</time>
      </trkpt>
      <trkpt lat="49.49226" lon="1.11563">
        <ele>176</ele>
        <time>2026-07-07T12:21:55.807Z</time>
      </trkpt>
      <trkpt lat="49.49225" lon="1.11561">
        <ele>176</ele>
        <time>2026-07-07T12:22:00.189Z</time>
      </trkpt>
      <trkpt lat="49.49225" lon="1.11555">
        <ele>176</ele>
        <time>2026-07-07T12:22:04.348Z</time>
      </trkpt>
      <trkpt lat="49.49228" lon="1.1155">
        <ele>176</ele>
        <time>2026-07-07T12:22:08.609Z</time>
      </trkpt>
      <trkpt lat="49.49233" lon="1.11545">
        <ele>176</ele>
        <time>2026-07-07T12:22:12.850Z</time>
      </trkpt>
      <trkpt lat="49.49235" lon="1.11539">
        <ele>176</ele>
        <time>2026-07-07T12:22:17.108Z</time>
      </trkpt>
      <trkpt lat="49.49235" lon="1.11533">
        <ele>176</ele>
        <time>2026-07-07T12:22:21.333Z</time>
      </trkpt>
      <trkpt lat="49.49233" lon="1.11526">
        <ele>176</ele>
        <time>2026-07-07T12:22:25.607Z</time>
      </trkpt>
      <trkpt lat="49.49232" lon="1.11519">
        <ele>176</ele>
        <time>2026-07-07T12:22:29.770Z</time>
      </trkpt>
      <trkpt lat="49.49233" lon="1.11513">
        <ele>175</ele>
        <time>2026-07-07T12:22:33.826Z</time>
      </trkpt>
      <trkpt lat="49.49236" lon="1.11509">
        <ele>174</ele>
        <time>2026-07-07T12:22:38.006Z</time>
      </trkpt>
      <trkpt lat="49.4924" lon="1.11505">
        <ele>174</ele>
        <time>2026-07-07T12:22:42.195Z</time>
      </trkpt>
      <trkpt lat="49.49244" lon="1.11501">
        <ele>174</ele>
        <time>2026-07-07T12:22:46.287Z</time>
      </trkpt>
      <trkpt lat="49.49247" lon="1.11496">
        <ele>174</ele>
        <time>2026-07-07T12:22:50.351Z</time>
      </trkpt>
      <trkpt lat="49.49248" lon="1.11486">
        <ele>173</ele>
        <time>2026-07-07T12:22:55.127Z</time>
      </trkpt>
      <trkpt lat="49.4925" lon="1.11478">
        <ele>173</ele>
        <time>2026-07-07T12:22:59.254Z</time>
      </trkpt>
      <trkpt lat="49.49253" lon="1.11473">
        <ele>173</ele>
        <time>2026-07-07T12:23:03.558Z</time>
      </trkpt>
      <trkpt lat="49.49257" lon="1.11468">
        <ele>173</ele>
        <time>2026-07-07T12:23:07.728Z</time>
      </trkpt>
      <trkpt lat="49.49259" lon="1.11462">
        <ele>173</ele>
        <time>2026-07-07T12:23:12.073Z</time>
      </trkpt>
      <trkpt lat="49.49264" lon="1.11457">
        <ele>171</ele>
        <time>2026-07-07T12:26:13.347Z</time>
      </trkpt>
      <trkpt lat="49.49264" lon="1.11457">
        <ele>171</ele>
        <time>2026-07-07T12:26:18.347Z</time>
      </trkpt>
      <trkpt lat="49.49265" lon="1.11457">
        <ele>171</ele>
        <time>2026-07-07T12:26:28.347Z</time>
      </trkpt>
      <trkpt lat="49.49268" lon="1.11455">
        <ele>171</ele>
        <time>2026-07-07T12:26:33.347Z</time>
      </trkpt>
      <trkpt lat="49.49273" lon="1.11454">
        <ele>171</ele>
        <time>2026-07-07T12:26:38.348Z</time>
      </trkpt>
      <trkpt lat="49.49279" lon="1.11454">
        <ele>171</ele>
        <time>2026-07-07T12:26:42.788Z</time>
      </trkpt>
      <trkpt lat="49.49284" lon="1.11455">
        <ele>171</ele>
        <time>2026-07-07T12:26:47.327Z</time>
      </trkpt>
      <trkpt lat="49.49288" lon="1.11458">
        <ele>173</ele>
        <time>2026-07-07T12:26:51.892Z</time>
      </trkpt>
      <trkpt lat="49.49293" lon="1.11462">
        <ele>172</ele>
        <time>2026-07-07T12:26:55.914Z</time>
      </trkpt>
      <trkpt lat="49.49298" lon="1.11464">
        <ele>172</ele>
        <time>2026-07-07T12:27:00.347Z</time>
      </trkpt>
      <trkpt lat="49.49302" lon="1.11464">
        <ele>172</ele>
        <time>2026-07-07T12:27:04.347Z</time>
      </trkpt>
      <trkpt lat="49.49306" lon="1.11465">
        <ele>172</ele>
        <time>2026-07-07T12:27:08.347Z</time>
      </trkpt>
      <trkpt lat="49.49311" lon="1.11463">
        <ele>172</ele>
        <time>2026-07-07T12:27:12.930Z</time>
      </trkpt>
      <trkpt lat="49.49316" lon="1.11464">
        <ele>172</ele>
        <time>2026-07-07T12:27:17.468Z</time>
      </trkpt>
      <trkpt lat="49.49322" lon="1.11466">
        <ele>172</ele>
        <time>2026-07-07T12:27:21.991Z</time>
      </trkpt>
      <trkpt lat="49.49327" lon="1.11468">
        <ele>172</ele>
        <time>2026-07-07T12:27:26.013Z</time>
      </trkpt>
      <trkpt lat="49.49333" lon="1.11472">
        <ele>172</ele>
        <time>2026-07-07T12:27:30.065Z</time>
      </trkpt>
      <trkpt lat="49.49339" lon="1.11476">
        <ele>172</ele>
        <time>2026-07-07T12:27:34.590Z</time>
      </trkpt>
      <trkpt lat="49.49344" lon="1.11478">
        <ele>172</ele>
        <time>2026-07-07T12:27:39.147Z</time>
      </trkpt>
      <trkpt lat="49.49349" lon="1.11481">
        <ele>172</ele>
        <time>2026-07-07T12:27:43.669Z</time>
      </trkpt>
      <trkpt lat="49.49354" lon="1.11484">
        <ele>172</ele>
        <time>2026-07-07T12:27:47.691Z</time>
      </trkpt>
      <trkpt lat="49.49358" lon="1.11486">
        <ele>172</ele>
        <time>2026-07-07T12:27:52.231Z</time>
      </trkpt>
      <trkpt lat="49.49363" lon="1.11488">
        <ele>173</ele>
        <time>2026-07-07T12:27:56.752Z</time>
      </trkpt>
      <trkpt lat="49.49368" lon="1.1149">
        <ele>173</ele>
        <time>2026-07-07T12:28:00.791Z</time>
      </trkpt>
      <trkpt lat="49.49373" lon="1.11492">
        <ele>173</ele>
        <time>2026-07-07T12:28:04.831Z</time>
      </trkpt>
      <trkpt lat="49.49379" lon="1.11493">
        <ele>173</ele>
        <time>2026-07-07T12:28:09.347Z</time>
      </trkpt>
      <trkpt lat="49.49385" lon="1.11493">
        <ele>173</ele>
        <time>2026-07-07T12:28:13.909Z</time>
      </trkpt>
      <trkpt lat="49.49391" lon="1.11495">
        <ele>173</ele>
        <time>2026-07-07T12:28:18.347Z</time>
      </trkpt>
      <trkpt lat="49.49396" lon="1.11497">
        <ele>173</ele>
        <time>2026-07-07T12:28:22.927Z</time>
      </trkpt>
      <trkpt lat="49.49402" lon="1.11497">
        <ele>173</ele>
        <time>2026-07-07T12:28:26.950Z</time>
      </trkpt>
      <trkpt lat="49.49407" lon="1.11499">
        <ele>172</ele>
        <time>2026-07-07T12:28:31.488Z</time>
      </trkpt>
      <trkpt lat="49.49413" lon="1.115">
        <ele>172</ele>
        <time>2026-07-07T12:28:36.058Z</time>
      </trkpt>
      <trkpt lat="49.49418" lon="1.11503">
        <ele>172</ele>
        <time>2026-07-07T12:28:40.092Z</time>
      </trkpt>
      <trkpt lat="49.49423" lon="1.11506">
        <ele>172</ele>
        <time>2026-07-07T12:28:44.113Z</time>
      </trkpt>
      <trkpt lat="49.49427" lon="1.11509">
        <ele>172</ele>
        <time>2026-07-07T12:28:48.170Z</time>
      </trkpt>
      <trkpt lat="49.49432" lon="1.11512">
        <ele>173</ele>
        <time>2026-07-07T12:28:52.727Z</time>
      </trkpt>
      <trkpt lat="49.49437" lon="1.11514">
        <ele>174</ele>
        <time>2026-07-07T12:28:57.231Z</time>
      </trkpt>
      <trkpt lat="49.49443" lon="1.11516">
        <ele>174</ele>
        <time>2026-07-07T12:29:01.807Z</time>
      </trkpt>
      <trkpt lat="49.49448" lon="1.11518">
        <ele>174</ele>
        <time>2026-07-07T12:29:06.214Z</time>
      </trkpt>
      <trkpt lat="49.49453" lon="1.11521">
        <ele>174</ele>
        <time>2026-07-07T12:29:10.709Z</time>
      </trkpt>
      <trkpt lat="49.49459" lon="1.11523">
        <ele>173</ele>
        <time>2026-07-07T12:29:15.187Z</time>
      </trkpt>
      <trkpt lat="49.49464" lon="1.11526">
        <ele>173</ele>
        <time>2026-07-07T12:29:19.726Z</time>
      </trkpt>
      <trkpt lat="49.49469" lon="1.11528">
        <ele>173</ele>
        <time>2026-07-07T12:29:23.748Z</time>
      </trkpt>
      <trkpt lat="49.49475" lon="1.11529">
        <ele>173</ele>
        <time>2026-07-07T12:29:28.348Z</time>
      </trkpt>
      <trkpt lat="49.4948" lon="1.11532">
        <ele>173</ele>
        <time>2026-07-07T12:29:32.888Z</time>
      </trkpt>
      <trkpt lat="49.49485" lon="1.11534">
        <ele>173</ele>
        <time>2026-07-07T12:29:37.348Z</time>
      </trkpt>
      <trkpt lat="49.4949" lon="1.11536">
        <ele>173</ele>
        <time>2026-07-07T12:29:41.348Z</time>
      </trkpt>
      <trkpt lat="49.49495" lon="1.11538">
        <ele>173</ele>
        <time>2026-07-07T12:29:45.927Z</time>
      </trkpt>
      <trkpt lat="49.495" lon="1.1154">
        <ele>173</ele>
        <time>2026-07-07T12:29:49.930Z</time>
      </trkpt>
      <trkpt lat="49.49505" lon="1.11543">
        <ele>174</ele>
        <time>2026-07-07T12:29:54.347Z</time>
      </trkpt>
      <trkpt lat="49.49511" lon="1.11545">
        <ele>174</ele>
        <time>2026-07-07T12:29:59.009Z</time>
      </trkpt>
      <trkpt lat="49.49516" lon="1.11549">
        <ele>174</ele>
        <time>2026-07-07T12:30:03.567Z</time>
      </trkpt>
      <trkpt lat="49.49521" lon="1.1155">
        <ele>174</ele>
        <time>2026-07-07T12:30:07.572Z</time>
      </trkpt>
      <trkpt lat="49.49526" lon="1.11552">
        <ele>174</ele>
        <time>2026-07-07T12:30:11.609Z</time>
      </trkpt>
      <trkpt lat="49.49531" lon="1.11553">
        <ele>174</ele>
        <time>2026-07-07T12:30:16.113Z</time>
      </trkpt>
      <trkpt lat="49.49536" lon="1.11554">
        <ele>174</ele>
        <time>2026-07-07T12:30:20.608Z</time>
      </trkpt>
      <trkpt lat="49.49541" lon="1.11556">
        <ele>174</ele>
        <time>2026-07-07T12:30:25.130Z</time>
      </trkpt>
      <trkpt lat="49.49546" lon="1.11558">
        <ele>174</ele>
        <time>2026-07-07T12:30:29.609Z</time>
      </trkpt>
      <trkpt lat="49.49552" lon="1.1156">
        <ele>174</ele>
        <time>2026-07-07T12:30:34.069Z</time>
      </trkpt>
      <trkpt lat="49.49558" lon="1.11562">
        <ele>174</ele>
        <time>2026-07-07T12:30:38.608Z</time>
      </trkpt>
      <trkpt lat="49.49563" lon="1.11564">
        <ele>174</ele>
        <time>2026-07-07T12:30:42.630Z</time>
      </trkpt>
      <trkpt lat="49.49568" lon="1.11565">
        <ele>174</ele>
        <time>2026-07-07T12:30:46.668Z</time>
      </trkpt>
      <trkpt lat="49.49572" lon="1.11566">
        <ele>175</ele>
        <time>2026-07-07T12:30:51.331Z</time>
      </trkpt>
      <trkpt lat="49.49576" lon="1.11568">
        <ele>175</ele>
        <time>2026-07-07T12:30:55.347Z</time>
      </trkpt>
      <trkpt lat="49.49578" lon="1.11564">
        <ele>175</ele>
        <time>2026-07-07T12:30:59.887Z</time>
      </trkpt>
      <trkpt lat="49.49581" lon="1.11561">
        <ele>175</ele>
        <time>2026-07-07T12:31:04.172Z</time>
      </trkpt>
      <trkpt lat="49.49583" lon="1.11553">
        <ele>175</ele>
        <time>2026-07-07T12:31:08.352Z</time>
      </trkpt>
      <trkpt lat="49.49584" lon="1.11548">
        <ele>175</ele>
        <time>2026-07-07T12:31:12.610Z</time>
      </trkpt>
      <trkpt lat="49.49586" lon="1.11543">
        <ele>175</ele>
        <time>2026-07-07T12:31:16.808Z</time>
      </trkpt>
      <trkpt lat="49.49588" lon="1.11537">
        <ele>176</ele>
        <time>2026-07-07T12:31:20.890Z</time>
      </trkpt>
      <trkpt lat="49.49589" lon="1.11532">
        <ele>176</ele>
        <time>2026-07-07T12:31:25.009Z</time>
      </trkpt>
      <trkpt lat="49.49591" lon="1.11526">
        <ele>176</ele>
        <time>2026-07-07T12:31:29.031Z</time>
      </trkpt>
      <trkpt lat="49.49592" lon="1.1152">
        <ele>176</ele>
        <time>2026-07-07T12:31:33.210Z</time>
      </trkpt>
      <trkpt lat="49.49593" lon="1.11516">
        <ele>176</ele>
        <time>2026-07-07T12:31:37.347Z</time>
      </trkpt>
      <trkpt lat="49.49594" lon="1.11508">
        <ele>175</ele>
        <time>2026-07-07T12:31:41.666Z</time>
      </trkpt>
      <trkpt lat="49.49596" lon="1.11502">
        <ele>175</ele>
        <time>2026-07-07T12:31:45.732Z</time>
      </trkpt>
      <trkpt lat="49.49597" lon="1.11494">
        <ele>178</ele>
        <time>2026-07-07T12:31:50.306Z</time>
      </trkpt>
      <trkpt lat="49.49599" lon="1.11487">
        <ele>178</ele>
        <time>2026-07-07T12:31:54.348Z</time>
      </trkpt>
      <trkpt lat="49.496" lon="1.1148">
        <ele>178</ele>
        <time>2026-07-07T12:31:58.490Z</time>
      </trkpt>
      <trkpt lat="49.49601" lon="1.11473">
        <ele>178</ele>
        <time>2026-07-07T12:32:02.609Z</time>
      </trkpt>
      <trkpt lat="49.49601" lon="1.11464">
        <ele>178</ele>
        <time>2026-07-07T12:32:07.149Z</time>
      </trkpt>
      <trkpt lat="49.496" lon="1.11456">
        <ele>178</ele>
        <time>2026-07-07T12:32:11.249Z</time>
      </trkpt>
      <trkpt lat="49.49601" lon="1.11448">
        <ele>178</ele>
        <time>2026-07-07T12:32:15.832Z</time>
      </trkpt>
      <trkpt lat="49.49603" lon="1.1144">
        <ele>178</ele>
        <time>2026-07-07T12:32:20.347Z</time>
      </trkpt>
      <trkpt lat="49.49603" lon="1.11433">
        <ele>178</ele>
        <time>2026-07-07T12:32:24.535Z</time>
      </trkpt>
      <trkpt lat="49.49604" lon="1.11426">
        <ele>178</ele>
        <time>2026-07-07T12:32:28.687Z</time>
      </trkpt>
      <trkpt lat="49.49606" lon="1.1142">
        <ele>178</ele>
        <time>2026-07-07T12:32:32.972Z</time>
      </trkpt>
      <trkpt lat="49.49607" lon="1.11417">
        <ele>178</ele>
        <time>2026-07-07T12:32:37.495Z</time>
      </trkpt>
      <trkpt lat="49.49607" lon="1.11408">
        <ele>178</ele>
        <time>2026-07-07T12:32:41.586Z</time>
      </trkpt>
      <trkpt lat="49.49608" lon="1.11399">
        <ele>177</ele>
        <time>2026-07-07T12:32:46.126Z</time>
      </trkpt>
      <trkpt lat="49.49609" lon="1.11392">
        <ele>177</ele>
        <time>2026-07-07T12:32:50.192Z</time>
      </trkpt>
      <trkpt lat="49.49611" lon="1.11385">
        <ele>177</ele>
        <time>2026-07-07T12:32:54.309Z</time>
      </trkpt>
      <trkpt lat="49.49612" lon="1.11379">
        <ele>177</ele>
        <time>2026-07-07T12:32:58.347Z</time>
      </trkpt>
      <trkpt lat="49.49614" lon="1.11372">
        <ele>176</ele>
        <time>2026-07-07T12:33:02.792Z</time>
      </trkpt>
      <trkpt lat="49.49615" lon="1.11365">
        <ele>176</ele>
        <time>2026-07-07T12:33:06.910Z</time>
      </trkpt>
      <trkpt lat="49.49614" lon="1.11358">
        <ele>176</ele>
        <time>2026-07-07T12:33:11.067Z</time>
      </trkpt>
      <trkpt lat="49.49613" lon="1.1135">
        <ele>176</ele>
        <time>2026-07-07T12:33:15.191Z</time>
      </trkpt>
      <trkpt lat="49.49615" lon="1.11341">
        <ele>175</ele>
        <time>2026-07-07T12:33:19.346Z</time>
      </trkpt>
      <trkpt lat="49.49616" lon="1.11334">
        <ele>175</ele>
        <time>2026-07-07T12:33:23.593Z</time>
      </trkpt>
      <trkpt lat="49.49618" lon="1.11327">
        <ele>175</ele>
        <time>2026-07-07T12:33:27.693Z</time>
      </trkpt>
      <trkpt lat="49.49621" lon="1.11321">
        <ele>175</ele>
        <time>2026-07-07T12:33:31.889Z</time>
      </trkpt>
      <trkpt lat="49.49623" lon="1.11315">
        <ele>173</ele>
        <time>2026-07-07T12:33:35.946Z</time>
      </trkpt>
      <trkpt lat="49.49625" lon="1.11308">
        <ele>173</ele>
        <time>2026-07-07T12:33:40.051Z</time>
      </trkpt>
      <trkpt lat="49.49625" lon="1.11304">
        <ele>173</ele>
        <time>2026-07-07T12:33:44.148Z</time>
      </trkpt>
      <trkpt lat="49.49625" lon="1.11293">
        <ele>175</ele>
        <time>2026-07-07T12:33:48.854Z</time>
      </trkpt>
      <trkpt lat="49.49625" lon="1.11284">
        <ele>173</ele>
        <time>2026-07-07T12:33:53.346Z</time>
      </trkpt>
      <trkpt lat="49.49626" lon="1.11277">
        <ele>173</ele>
        <time>2026-07-07T12:33:57.652Z</time>
      </trkpt>
      <trkpt lat="49.49626" lon="1.1127">
        <ele>173</ele>
        <time>2026-07-07T12:34:01.927Z</time>
      </trkpt>
      <trkpt lat="49.49626" lon="1.11263">
        <ele>173</ele>
        <time>2026-07-07T12:34:05.931Z</time>
      </trkpt>
      <trkpt lat="49.49629" lon="1.11257">
        <ele>173</ele>
        <time>2026-07-07T12:34:10.173Z</time>
      </trkpt>
      <trkpt lat="49.49631" lon="1.1125">
        <ele>173</ele>
        <time>2026-07-07T12:34:14.229Z</time>
      </trkpt>
      <trkpt lat="49.49632" lon="1.11243">
        <ele>173</ele>
        <time>2026-07-07T12:34:18.346Z</time>
      </trkpt>
      <trkpt lat="49.49634" lon="1.11236">
        <ele>173</ele>
        <time>2026-07-07T12:34:22.728Z</time>
      </trkpt>
      <trkpt lat="49.49636" lon="1.11229">
        <ele>174</ele>
        <time>2026-07-07T12:34:26.951Z</time>
      </trkpt>
      <trkpt lat="49.49637" lon="1.11222">
        <ele>174</ele>
        <time>2026-07-07T12:34:31.193Z</time>
      </trkpt>
      <trkpt lat="49.49638" lon="1.11214">
        <ele>174</ele>
        <time>2026-07-07T12:34:35.347Z</time>
      </trkpt>
      <trkpt lat="49.49638" lon="1.11207">
        <ele>175</ele>
        <time>2026-07-07T12:34:39.649Z</time>
      </trkpt>
      <trkpt lat="49.49638" lon="1.11199">
        <ele>175</ele>
        <time>2026-07-07T12:34:43.827Z</time>
      </trkpt>
      <trkpt lat="49.49638" lon="1.11191">
        <ele>175</ele>
        <time>2026-07-07T12:34:48.007Z</time>
      </trkpt>
      <trkpt lat="49.49639" lon="1.11184">
        <ele>175</ele>
        <time>2026-07-07T12:34:52.186Z</time>
      </trkpt>
      <trkpt lat="49.49639" lon="1.11176">
        <ele>175</ele>
        <time>2026-07-07T12:34:56.346Z</time>
      </trkpt>
      <trkpt lat="49.49639" lon="1.11168">
        <ele>175</ele>
        <time>2026-07-07T12:35:01.291Z</time>
      </trkpt>
      <trkpt lat="49.49641" lon="1.11165">
        <ele>175</ele>
        <time>2026-07-07T12:35:05.809Z</time>
      </trkpt>
      <trkpt lat="49.4964" lon="1.11162">
        <ele>175</ele>
        <time>2026-07-07T12:35:10.346Z</time>
      </trkpt>
      <trkpt lat="49.49641" lon="1.11159">
        <ele>175</ele>
        <time>2026-07-07T12:35:14.888Z</time>
      </trkpt>
      <trkpt lat="49.49641" lon="1.11154">
        <ele>175</ele>
        <time>2026-07-07T12:35:19.334Z</time>
      </trkpt>
      <trkpt lat="49.49644" lon="1.11145">
        <ele>175</ele>
        <time>2026-07-07T12:35:23.347Z</time>
      </trkpt>
      <trkpt lat="49.49645" lon="1.11138">
        <ele>175</ele>
        <time>2026-07-07T12:35:27.832Z</time>
      </trkpt>
      <trkpt lat="49.49647" lon="1.11132">
        <ele>175</ele>
        <time>2026-07-07T12:35:32.108Z</time>
      </trkpt>
      <trkpt lat="49.4965" lon="1.11127">
        <ele>175</ele>
        <time>2026-07-07T12:35:36.252Z</time>
      </trkpt>
      <trkpt lat="49.49651" lon="1.1112">
        <ele>175</ele>
        <time>2026-07-07T12:35:40.608Z</time>
      </trkpt>
      <trkpt lat="49.49652" lon="1.11114">
        <ele>175</ele>
        <time>2026-07-07T12:35:44.727Z</time>
      </trkpt>
      <trkpt lat="49.49653" lon="1.11108">
        <ele>175</ele>
        <time>2026-07-07T12:35:48.932Z</time>
      </trkpt>
      <trkpt lat="49.49653" lon="1.11101">
        <ele>175</ele>
        <time>2026-07-07T12:35:53.094Z</time>
      </trkpt>
      <trkpt lat="49.49654" lon="1.11093">
        <ele>177</ele>
        <time>2026-07-07T12:35:57.346Z</time>
      </trkpt>
      <trkpt lat="49.49656" lon="1.11086">
        <ele>177</ele>
        <time>2026-07-07T12:36:01.593Z</time>
      </trkpt>
      <trkpt lat="49.49656" lon="1.11078">
        <ele>177</ele>
        <time>2026-07-07T12:36:05.852Z</time>
      </trkpt>
      <trkpt lat="49.49656" lon="1.11071">
        <ele>177</ele>
        <time>2026-07-07T12:36:10.110Z</time>
      </trkpt>
      <trkpt lat="49.49657" lon="1.11067">
        <ele>175</ele>
        <time>2026-07-07T12:36:14.347Z</time>
      </trkpt>
      <trkpt lat="49.4966" lon="1.11059">
        <ele>175</ele>
        <time>2026-07-07T12:36:18.829Z</time>
      </trkpt>
      <trkpt lat="49.49662" lon="1.11052">
        <ele>175</ele>
        <time>2026-07-07T12:36:23.114Z</time>
      </trkpt>
      <trkpt lat="49.49662" lon="1.11044">
        <ele>175</ele>
        <time>2026-07-07T12:36:27.311Z</time>
      </trkpt>
      <trkpt lat="49.49663" lon="1.11036">
        <ele>173</ele>
        <time>2026-07-07T12:36:31.728Z</time>
      </trkpt>
      <trkpt lat="49.49664" lon="1.11029">
        <ele>173</ele>
        <time>2026-07-07T12:36:35.969Z</time>
      </trkpt>
      <trkpt lat="49.49664" lon="1.11023">
        <ele>173</ele>
        <time>2026-07-07T12:36:40.150Z</time>
      </trkpt>
      <trkpt lat="49.49667" lon="1.11017">
        <ele>173</ele>
        <time>2026-07-07T12:36:44.346Z</time>
      </trkpt>
      <trkpt lat="49.49668" lon="1.1101">
        <ele>171</ele>
        <time>2026-07-07T12:36:48.526Z</time>
      </trkpt>
      <trkpt lat="49.4967" lon="1.11004">
        <ele>171</ele>
        <time>2026-07-07T12:36:52.829Z</time>
      </trkpt>
      <trkpt lat="49.49671" lon="1.10997">
        <ele>171</ele>
        <time>2026-07-07T12:36:57.114Z</time>
      </trkpt>
      <trkpt lat="49.49671" lon="1.10992">
        <ele>171</ele>
        <time>2026-07-07T12:37:01.266Z</time>
      </trkpt>
      <trkpt lat="49.49672" lon="1.10983">
        <ele>171</ele>
        <time>2026-07-07T12:37:05.491Z</time>
      </trkpt>
      <trkpt lat="49.49673" lon="1.10975">
        <ele>171</ele>
        <time>2026-07-07T12:37:09.653Z</time>
      </trkpt>
      <trkpt lat="49.49674" lon="1.10968">
        <ele>171</ele>
        <time>2026-07-07T12:37:13.928Z</time>
      </trkpt>
      <trkpt lat="49.49675" lon="1.1096">
        <ele>171</ele>
        <time>2026-07-07T12:37:18.073Z</time>
      </trkpt>
      <trkpt lat="49.49676" lon="1.10952">
        <ele>171</ele>
        <time>2026-07-07T12:37:22.347Z</time>
      </trkpt>
      <trkpt lat="49.49677" lon="1.10943">
        <ele>171</ele>
        <time>2026-07-07T12:37:27.107Z</time>
      </trkpt>
      <trkpt lat="49.49678" lon="1.10935">
        <ele>171</ele>
        <time>2026-07-07T12:37:31.207Z</time>
      </trkpt>
      <trkpt lat="49.49679" lon="1.10927">
        <ele>171</ele>
        <time>2026-07-07T12:37:35.352Z</time>
      </trkpt>
      <trkpt lat="49.49682" lon="1.10919">
        <ele>173</ele>
        <time>2026-07-07T12:37:40.067Z</time>
      </trkpt>
      <trkpt lat="49.49682" lon="1.10911">
        <ele>173</ele>
        <time>2026-07-07T12:37:44.308Z</time>
      </trkpt>
      <trkpt lat="49.49683" lon="1.10904">
        <ele>173</ele>
        <time>2026-07-07T12:37:48.514Z</time>
      </trkpt>
      <trkpt lat="49.49684" lon="1.10897">
        <ele>173</ele>
        <time>2026-07-07T12:37:52.667Z</time>
      </trkpt>
      <trkpt lat="49.49684" lon="1.10889">
        <ele>173</ele>
        <time>2026-07-07T12:37:56.846Z</time>
      </trkpt>
      <trkpt lat="49.49685" lon="1.10882">
        <ele>173</ele>
        <time>2026-07-07T12:38:01.071Z</time>
      </trkpt>
      <trkpt lat="49.49686" lon="1.10875">
        <ele>173</ele>
        <time>2026-07-07T12:38:05.311Z</time>
      </trkpt>
      <trkpt lat="49.49687" lon="1.10868">
        <ele>172</ele>
        <time>2026-07-07T12:38:09.346Z</time>
      </trkpt>
      <trkpt lat="49.49689" lon="1.10861">
        <ele>172</ele>
        <time>2026-07-07T12:38:13.609Z</time>
      </trkpt>
      <trkpt lat="49.4969" lon="1.10853">
        <ele>172</ele>
        <time>2026-07-07T12:38:17.788Z</time>
      </trkpt>
      <trkpt lat="49.49691" lon="1.10847">
        <ele>173</ele>
        <time>2026-07-07T12:38:21.827Z</time>
      </trkpt>
      <trkpt lat="49.49693" lon="1.10841">
        <ele>173</ele>
        <time>2026-07-07T12:38:26.252Z</time>
      </trkpt>
      <trkpt lat="49.49695" lon="1.10834">
        <ele>173</ele>
        <time>2026-07-07T12:38:30.346Z</time>
      </trkpt>
      <trkpt lat="49.49697" lon="1.10827">
        <ele>173</ele>
        <time>2026-07-07T12:38:34.549Z</time>
      </trkpt>
      <trkpt lat="49.49698" lon="1.10819">
        <ele>174</ele>
        <time>2026-07-07T12:38:38.711Z</time>
      </trkpt>
      <trkpt lat="49.49697" lon="1.10812">
        <ele>174</ele>
        <time>2026-07-07T12:38:42.873Z</time>
      </trkpt>
      <trkpt lat="49.49697" lon="1.10804">
        <ele>174</ele>
        <time>2026-07-07T12:38:47.347Z</time>
      </trkpt>
      <trkpt lat="49.49698" lon="1.10797">
        <ele>174</ele>
        <time>2026-07-07T12:38:51.753Z</time>
      </trkpt>
      <trkpt lat="49.49698" lon="1.1079">
        <ele>174</ele>
        <time>2026-07-07T12:38:56.131Z</time>
      </trkpt>
      <trkpt lat="49.497" lon="1.10783">
        <ele>174</ele>
        <time>2026-07-07T12:39:00.269Z</time>
      </trkpt>
      <trkpt lat="49.49703" lon="1.10777">
        <ele>174</ele>
        <time>2026-07-07T12:39:04.346Z</time>
      </trkpt>
      <trkpt lat="49.49705" lon="1.10771">
        <ele>174</ele>
        <time>2026-07-07T12:39:08.714Z</time>
      </trkpt>
      <trkpt lat="49.49709" lon="1.10766">
        <ele>175</ele>
        <time>2026-07-07T12:39:13.007Z</time>
      </trkpt>
      <trkpt lat="49.49712" lon="1.10762">
        <ele>175</ele>
        <time>2026-07-07T12:39:17.347Z</time>
      </trkpt>
      <trkpt lat="49.49714" lon="1.10762">
        <ele>175</ele>
        <time>2026-07-07T12:39:21.346Z</time>
      </trkpt>
      <trkpt lat="49.49713" lon="1.10756">
        <ele>175</ele>
        <time>2026-07-07T12:39:26.346Z</time>
      </trkpt>
      <trkpt lat="49.49714" lon="1.1075">
        <ele>175</ele>
        <time>2026-07-07T12:39:31.715Z</time>
      </trkpt>
      <trkpt lat="49.49714" lon="1.10744">
        <ele>175</ele>
        <time>2026-07-07T12:39:35.806Z</time>
      </trkpt>
      <trkpt lat="49.49716" lon="1.1074">
        <ele>175</ele>
        <time>2026-07-07T12:39:40.170Z</time>
      </trkpt>
      <trkpt lat="49.49717" lon="1.10734">
        <ele>175</ele>
        <time>2026-07-07T12:39:44.833Z</time>
      </trkpt>
      <trkpt lat="49.49717" lon="1.10729">
        <ele>175</ele>
        <time>2026-07-07T12:39:49.346Z</time>
      </trkpt>
      <trkpt lat="49.49717" lon="1.10724">
        <ele>175</ele>
        <time>2026-07-07T12:39:53.666Z</time>
      </trkpt>
      <trkpt lat="49.49717" lon="1.1072">
        <ele>175</ele>
        <time>2026-07-07T12:39:58.267Z</time>
      </trkpt>
      <trkpt lat="49.49715" lon="1.10714">
        <ele>175</ele>
        <time>2026-07-07T12:40:02.534Z</time>
      </trkpt>
      <trkpt lat="49.49715" lon="1.10708">
        <ele>175</ele>
        <time>2026-07-07T12:40:06.811Z</time>
      </trkpt>
      <trkpt lat="49.49715" lon="1.10703">
        <ele>175</ele>
        <time>2026-07-07T12:40:12.114Z</time>
      </trkpt>
      <trkpt lat="49.49716" lon="1.10697">
        <ele>175</ele>
        <time>2026-07-07T12:40:16.127Z</time>
      </trkpt>
      <trkpt lat="49.49713" lon="1.10693">
        <ele>175</ele>
        <time>2026-07-07T12:40:20.728Z</time>
      </trkpt>
      <trkpt lat="49.49711" lon="1.10689">
        <ele>175</ele>
        <time>2026-07-07T12:40:25.031Z</time>
      </trkpt>
      <trkpt lat="49.49709" lon="1.10685">
        <ele>175</ele>
        <time>2026-07-07T12:40:29.346Z</time>
      </trkpt>
      <trkpt lat="49.49709" lon="1.10678">
        <ele>176</ele>
        <time>2026-07-07T12:40:33.848Z</time>
      </trkpt>
      <trkpt lat="49.49706" lon="1.10671">
        <ele>176</ele>
        <time>2026-07-07T12:40:37.869Z</time>
      </trkpt>
      <trkpt lat="49.49706" lon="1.10665">
        <ele>176</ele>
        <time>2026-07-07T12:40:42.345Z</time>
      </trkpt>
      <trkpt lat="49.49706" lon="1.10663">
        <ele>176</ele>
        <time>2026-07-07T12:40:47.345Z</time>
      </trkpt>
      <trkpt lat="49.49705" lon="1.10663">
        <ele>176</ele>
        <time>2026-07-07T12:41:08.345Z</time>
      </trkpt>
      <trkpt lat="49.49705" lon="1.10662">
        <ele>176</ele>
        <time>2026-07-07T12:41:13.345Z</time>
      </trkpt>
      <trkpt lat="49.49705" lon="1.10662">
        <ele>176</ele>
        <time>2026-07-07T12:41:18.345Z</time>
      </trkpt>
      <trkpt lat="49.49702" lon="1.1066">
        <ele>176</ele>
        <time>2026-07-07T12:41:22.668Z</time>
      </trkpt>
      <trkpt lat="49.49696" lon="1.10659">
        <ele>176</ele>
        <time>2026-07-07T12:41:27.128Z</time>
      </trkpt>
      <trkpt lat="49.49692" lon="1.10658">
        <ele>176</ele>
        <time>2026-07-07T12:41:31.346Z</time>
      </trkpt>
      <trkpt lat="49.49687" lon="1.10661">
        <ele>176</ele>
        <time>2026-07-07T12:41:35.811Z</time>
      </trkpt>
      <trkpt lat="49.49682" lon="1.10662">
        <ele>176</ele>
        <time>2026-07-07T12:41:40.009Z</time>
      </trkpt>
      <trkpt lat="49.49677" lon="1.10661">
        <ele>174</ele>
        <time>2026-07-07T12:41:44.206Z</time>
      </trkpt>
      <trkpt lat="49.49672" lon="1.10658">
        <ele>174</ele>
        <time>2026-07-07T12:41:48.345Z</time>
      </trkpt>
      <trkpt lat="49.49668" lon="1.10656">
        <ele>174</ele>
        <time>2026-07-07T12:41:52.706Z</time>
      </trkpt>
      <trkpt lat="49.49664" lon="1.10654">
        <ele>174</ele>
        <time>2026-07-07T12:41:56.832Z</time>
      </trkpt>
      <trkpt lat="49.49659" lon="1.10651">
        <ele>174</ele>
        <time>2026-07-07T12:42:00.986Z</time>
      </trkpt>
      <trkpt lat="49.49654" lon="1.10648">
        <ele>174</ele>
        <time>2026-07-07T12:42:05.148Z</time>
      </trkpt>
      <trkpt lat="49.49649" lon="1.10646">
        <ele>172</ele>
        <time>2026-07-07T12:42:09.266Z</time>
      </trkpt>
      <trkpt lat="49.49644" lon="1.10645">
        <ele>172</ele>
        <time>2026-07-07T12:42:13.346Z</time>
      </trkpt>
      <trkpt lat="49.49639" lon="1.10643">
        <ele>172</ele>
        <time>2026-07-07T12:42:17.546Z</time>
      </trkpt>
      <trkpt lat="49.49634" lon="1.10641">
        <ele>172</ele>
        <time>2026-07-07T12:42:21.691Z</time>
      </trkpt>
      <trkpt lat="49.49629" lon="1.10639">
        <ele>172</ele>
        <time>2026-07-07T12:42:25.773Z</time>
      </trkpt>
      <trkpt lat="49.49627" lon="1.10637">
        <ele>172</ele>
        <time>2026-07-07T12:42:29.786Z</time>
      </trkpt>
      <trkpt lat="49.49626" lon="1.10629">
        <ele>172</ele>
        <time>2026-07-07T12:42:33.790Z</time>
      </trkpt>
      <trkpt lat="49.49628" lon="1.10614">
        <ele>172</ele>
        <time>2026-07-07T12:42:52.345Z</time>
      </trkpt>
      <trkpt lat="49.49628" lon="1.10614">
        <ele>172</ele>
        <time>2026-07-07T12:42:56.628Z</time>
      </trkpt>
      <trkpt lat="49.49626" lon="1.10611">
        <ele>172</ele>
        <time>2026-07-07T12:43:00.693Z</time>
      </trkpt>
      <trkpt lat="49.49626" lon="1.10602">
        <ele>172</ele>
        <time>2026-07-07T12:43:04.714Z</time>
      </trkpt>
      <trkpt lat="49.49624" lon="1.10594">
        <ele>174</ele>
        <time>2026-07-07T12:43:08.770Z</time>
      </trkpt>
      <trkpt lat="49.4962" lon="1.10585">
        <ele>174</ele>
        <time>2026-07-07T12:43:12.889Z</time>
      </trkpt>
      <trkpt lat="49.49619" lon="1.10575">
        <ele>174</ele>
        <time>2026-07-07T12:43:17.064Z</time>
      </trkpt>
      <trkpt lat="49.49619" lon="1.10571">
        <ele>174</ele>
        <time>2026-07-07T12:43:21.214Z</time>
      </trkpt>
      <trkpt lat="49.49616" lon="1.10562">
        <ele>174</ele>
        <time>2026-07-07T12:43:25.269Z</time>
      </trkpt>
      <trkpt lat="49.49615" lon="1.10554">
        <ele>174</ele>
        <time>2026-07-07T12:43:29.346Z</time>
      </trkpt>
      <trkpt lat="49.49617" lon="1.10546">
        <ele>174</ele>
        <time>2026-07-07T12:43:33.989Z</time>
      </trkpt>
      <trkpt lat="49.49618" lon="1.10539">
        <ele>175</ele>
        <time>2026-07-07T12:43:38.009Z</time>
      </trkpt>
      <trkpt lat="49.49618" lon="1.10532">
        <ele>175</ele>
        <time>2026-07-07T12:43:42.127Z</time>
      </trkpt>
      <trkpt lat="49.49618" lon="1.10526">
        <ele>175</ele>
        <time>2026-07-07T12:43:46.211Z</time>
      </trkpt>
      <trkpt lat="49.49618" lon="1.10518">
        <ele>175</ele>
        <time>2026-07-07T12:43:50.768Z</time>
      </trkpt>
      <trkpt lat="49.49619" lon="1.10511">
        <ele>177</ele>
        <time>2026-07-07T12:43:54.834Z</time>
      </trkpt>
      <trkpt lat="49.49619" lon="1.10504">
        <ele>177</ele>
        <time>2026-07-07T12:43:58.873Z</time>
      </trkpt>
      <trkpt lat="49.49618" lon="1.10496">
        <ele>177</ele>
        <time>2026-07-07T12:44:03.345Z</time>
      </trkpt>
      <trkpt lat="49.49617" lon="1.10488">
        <ele>177</ele>
        <time>2026-07-07T12:44:07.891Z</time>
      </trkpt>
      <trkpt lat="49.49616" lon="1.10481">
        <ele>177</ele>
        <time>2026-07-07T12:44:12.345Z</time>
      </trkpt>
      <trkpt lat="49.49615" lon="1.10472">
        <ele>177</ele>
        <time>2026-07-07T12:44:16.988Z</time>
      </trkpt>
      <trkpt lat="49.49613" lon="1.10462">
        <ele>177</ele>
        <time>2026-07-07T12:44:21.555Z</time>
      </trkpt>
      <trkpt lat="49.49613" lon="1.10455">
        <ele>177</ele>
        <time>2026-07-07T12:44:25.611Z</time>
      </trkpt>
      <trkpt lat="49.49611" lon="1.10446">
        <ele>177</ele>
        <time>2026-07-07T12:44:30.010Z</time>
      </trkpt>
      <trkpt lat="49.49611" lon="1.10438">
        <ele>177</ele>
        <time>2026-07-07T12:44:34.567Z</time>
      </trkpt>
      <trkpt lat="49.4961" lon="1.10429">
        <ele>176</ele>
        <time>2026-07-07T12:44:39.108Z</time>
      </trkpt>
      <trkpt lat="49.4961" lon="1.10419">
        <ele>176</ele>
        <time>2026-07-07T12:44:43.647Z</time>
      </trkpt>
      <trkpt lat="49.49609" lon="1.10412">
        <ele>176</ele>
        <time>2026-07-07T12:44:47.749Z</time>
      </trkpt>
      <trkpt lat="49.49608" lon="1.10404">
        <ele>176</ele>
        <time>2026-07-07T12:44:51.787Z</time>
      </trkpt>
      <trkpt lat="49.49607" lon="1.10396">
        <ele>176</ele>
        <time>2026-07-07T12:44:55.826Z</time>
      </trkpt>
      <trkpt lat="49.49606" lon="1.10388">
        <ele>176</ele>
        <time>2026-07-07T12:44:59.909Z</time>
      </trkpt>
      <trkpt lat="49.49606" lon="1.1038">
        <ele>176</ele>
        <time>2026-07-07T12:45:04.010Z</time>
      </trkpt>
      <trkpt lat="49.49605" lon="1.10372">
        <ele>176</ele>
        <time>2026-07-07T12:45:08.014Z</time>
      </trkpt>
      <trkpt lat="49.49603" lon="1.10364">
        <ele>176</ele>
        <time>2026-07-07T12:45:12.588Z</time>
      </trkpt>
      <trkpt lat="49.49602" lon="1.10355">
        <ele>176</ele>
        <time>2026-07-07T12:45:17.110Z</time>
      </trkpt>
      <trkpt lat="49.49601" lon="1.10346">
        <ele>175</ele>
        <time>2026-07-07T12:45:21.668Z</time>
      </trkpt>
      <trkpt lat="49.496" lon="1.10337">
        <ele>175</ele>
        <time>2026-07-07T12:45:26.209Z</time>
      </trkpt>
      <trkpt lat="49.496" lon="1.10329">
        <ele>175</ele>
        <time>2026-07-07T12:45:30.774Z</time>
      </trkpt>
      <trkpt lat="49.496" lon="1.1032">
        <ele>175</ele>
        <time>2026-07-07T12:45:35.313Z</time>
      </trkpt>
      <trkpt lat="49.49599" lon="1.10311">
        <ele>175</ele>
        <time>2026-07-07T12:45:39.888Z</time>
      </trkpt>
      <trkpt lat="49.496" lon="1.10304">
        <ele>175</ele>
        <time>2026-07-07T12:45:44.345Z</time>
      </trkpt>
      <trkpt lat="49.49599" lon="1.10295">
        <ele>175</ele>
        <time>2026-07-07T12:45:49.074Z</time>
      </trkpt>
      <trkpt lat="49.49598" lon="1.10288">
        <ele>175</ele>
        <time>2026-07-07T12:45:53.130Z</time>
      </trkpt>
      <trkpt lat="49.49597" lon="1.10279">
        <ele>175</ele>
        <time>2026-07-07T12:45:57.687Z</time>
      </trkpt>
      <trkpt lat="49.49597" lon="1.10272">
        <ele>176</ele>
        <time>2026-07-07T12:46:01.770Z</time>
      </trkpt>
      <trkpt lat="49.49596" lon="1.10264">
        <ele>176</ele>
        <time>2026-07-07T12:46:05.792Z</time>
      </trkpt>
      <trkpt lat="49.49595" lon="1.10255">
        <ele>177</ele>
        <time>2026-07-07T12:46:10.345Z</time>
      </trkpt>
      <trkpt lat="49.49594" lon="1.10247">
        <ele>177</ele>
        <time>2026-07-07T12:46:15.012Z</time>
      </trkpt>
      <trkpt lat="49.49593" lon="1.10239">
        <ele>177</ele>
        <time>2026-07-07T12:46:19.070Z</time>
      </trkpt>
      <trkpt lat="49.49592" lon="1.10232">
        <ele>178</ele>
        <time>2026-07-07T12:46:23.090Z</time>
      </trkpt>
      <trkpt lat="49.49591" lon="1.10223">
        <ele>178</ele>
        <time>2026-07-07T12:46:27.551Z</time>
      </trkpt>
      <trkpt lat="49.4959" lon="1.10215">
        <ele>178</ele>
        <time>2026-07-07T12:46:32.073Z</time>
      </trkpt>
      <trkpt lat="49.4959" lon="1.10206">
        <ele>179</ele>
        <time>2026-07-07T12:46:36.614Z</time>
      </trkpt>
      <trkpt lat="49.4959" lon="1.10199">
        <ele>179</ele>
        <time>2026-07-07T12:46:40.626Z</time>
      </trkpt>
      <trkpt lat="49.49589" lon="1.10193">
        <ele>179</ele>
        <time>2026-07-07T12:46:44.631Z</time>
      </trkpt>
      <trkpt lat="49.49588" lon="1.10186">
        <ele>179</ele>
        <time>2026-07-07T12:46:49.171Z</time>
      </trkpt>
      <trkpt lat="49.49587" lon="1.10179">
        <ele>179</ele>
        <time>2026-07-07T12:46:53.193Z</time>
      </trkpt>
      <trkpt lat="49.49587" lon="1.1017">
        <ele>179</ele>
        <time>2026-07-07T12:46:57.751Z</time>
      </trkpt>
      <trkpt lat="49.49586" lon="1.10164">
        <ele>179</ele>
        <time>2026-07-07T12:47:01.749Z</time>
      </trkpt>
      <trkpt lat="49.49585" lon="1.10155">
        <ele>179</ele>
        <time>2026-07-07T12:47:06.270Z</time>
      </trkpt>
      <trkpt lat="49.49584" lon="1.10146">
        <ele>179</ele>
        <time>2026-07-07T12:47:10.766Z</time>
      </trkpt>
      <trkpt lat="49.49584" lon="1.10139">
        <ele>179</ele>
        <time>2026-07-07T12:47:14.788Z</time>
      </trkpt>
      <trkpt lat="49.49583" lon="1.10131">
        <ele>179</ele>
        <time>2026-07-07T12:47:19.267Z</time>
      </trkpt>
      <trkpt lat="49.49582" lon="1.10123">
        <ele>178</ele>
        <time>2026-07-07T12:47:23.271Z</time>
      </trkpt>
      <trkpt lat="49.49581" lon="1.10116">
        <ele>178</ele>
        <time>2026-07-07T12:47:27.312Z</time>
      </trkpt>
      <trkpt lat="49.4958" lon="1.10109">
        <ele>178</ele>
        <time>2026-07-07T12:47:31.345Z</time>
      </trkpt>
      <trkpt lat="49.49579" lon="1.10101">
        <ele>178</ele>
        <time>2026-07-07T12:47:35.344Z</time>
      </trkpt>
      <trkpt lat="49.49578" lon="1.10093">
        <ele>177</ele>
        <time>2026-07-07T12:47:39.477Z</time>
      </trkpt>
      <trkpt lat="49.49577" lon="1.10085">
        <ele>177</ele>
        <time>2026-07-07T12:47:43.530Z</time>
      </trkpt>
      <trkpt lat="49.49577" lon="1.10077">
        <ele>177</ele>
        <time>2026-07-07T12:47:47.569Z</time>
      </trkpt>
      <trkpt lat="49.49576" lon="1.1007">
        <ele>177</ele>
        <time>2026-07-07T12:47:51.627Z</time>
      </trkpt>
      <trkpt lat="49.49575" lon="1.10061">
        <ele>176</ele>
        <time>2026-07-07T12:47:56.148Z</time>
      </trkpt>
      <trkpt lat="49.49575" lon="1.10054">
        <ele>176</ele>
        <time>2026-07-07T12:48:00.231Z</time>
      </trkpt>
      <trkpt lat="49.49574" lon="1.10046">
        <ele>176</ele>
        <time>2026-07-07T12:48:04.806Z</time>
      </trkpt>
      <trkpt lat="49.49573" lon="1.10039">
        <ele>175</ele>
        <time>2026-07-07T12:48:08.951Z</time>
      </trkpt>
      <trkpt lat="49.49573" lon="1.10032">
        <ele>175</ele>
        <time>2026-07-07T12:48:13.069Z</time>
      </trkpt>
      <trkpt lat="49.49572" lon="1.10025">
        <ele>175</ele>
        <time>2026-07-07T12:48:17.234Z</time>
      </trkpt>
      <trkpt lat="49.49572" lon="1.10019">
        <ele>175</ele>
        <time>2026-07-07T12:48:21.344Z</time>
      </trkpt>
      <trkpt lat="49.49571" lon="1.10012">
        <ele>174</ele>
        <time>2026-07-07T12:48:25.529Z</time>
      </trkpt>
      <trkpt lat="49.4957" lon="1.10005">
        <ele>174</ele>
        <time>2026-07-07T12:48:29.752Z</time>
      </trkpt>
      <trkpt lat="49.49569" lon="1.09999">
        <ele>175</ele>
        <time>2026-07-07T12:48:33.870Z</time>
      </trkpt>
      <trkpt lat="49.49569" lon="1.09992">
        <ele>175</ele>
        <time>2026-07-07T12:48:37.909Z</time>
      </trkpt>
      <trkpt lat="49.49569" lon="1.09984">
        <ele>175</ele>
        <time>2026-07-07T12:48:42.028Z</time>
      </trkpt>
      <trkpt lat="49.49569" lon="1.09976">
        <ele>175</ele>
        <time>2026-07-07T12:48:46.128Z</time>
      </trkpt>
      <trkpt lat="49.49568" lon="1.0997">
        <ele>175</ele>
        <time>2026-07-07T12:48:50.193Z</time>
      </trkpt>
      <trkpt lat="49.49567" lon="1.09963">
        <ele>175</ele>
        <time>2026-07-07T12:48:54.344Z</time>
      </trkpt>
      <trkpt lat="49.49569" lon="1.09958">
        <ele>175</ele>
        <time>2026-07-07T12:48:58.615Z</time>
      </trkpt>
      <trkpt lat="49.49566" lon="1.09947">
        <ele>175</ele>
        <time>2026-07-07T12:49:03.345Z</time>
      </trkpt>
      <trkpt lat="49.49563" lon="1.09938">
        <ele>175</ele>
        <time>2026-07-07T12:49:07.852Z</time>
      </trkpt>
      <trkpt lat="49.49564" lon="1.09932">
        <ele>175</ele>
        <time>2026-07-07T12:49:12.207Z</time>
      </trkpt>
      <trkpt lat="49.49564" lon="1.09925">
        <ele>174</ele>
        <time>2026-07-07T12:49:16.290Z</time>
      </trkpt>
      <trkpt lat="49.49562" lon="1.09921">
        <ele>174</ele>
        <time>2026-07-07T12:49:20.333Z</time>
      </trkpt>
      <trkpt lat="49.49561" lon="1.09913">
        <ele>174</ele>
        <time>2026-07-07T12:49:24.344Z</time>
      </trkpt>
      <trkpt lat="49.49561" lon="1.09905">
        <ele>174</ele>
        <time>2026-07-07T12:49:28.614Z</time>
      </trkpt>
      <trkpt lat="49.49561" lon="1.09896">
        <ele>174</ele>
        <time>2026-07-07T12:49:32.691Z</time>
      </trkpt>
      <trkpt lat="49.4956" lon="1.09888">
        <ele>174</ele>
        <time>2026-07-07T12:49:36.754Z</time>
      </trkpt>
      <trkpt lat="49.49559" lon="1.09881">
        <ele>174</ele>
        <time>2026-07-07T12:49:40.872Z</time>
      </trkpt>
      <trkpt lat="49.49558" lon="1.09874">
        <ele>174</ele>
        <time>2026-07-07T12:49:44.929Z</time>
      </trkpt>
      <trkpt lat="49.49558" lon="1.09867">
        <ele>174</ele>
        <time>2026-07-07T12:49:49.061Z</time>
      </trkpt>
      <trkpt lat="49.49557" lon="1.0986">
        <ele>174</ele>
        <time>2026-07-07T12:49:53.148Z</time>
      </trkpt>
      <trkpt lat="49.49557" lon="1.09852">
        <ele>174</ele>
        <time>2026-07-07T12:49:57.249Z</time>
      </trkpt>
      <trkpt lat="49.49556" lon="1.09845">
        <ele>174</ele>
        <time>2026-07-07T12:50:01.270Z</time>
      </trkpt>
      <trkpt lat="49.49555" lon="1.09838">
        <ele>174</ele>
        <time>2026-07-07T12:50:05.327Z</time>
      </trkpt>
      <trkpt lat="49.49555" lon="1.0983">
        <ele>174</ele>
        <time>2026-07-07T12:50:09.345Z</time>
      </trkpt>
      <trkpt lat="49.49554" lon="1.09823">
        <ele>174</ele>
        <time>2026-07-07T12:50:13.494Z</time>
      </trkpt>
      <trkpt lat="49.49554" lon="1.09816">
        <ele>175</ele>
        <time>2026-07-07T12:50:17.554Z</time>
      </trkpt>
      <trkpt lat="49.49553" lon="1.09809">
        <ele>175</ele>
        <time>2026-07-07T12:50:21.670Z</time>
      </trkpt>
      <trkpt lat="49.49552" lon="1.09801">
        <ele>175</ele>
        <time>2026-07-07T12:50:25.709Z</time>
      </trkpt>
      <trkpt lat="49.49552" lon="1.09793">
        <ele>175</ele>
        <time>2026-07-07T12:50:29.749Z</time>
      </trkpt>
      <trkpt lat="49.49551" lon="1.09786">
        <ele>174</ele>
        <time>2026-07-07T12:50:33.770Z</time>
      </trkpt>
      <trkpt lat="49.49551" lon="1.09779">
        <ele>174</ele>
        <time>2026-07-07T12:50:37.791Z</time>
      </trkpt>
      <trkpt lat="49.4955" lon="1.09771">
        <ele>174</ele>
        <time>2026-07-07T12:50:42.166Z</time>
      </trkpt>
      <trkpt lat="49.49549" lon="1.09763">
        <ele>173</ele>
        <time>2026-07-07T12:50:46.309Z</time>
      </trkpt>
      <trkpt lat="49.49548" lon="1.09755">
        <ele>173</ele>
        <time>2026-07-07T12:50:50.814Z</time>
      </trkpt>
      <trkpt lat="49.49547" lon="1.09747">
        <ele>173</ele>
        <time>2026-07-07T12:50:55.344Z</time>
      </trkpt>
      <trkpt lat="49.49547" lon="1.09739">
        <ele>173</ele>
        <time>2026-07-07T12:50:59.507Z</time>
      </trkpt>
      <trkpt lat="49.49546" lon="1.09732">
        <ele>173</ele>
        <time>2026-07-07T12:51:03.530Z</time>
      </trkpt>
      <trkpt lat="49.49545" lon="1.09724">
        <ele>173</ele>
        <time>2026-07-07T12:51:07.568Z</time>
      </trkpt>
      <trkpt lat="49.49544" lon="1.09717">
        <ele>173</ele>
        <time>2026-07-07T12:51:11.669Z</time>
      </trkpt>
      <trkpt lat="49.49544" lon="1.09709">
        <ele>173</ele>
        <time>2026-07-07T12:51:15.707Z</time>
      </trkpt>
      <trkpt lat="49.49543" lon="1.09702">
        <ele>173</ele>
        <time>2026-07-07T12:51:19.773Z</time>
      </trkpt>
      <trkpt lat="49.49543" lon="1.09694">
        <ele>173</ele>
        <time>2026-07-07T12:51:23.909Z</time>
      </trkpt>
      <trkpt lat="49.49542" lon="1.09687">
        <ele>173</ele>
        <time>2026-07-07T12:51:28.344Z</time>
      </trkpt>
      <trkpt lat="49.49541" lon="1.09679">
        <ele>176</ele>
        <time>2026-07-07T12:51:32.566Z</time>
      </trkpt>
      <trkpt lat="49.49541" lon="1.09671">
        <ele>176</ele>
        <time>2026-07-07T12:51:36.650Z</time>
      </trkpt>
      <trkpt lat="49.4954" lon="1.09664">
        <ele>176</ele>
        <time>2026-07-07T12:51:40.733Z</time>
      </trkpt>
      <trkpt lat="49.49539" lon="1.09657">
        <ele>176</ele>
        <time>2026-07-07T12:51:44.834Z</time>
      </trkpt>
      <trkpt lat="49.49538" lon="1.09649">
        <ele>177</ele>
        <time>2026-07-07T12:51:48.847Z</time>
      </trkpt>
      <trkpt lat="49.49538" lon="1.09642">
        <ele>177</ele>
        <time>2026-07-07T12:51:52.948Z</time>
      </trkpt>
      <trkpt lat="49.49537" lon="1.09634">
        <ele>177</ele>
        <time>2026-07-07T12:51:56.970Z</time>
      </trkpt>
      <trkpt lat="49.49536" lon="1.09627">
        <ele>177</ele>
        <time>2026-07-07T12:52:01.010Z</time>
      </trkpt>
      <trkpt lat="49.49535" lon="1.09619">
        <ele>178</ele>
        <time>2026-07-07T12:52:05.206Z</time>
      </trkpt>
      <trkpt lat="49.49534" lon="1.0961">
        <ele>178</ele>
        <time>2026-07-07T12:52:09.345Z</time>
      </trkpt>
      <trkpt lat="49.49534" lon="1.09603">
        <ele>178</ele>
        <time>2026-07-07T12:52:13.531Z</time>
      </trkpt>
      <trkpt lat="49.49533" lon="1.09596">
        <ele>177</ele>
        <time>2026-07-07T12:52:17.693Z</time>
      </trkpt>
      <trkpt lat="49.49533" lon="1.09589">
        <ele>177</ele>
        <time>2026-07-07T12:52:21.829Z</time>
      </trkpt>
      <trkpt lat="49.49533" lon="1.09581">
        <ele>177</ele>
        <time>2026-07-07T12:52:25.850Z</time>
      </trkpt>
      <trkpt lat="49.49532" lon="1.09574">
        <ele>177</ele>
        <time>2026-07-07T12:52:29.969Z</time>
      </trkpt>
      <trkpt lat="49.49532" lon="1.09567">
        <ele>177</ele>
        <time>2026-07-07T12:52:34.055Z</time>
      </trkpt>
      <trkpt lat="49.49531" lon="1.09558">
        <ele>177</ele>
        <time>2026-07-07T12:52:38.187Z</time>
      </trkpt>
      <trkpt lat="49.4953" lon="1.09551">
        <ele>177</ele>
        <time>2026-07-07T12:52:42.253Z</time>
      </trkpt>
      <trkpt lat="49.49529" lon="1.09543">
        <ele>177</ele>
        <time>2026-07-07T12:52:46.828Z</time>
      </trkpt>
      <trkpt lat="49.49529" lon="1.09535">
        <ele>176</ele>
        <time>2026-07-07T12:52:50.832Z</time>
      </trkpt>
      <trkpt lat="49.49528" lon="1.09527">
        <ele>176</ele>
        <time>2026-07-07T12:52:55.344Z</time>
      </trkpt>
      <trkpt lat="49.49527" lon="1.09519">
        <ele>176</ele>
        <time>2026-07-07T12:52:59.344Z</time>
      </trkpt>
      <trkpt lat="49.49527" lon="1.09512">
        <ele>175</ele>
        <time>2026-07-07T12:53:03.343Z</time>
      </trkpt>
      <trkpt lat="49.49526" lon="1.09504">
        <ele>175</ele>
        <time>2026-07-07T12:53:07.533Z</time>
      </trkpt>
      <trkpt lat="49.49525" lon="1.09496">
        <ele>175</ele>
        <time>2026-07-07T12:53:11.608Z</time>
      </trkpt>
      <trkpt lat="49.49524" lon="1.09489">
        <ele>175</ele>
        <time>2026-07-07T12:53:15.629Z</time>
      </trkpt>
      <trkpt lat="49.49523" lon="1.09481">
        <ele>174</ele>
        <time>2026-07-07T12:53:19.730Z</time>
      </trkpt>
      <trkpt lat="49.49522" lon="1.09473">
        <ele>174</ele>
        <time>2026-07-07T12:53:24.314Z</time>
      </trkpt>
      <trkpt lat="49.49522" lon="1.09465">
        <ele>174</ele>
        <time>2026-07-07T12:53:28.343Z</time>
      </trkpt>
      <trkpt lat="49.49522" lon="1.09457">
        <ele>173</ele>
        <time>2026-07-07T12:53:32.989Z</time>
      </trkpt>
      <trkpt lat="49.49522" lon="1.09448">
        <ele>173</ele>
        <time>2026-07-07T12:53:37.546Z</time>
      </trkpt>
      <trkpt lat="49.49521" lon="1.0944">
        <ele>173</ele>
        <time>2026-07-07T12:53:42.112Z</time>
      </trkpt>
      <trkpt lat="49.4952" lon="1.09433">
        <ele>173</ele>
        <time>2026-07-07T12:53:46.151Z</time>
      </trkpt>
      <trkpt lat="49.4952" lon="1.09426">
        <ele>173</ele>
        <time>2026-07-07T12:53:50.269Z</time>
      </trkpt>
      <trkpt lat="49.4952" lon="1.09419">
        <ele>173</ele>
        <time>2026-07-07T12:53:54.343Z</time>
      </trkpt>
      <trkpt lat="49.4952" lon="1.09411">
        <ele>173</ele>
        <time>2026-07-07T12:53:58.515Z</time>
      </trkpt>
      <trkpt lat="49.49519" lon="1.09405">
        <ele>173</ele>
        <time>2026-07-07T12:54:02.553Z</time>
      </trkpt>
      <trkpt lat="49.49519" lon="1.09398">
        <ele>173</ele>
        <time>2026-07-07T12:54:06.593Z</time>
      </trkpt>
      <trkpt lat="49.49519" lon="1.09389">
        <ele>173</ele>
        <time>2026-07-07T12:54:11.167Z</time>
      </trkpt>
      <trkpt lat="49.49518" lon="1.09382">
        <ele>173</ele>
        <time>2026-07-07T12:54:15.268Z</time>
      </trkpt>
      <trkpt lat="49.49517" lon="1.09374">
        <ele>173</ele>
        <time>2026-07-07T12:54:19.351Z</time>
      </trkpt>
      <trkpt lat="49.49516" lon="1.09367">
        <ele>173</ele>
        <time>2026-07-07T12:54:23.344Z</time>
      </trkpt>
      <trkpt lat="49.49516" lon="1.09358">
        <ele>173</ele>
        <time>2026-07-07T12:54:27.973Z</time>
      </trkpt>
      <trkpt lat="49.49515" lon="1.09351">
        <ele>173</ele>
        <time>2026-07-07T12:54:32.012Z</time>
      </trkpt>
      <trkpt lat="49.49513" lon="1.09343">
        <ele>172</ele>
        <time>2026-07-07T12:54:36.069Z</time>
      </trkpt>
      <trkpt lat="49.49512" lon="1.09336">
        <ele>172</ele>
        <time>2026-07-07T12:54:40.126Z</time>
      </trkpt>
      <trkpt lat="49.49512" lon="1.09329">
        <ele>172</ele>
        <time>2026-07-07T12:54:44.174Z</time>
      </trkpt>
      <trkpt lat="49.49512" lon="1.09322">
        <ele>172</ele>
        <time>2026-07-07T12:54:49.343Z</time>
      </trkpt>
      <trkpt lat="49.49512" lon="1.09321">
        <ele>172</ele>
        <time>2026-07-07T12:54:54.343Z</time>
      </trkpt>
      <trkpt lat="49.49512" lon="1.0932">
        <ele>172</ele>
        <time>2026-07-07T12:54:59.344Z</time>
      </trkpt>
      <trkpt lat="49.49511" lon="1.09314">
        <ele>170</ele>
        <time>2026-07-07T12:55:03.667Z</time>
      </trkpt>
      <trkpt lat="49.4951" lon="1.09306">
        <ele>170</ele>
        <time>2026-07-07T12:55:07.970Z</time>
      </trkpt>
      <trkpt lat="49.49511" lon="1.09301">
        <ele>170</ele>
        <time>2026-07-07T12:55:11.991Z</time>
      </trkpt>
      <trkpt lat="49.4951" lon="1.09293">
        <ele>170</ele>
        <time>2026-07-07T12:55:16.092Z</time>
      </trkpt>
      <trkpt lat="49.49509" lon="1.09286">
        <ele>168</ele>
        <time>2026-07-07T12:55:20.149Z</time>
      </trkpt>
      <trkpt lat="49.49508" lon="1.09278">
        <ele>168</ele>
        <time>2026-07-07T12:55:24.292Z</time>
      </trkpt>
      <trkpt lat="49.49507" lon="1.09274">
        <ele>168</ele>
        <time>2026-07-07T12:55:28.343Z</time>
      </trkpt>
      <trkpt lat="49.49508" lon="1.09265">
        <ele>168</ele>
        <time>2026-07-07T12:55:32.768Z</time>
      </trkpt>
      <trkpt lat="49.49507" lon="1.09257">
        <ele>168</ele>
        <time>2026-07-07T12:55:36.972Z</time>
      </trkpt>
      <trkpt lat="49.49506" lon="1.09249">
        <ele>168</ele>
        <time>2026-07-07T12:55:41.486Z</time>
      </trkpt>
      <trkpt lat="49.49505" lon="1.09241">
        <ele>168</ele>
        <time>2026-07-07T12:55:45.632Z</time>
      </trkpt>
      <trkpt lat="49.49505" lon="1.09235">
        <ele>168</ele>
        <time>2026-07-07T12:55:49.794Z</time>
      </trkpt>
      <trkpt lat="49.49503" lon="1.09226">
        <ele>168</ele>
        <time>2026-07-07T12:55:54.345Z</time>
      </trkpt>
      <trkpt lat="49.49501" lon="1.09218">
        <ele>168</ele>
        <time>2026-07-07T12:55:59.009Z</time>
      </trkpt>
      <trkpt lat="49.495" lon="1.09212">
        <ele>168</ele>
        <time>2026-07-07T12:56:03.074Z</time>
      </trkpt>
      <trkpt lat="49.49497" lon="1.09205">
        <ele>167</ele>
        <time>2026-07-07T12:56:07.649Z</time>
      </trkpt>
      <trkpt lat="49.49496" lon="1.09195">
        <ele>167</ele>
        <time>2026-07-07T12:56:12.344Z</time>
      </trkpt>
      <trkpt lat="49.49496" lon="1.09187">
        <ele>167</ele>
        <time>2026-07-07T12:56:16.791Z</time>
      </trkpt>
      <trkpt lat="49.49496" lon="1.0918">
        <ele>166</ele>
        <time>2026-07-07T12:56:20.830Z</time>
      </trkpt>
      <trkpt lat="49.49496" lon="1.09172">
        <ele>166</ele>
        <time>2026-07-07T12:56:25.056Z</time>
      </trkpt>
      <trkpt lat="49.49497" lon="1.09166">
        <ele>166</ele>
        <time>2026-07-07T12:56:29.286Z</time>
      </trkpt>
      <trkpt lat="49.49495" lon="1.09157">
        <ele>166</ele>
        <time>2026-07-07T12:56:45.732Z</time>
      </trkpt>
      <trkpt lat="49.49496" lon="1.09152">
        <ele>164</ele>
        <time>2026-07-07T12:56:49.850Z</time>
      </trkpt>
      <trkpt lat="49.49494" lon="1.09144">
        <ele>164</ele>
        <time>2026-07-07T12:56:54.030Z</time>
      </trkpt>
      <trkpt lat="49.49494" lon="1.09135">
        <ele>164</ele>
        <time>2026-07-07T12:56:58.228Z</time>
      </trkpt>
      <trkpt lat="49.49494" lon="1.09128">
        <ele>164</ele>
        <time>2026-07-07T12:57:02.343Z</time>
      </trkpt>
      <trkpt lat="49.49493" lon="1.09125">
        <ele>164</ele>
        <time>2026-07-07T12:57:06.281Z</time>
      </trkpt>
      <trkpt lat="49.49494" lon="1.09125">
        <ele>164</ele>
        <time>2026-07-07T12:57:11.233Z</time>
      </trkpt>
      <trkpt lat="49.49494" lon="1.09124">
        <ele>164</ele>
        <time>2026-07-07T12:57:15.587Z</time>
      </trkpt>
      <trkpt lat="49.49494" lon="1.0912">
        <ele>164</ele>
        <time>2026-07-07T12:57:19.688Z</time>
      </trkpt>
      <trkpt lat="49.49494" lon="1.09106">
        <ele>164</ele>
        <time>2026-07-07T12:57:23.727Z</time>
      </trkpt>
      <trkpt lat="49.49497" lon="1.09088">
        <ele>165</ele>
        <time>2026-07-07T12:58:51.342Z</time>
      </trkpt>
      <trkpt lat="49.49496" lon="1.09087">
        <ele>165</ele>
        <time>2026-07-07T12:58:56.343Z</time>
      </trkpt>
      <trkpt lat="49.49496" lon="1.09087">
        <ele>165</ele>
        <time>2026-07-07T12:59:01.343Z</time>
      </trkpt>
      <trkpt lat="49.49495" lon="1.09085">
        <ele>165</ele>
        <time>2026-07-07T12:59:05.648Z</time>
      </trkpt>
      <trkpt lat="49.49497" lon="1.09079">
        <ele>165</ele>
        <time>2026-07-07T12:59:10.062Z</time>
      </trkpt>
      <trkpt lat="49.495" lon="1.09072">
        <ele>165</ele>
        <time>2026-07-07T12:59:27.343Z</time>
      </trkpt>
      <trkpt lat="49.495" lon="1.09071">
        <ele>165</ele>
        <time>2026-07-07T12:59:32.343Z</time>
      </trkpt>
      <trkpt lat="49.49501" lon="1.0907">
        <ele>165</ele>
        <time>2026-07-07T12:59:39.343Z</time>
      </trkpt>
      <trkpt lat="49.49502" lon="1.09067">
        <ele>166</ele>
        <time>2026-07-07T12:59:44.343Z</time>
      </trkpt>
      <trkpt lat="49.49506" lon="1.09064">
        <ele>166</ele>
        <time>2026-07-07T12:59:48.342Z</time>
      </trkpt>
      <trkpt lat="49.4951" lon="1.0906">
        <ele>166</ele>
        <time>2026-07-07T12:59:53.342Z</time>
      </trkpt>
      <trkpt lat="49.49515" lon="1.09059">
        <ele>166</ele>
        <time>2026-07-07T12:59:58.343Z</time>
      </trkpt>
      <trkpt lat="49.49519" lon="1.09057">
        <ele>166</ele>
        <time>2026-07-07T13:00:02.467Z</time>
      </trkpt>
      <trkpt lat="49.49523" lon="1.09054">
        <ele>166</ele>
        <time>2026-07-07T13:00:06.551Z</time>
      </trkpt>
      <trkpt lat="49.49527" lon="1.09053">
        <ele>166</ele>
        <time>2026-07-07T13:00:10.669Z</time>
      </trkpt>
      <trkpt lat="49.49531" lon="1.09052">
        <ele>166</ele>
        <time>2026-07-07T13:00:14.866Z</time>
      </trkpt>
      <trkpt lat="49.49535" lon="1.0905">
        <ele>166</ele>
        <time>2026-07-07T13:00:18.941Z</time>
      </trkpt>
      <trkpt lat="49.49539" lon="1.09049">
        <ele>166</ele>
        <time>2026-07-07T13:00:23.287Z</time>
      </trkpt>
      <trkpt lat="49.49543" lon="1.0905">
        <ele>166</ele>
        <time>2026-07-07T13:00:27.342Z</time>
      </trkpt>
      <trkpt lat="49.49547" lon="1.09053">
        <ele>166</ele>
        <time>2026-07-07T13:00:31.830Z</time>
      </trkpt>
      <trkpt lat="49.49551" lon="1.09055">
        <ele>166</ele>
        <time>2026-07-07T13:00:36.106Z</time>
      </trkpt>
      <trkpt lat="49.49556" lon="1.09057">
        <ele>166</ele>
        <time>2026-07-07T13:00:40.347Z</time>
      </trkpt>
      <trkpt lat="49.49559" lon="1.09061">
        <ele>166</ele>
        <time>2026-07-07T13:00:44.342Z</time>
      </trkpt>
      <trkpt lat="49.49561" lon="1.09063">
        <ele>166</ele>
        <time>2026-07-07T13:00:48.728Z</time>
      </trkpt>
      <trkpt lat="49.49566" lon="1.09063">
        <ele>166</ele>
        <time>2026-07-07T13:00:53.120Z</time>
      </trkpt>
      <trkpt lat="49.4957" lon="1.09062">
        <ele>164</ele>
        <time>2026-07-07T13:00:57.342Z</time>
      </trkpt>
      <trkpt lat="49.49574" lon="1.0906">
        <ele>164</ele>
        <time>2026-07-07T13:01:01.352Z</time>
      </trkpt>
      <trkpt lat="49.49579" lon="1.09059">
        <ele>164</ele>
        <time>2026-07-07T13:01:06.343Z</time>
      </trkpt>
      <trkpt lat="49.49584" lon="1.0906">
        <ele>164</ele>
        <time>2026-07-07T13:01:10.992Z</time>
      </trkpt>
      <trkpt lat="49.49591" lon="1.09057">
        <ele>164</ele>
        <time>2026-07-07T13:01:15.515Z</time>
      </trkpt>
      <trkpt lat="49.49598" lon="1.09057">
        <ele>160</ele>
        <time>2026-07-07T13:01:20.290Z</time>
      </trkpt>
      <trkpt lat="49.49603" lon="1.0906">
        <ele>160</ele>
        <time>2026-07-07T13:01:24.409Z</time>
      </trkpt>
      <trkpt lat="49.49608" lon="1.09062">
        <ele>160</ele>
        <time>2026-07-07T13:01:28.948Z</time>
      </trkpt>
      <trkpt lat="49.49612" lon="1.09063">
        <ele>160</ele>
        <time>2026-07-07T13:01:33.093Z</time>
      </trkpt>
      <trkpt lat="49.49617" lon="1.09062">
        <ele>160</ele>
        <time>2026-07-07T13:01:37.149Z</time>
      </trkpt>
      <trkpt lat="49.49622" lon="1.09061">
        <ele>160</ele>
        <time>2026-07-07T13:01:41.672Z</time>
      </trkpt>
      <trkpt lat="49.49627" lon="1.09058">
        <ele>158</ele>
        <time>2026-07-07T13:01:45.728Z</time>
      </trkpt>
      <trkpt lat="49.49631" lon="1.09058">
        <ele>158</ele>
        <time>2026-07-07T13:01:50.329Z</time>
      </trkpt>
      <trkpt lat="49.49636" lon="1.09059">
        <ele>158</ele>
        <time>2026-07-07T13:01:54.343Z</time>
      </trkpt>
      <trkpt lat="49.49641" lon="1.09059">
        <ele>158</ele>
        <time>2026-07-07T13:01:58.382Z</time>
      </trkpt>
      <trkpt lat="49.49645" lon="1.09057">
        <ele>158</ele>
        <time>2026-07-07T13:02:02.490Z</time>
      </trkpt>
      <trkpt lat="49.49649" lon="1.09054">
        <ele>158</ele>
        <time>2026-07-07T13:02:06.731Z</time>
      </trkpt>
      <trkpt lat="49.49654" lon="1.0905">
        <ele>157</ele>
        <time>2026-07-07T13:02:11.342Z</time>
      </trkpt>
      <trkpt lat="49.49659" lon="1.09047">
        <ele>157</ele>
        <time>2026-07-07T13:02:16.011Z</time>
      </trkpt>
      <trkpt lat="49.49663" lon="1.09045">
        <ele>157</ele>
        <time>2026-07-07T13:02:20.086Z</time>
      </trkpt>
      <trkpt lat="49.49667" lon="1.09043">
        <ele>157</ele>
        <time>2026-07-07T13:02:24.634Z</time>
      </trkpt>
      <trkpt lat="49.49671" lon="1.0904">
        <ele>158</ele>
        <time>2026-07-07T13:02:28.650Z</time>
      </trkpt>
      <trkpt lat="49.49675" lon="1.09036">
        <ele>158</ele>
        <time>2026-07-07T13:02:33.186Z</time>
      </trkpt>
      <trkpt lat="49.49681" lon="1.09034">
        <ele>156</ele>
        <time>2026-07-07T13:02:37.910Z</time>
      </trkpt>
      <trkpt lat="49.49686" lon="1.09031">
        <ele>156</ele>
        <time>2026-07-07T13:02:41.898Z</time>
      </trkpt>
      <trkpt lat="49.4969" lon="1.09028">
        <ele>156</ele>
        <time>2026-07-07T13:02:46.286Z</time>
      </trkpt>
      <trkpt lat="49.49695" lon="1.09027">
        <ele>156</ele>
        <time>2026-07-07T13:02:50.290Z</time>
      </trkpt>
      <trkpt lat="49.49699" lon="1.09025">
        <ele>156</ele>
        <time>2026-07-07T13:02:54.343Z</time>
      </trkpt>
      <trkpt lat="49.49703" lon="1.09023">
        <ele>156</ele>
        <time>2026-07-07T13:02:58.772Z</time>
      </trkpt>
      <trkpt lat="49.49708" lon="1.0902">
        <ele>156</ele>
        <time>2026-07-07T13:03:03.294Z</time>
      </trkpt>
      <trkpt lat="49.49713" lon="1.09016">
        <ele>152</ele>
        <time>2026-07-07T13:03:07.711Z</time>
      </trkpt>
      <trkpt lat="49.49717" lon="1.09012">
        <ele>153</ele>
        <time>2026-07-07T13:03:11.851Z</time>
      </trkpt>
      <trkpt lat="49.49722" lon="1.0901">
        <ele>153</ele>
        <time>2026-07-07T13:03:15.893Z</time>
      </trkpt>
      <trkpt lat="49.49726" lon="1.09007">
        <ele>153</ele>
        <time>2026-07-07T13:03:19.968Z</time>
      </trkpt>
      <trkpt lat="49.4973" lon="1.09004">
        <ele>153</ele>
        <time>2026-07-07T13:03:24.061Z</time>
      </trkpt>
      <trkpt lat="49.49734" lon="1.09001">
        <ele>153</ele>
        <time>2026-07-07T13:03:28.133Z</time>
      </trkpt>
      <trkpt lat="49.49738" lon="1.08997">
        <ele>149</ele>
        <time>2026-07-07T13:03:32.342Z</time>
      </trkpt>
      <trkpt lat="49.49743" lon="1.08994">
        <ele>149</ele>
        <time>2026-07-07T13:03:36.668Z</time>
      </trkpt>
      <trkpt lat="49.49747" lon="1.08992">
        <ele>149</ele>
        <time>2026-07-07T13:03:40.690Z</time>
      </trkpt>
      <trkpt lat="49.4975" lon="1.08989">
        <ele>149</ele>
        <time>2026-07-07T13:03:44.773Z</time>
      </trkpt>
      <trkpt lat="49.49754" lon="1.08986">
        <ele>149</ele>
        <time>2026-07-07T13:03:48.970Z</time>
      </trkpt>
      <trkpt lat="49.49757" lon="1.08983">
        <ele>149</ele>
        <time>2026-07-07T13:03:52.991Z</time>
      </trkpt>
      <trkpt lat="49.49761" lon="1.0898">
        <ele>149</ele>
        <time>2026-07-07T13:03:57.334Z</time>
      </trkpt>
      <trkpt lat="49.49765" lon="1.08976">
        <ele>146</ele>
        <time>2026-07-07T13:04:02.065Z</time>
      </trkpt>
      <trkpt lat="49.49769" lon="1.08973">
        <ele>146</ele>
        <time>2026-07-07T13:04:06.689Z</time>
      </trkpt>
      <trkpt lat="49.49774" lon="1.0897">
        <ele>146</ele>
        <time>2026-07-07T13:04:10.727Z</time>
      </trkpt>
      <trkpt lat="49.49778" lon="1.08967">
        <ele>146</ele>
        <time>2026-07-07T13:04:14.810Z</time>
      </trkpt>
      <trkpt lat="49.49783" lon="1.08963">
        <ele>146</ele>
        <time>2026-07-07T13:04:19.342Z</time>
      </trkpt>
      <trkpt lat="49.49787" lon="1.08959">
        <ele>146</ele>
        <time>2026-07-07T13:04:24.030Z</time>
      </trkpt>
      <trkpt lat="49.49791" lon="1.08956">
        <ele>147</ele>
        <time>2026-07-07T13:04:28.113Z</time>
      </trkpt>
      <trkpt lat="49.49796" lon="1.08953">
        <ele>144</ele>
        <time>2026-07-07T13:04:32.152Z</time>
      </trkpt>
      <trkpt lat="49.49799" lon="1.08949">
        <ele>144</ele>
        <time>2026-07-07T13:04:36.342Z</time>
      </trkpt>
      <trkpt lat="49.49803" lon="1.08946">
        <ele>144</ele>
        <time>2026-07-07T13:04:40.853Z</time>
      </trkpt>
      <trkpt lat="49.49807" lon="1.08942">
        <ele>144</ele>
        <time>2026-07-07T13:04:44.892Z</time>
      </trkpt>
      <trkpt lat="49.4981" lon="1.08938">
        <ele>144</ele>
        <time>2026-07-07T13:04:49.342Z</time>
      </trkpt>
      <trkpt lat="49.49814" lon="1.08935">
        <ele>144</ele>
        <time>2026-07-07T13:04:53.594Z</time>
      </trkpt>
      <trkpt lat="49.49818" lon="1.08931">
        <ele>144</ele>
        <time>2026-07-07T13:04:57.834Z</time>
      </trkpt>
      <trkpt lat="49.49822" lon="1.08927">
        <ele>138</ele>
        <time>2026-07-07T13:05:01.970Z</time>
      </trkpt>
      <trkpt lat="49.49825" lon="1.08923">
        <ele>138</ele>
        <time>2026-07-07T13:05:06.169Z</time>
      </trkpt>
      <trkpt lat="49.49829" lon="1.08919">
        <ele>138</ele>
        <time>2026-07-07T13:05:10.206Z</time>
      </trkpt>
      <trkpt lat="49.49833" lon="1.08915">
        <ele>138</ele>
        <time>2026-07-07T13:05:14.342Z</time>
      </trkpt>
      <trkpt lat="49.49835" lon="1.0891">
        <ele>138</ele>
        <time>2026-07-07T13:05:18.342Z</time>
      </trkpt>
      <trkpt lat="49.49839" lon="1.08906">
        <ele>138</ele>
        <time>2026-07-07T13:05:22.647Z</time>
      </trkpt>
      <trkpt lat="49.49842" lon="1.08902">
        <ele>138</ele>
        <time>2026-07-07T13:05:26.669Z</time>
      </trkpt>
      <trkpt lat="49.49846" lon="1.08899">
        <ele>138</ele>
        <time>2026-07-07T13:05:30.690Z</time>
      </trkpt>
      <trkpt lat="49.49849" lon="1.08896">
        <ele>136</ele>
        <time>2026-07-07T13:05:34.746Z</time>
      </trkpt>
      <trkpt lat="49.49853" lon="1.08892">
        <ele>136</ele>
        <time>2026-07-07T13:05:38.926Z</time>
      </trkpt>
      <trkpt lat="49.49856" lon="1.0889">
        <ele>136</ele>
        <time>2026-07-07T13:05:42.991Z</time>
      </trkpt>
      <trkpt lat="49.4986" lon="1.08887">
        <ele>136</ele>
        <time>2026-07-07T13:05:47.250Z</time>
      </trkpt>
      <trkpt lat="49.49865" lon="1.08886">
        <ele>136</ele>
        <time>2026-07-07T13:05:51.288Z</time>
      </trkpt>
      <trkpt lat="49.49869" lon="1.08884">
        <ele>136</ele>
        <time>2026-07-07T13:05:55.341Z</time>
      </trkpt>
      <trkpt lat="49.49873" lon="1.0888">
        <ele>136</ele>
        <time>2026-07-07T13:05:59.612Z</time>
      </trkpt>
      <trkpt lat="49.49877" lon="1.08876">
        <ele>134</ele>
        <time>2026-07-07T13:06:03.792Z</time>
      </trkpt>
      <trkpt lat="49.49881" lon="1.08871">
        <ele>132</ele>
        <time>2026-07-07T13:06:08.341Z</time>
      </trkpt>
      <trkpt lat="49.49885" lon="1.08865">
        <ele>132</ele>
        <time>2026-07-07T13:06:13.090Z</time>
      </trkpt>
      <trkpt lat="49.49889" lon="1.0886">
        <ele>132</ele>
        <time>2026-07-07T13:06:17.569Z</time>
      </trkpt>
      <trkpt lat="49.49892" lon="1.08856">
        <ele>132</ele>
        <time>2026-07-07T13:06:21.713Z</time>
      </trkpt>
      <trkpt lat="49.49896" lon="1.08851">
        <ele>132</ele>
        <time>2026-07-07T13:06:25.892Z</time>
      </trkpt>
      <trkpt lat="49.49899" lon="1.08848">
        <ele>132</ele>
        <time>2026-07-07T13:06:29.913Z</time>
      </trkpt>
      <trkpt lat="49.49904" lon="1.08844">
        <ele>127</ele>
        <time>2026-07-07T13:06:34.013Z</time>
      </trkpt>
      <trkpt lat="49.49907" lon="1.0884">
        <ele>127</ele>
        <time>2026-07-07T13:06:38.070Z</time>
      </trkpt>
      <trkpt lat="49.4991" lon="1.08836">
        <ele>127</ele>
        <time>2026-07-07T13:06:42.653Z</time>
      </trkpt>
      <trkpt lat="49.49913" lon="1.08832">
        <ele>127</ele>
        <time>2026-07-07T13:06:47.341Z</time>
      </trkpt>
      <trkpt lat="49.49914" lon="1.08833">
        <ele>127</ele>
        <time>2026-07-07T13:06:52.190Z</time>
      </trkpt>
      <trkpt lat="49.49915" lon="1.08831">
        <ele>127</ele>
        <time>2026-07-07T13:06:56.341Z</time>
      </trkpt>
      <trkpt lat="49.4992" lon="1.08829">
        <ele>127</ele>
        <time>2026-07-07T13:07:00.549Z</time>
      </trkpt>
      <trkpt lat="49.49914" lon="1.08834">
        <ele>127</ele>
        <time>2026-07-07T13:07:45.342Z</time>
      </trkpt>
      <trkpt lat="49.49914" lon="1.08834">
        <ele>127</ele>
        <time>2026-07-07T13:07:53.206Z</time>
      </trkpt>
      <trkpt lat="49.49914" lon="1.08834">
        <ele>127</ele>
        <time>2026-07-07T13:07:57.341Z</time>
      </trkpt>
      <trkpt lat="49.49914" lon="1.08834">
        <ele>127</ele>
        <time>2026-07-07T13:08:02.341Z</time>
      </trkpt>
      <trkpt lat="49.49914" lon="1.08835">
        <ele>127</ele>
        <time>2026-07-07T13:08:08.341Z</time>
      </trkpt>
      <trkpt lat="49.49913" lon="1.08837">
        <ele>127</ele>
        <time>2026-07-07T13:09:41.341Z</time>
      </trkpt>
      <trkpt lat="49.49911" lon="1.08834">
        <ele>127</ele>
        <time>2026-07-07T13:09:46.341Z</time>
      </trkpt>
      <trkpt lat="49.4991" lon="1.08828">
        <ele>127</ele>
        <time>2026-07-07T13:09:51.341Z</time>
      </trkpt>
      <trkpt lat="49.4991" lon="1.08823">
        <ele>127</ele>
        <time>2026-07-07T13:09:56.342Z</time>
      </trkpt>
      <trkpt lat="49.49909" lon="1.08821">
        <ele>127</ele>
        <time>2026-07-07T13:10:01.341Z</time>
      </trkpt>
      <trkpt lat="49.49908" lon="1.08816">
        <ele>126</ele>
        <time>2026-07-07T13:10:06.342Z</time>
      </trkpt>
      <trkpt lat="49.49908" lon="1.08812">
        <ele>126</ele>
        <time>2026-07-07T13:10:10.787Z</time>
      </trkpt>
      <trkpt lat="49.49908" lon="1.08805">
        <ele>126</ele>
        <time>2026-07-07T13:10:15.230Z</time>
      </trkpt>
      <trkpt lat="49.49906" lon="1.08802">
        <ele>126</ele>
        <time>2026-07-07T13:10:19.341Z</time>
      </trkpt>
      <trkpt lat="49.49905" lon="1.08798">
        <ele>126</ele>
        <time>2026-07-07T13:10:23.914Z</time>
      </trkpt>
      <trkpt lat="49.49904" lon="1.08794">
        <ele>126</ele>
        <time>2026-07-07T13:10:28.270Z</time>
      </trkpt>
      <trkpt lat="49.49902" lon="1.08788">
        <ele>130</ele>
        <time>2026-07-07T13:10:32.791Z</time>
      </trkpt>
      <trkpt lat="49.49902" lon="1.08784">
        <ele>130</ele>
        <time>2026-07-07T13:10:37.341Z</time>
      </trkpt>
      <trkpt lat="49.49901" lon="1.08776">
        <ele>130</ele>
        <time>2026-07-07T13:10:46.341Z</time>
      </trkpt>
      <trkpt lat="49.49901" lon="1.08775">
        <ele>130</ele>
        <time>2026-07-07T13:10:51.341Z</time>
      </trkpt>
      <trkpt lat="49.499" lon="1.08771">
        <ele>130</ele>
        <time>2026-07-07T13:10:56.341Z</time>
      </trkpt>
      <trkpt lat="49.49899" lon="1.08767">
        <ele>130</ele>
        <time>2026-07-07T13:11:01.213Z</time>
      </trkpt>
      <trkpt lat="49.49899" lon="1.08763">
        <ele>132</ele>
        <time>2026-07-07T13:11:05.342Z</time>
      </trkpt>
      <trkpt lat="49.49895" lon="1.08757">
        <ele>132</ele>
        <time>2026-07-07T13:11:22.342Z</time>
      </trkpt>
      <trkpt lat="49.49895" lon="1.08755">
        <ele>132</ele>
        <time>2026-07-07T13:11:27.342Z</time>
      </trkpt>
      <trkpt lat="49.49896" lon="1.08753">
        <ele>132</ele>
        <time>2026-07-07T13:11:32.342Z</time>
      </trkpt>
      <trkpt lat="49.49898" lon="1.08749">
        <ele>132</ele>
        <time>2026-07-07T13:11:36.341Z</time>
      </trkpt>
      <trkpt lat="49.499" lon="1.08745">
        <ele>132</ele>
        <time>2026-07-07T13:11:41.341Z</time>
      </trkpt>
      <trkpt lat="49.49899" lon="1.08746">
        <ele>132</ele>
        <time>2026-07-07T13:11:52.342Z</time>
      </trkpt>
      <trkpt lat="49.49899" lon="1.08746">
        <ele>132</ele>
        <time>2026-07-07T13:11:57.341Z</time>
      </trkpt>
      <trkpt lat="49.49897" lon="1.08745">
        <ele>132</ele>
        <time>2026-07-07T13:12:02.340Z</time>
      </trkpt>
      <trkpt lat="49.49894" lon="1.08744">
        <ele>132</ele>
        <time>2026-07-07T13:12:06.340Z</time>
      </trkpt>
      <trkpt lat="49.4989" lon="1.08746">
        <ele>132</ele>
        <time>2026-07-07T13:12:11.340Z</time>
      </trkpt>
      <trkpt lat="49.49888" lon="1.08744">
        <ele>132</ele>
        <time>2026-07-07T13:12:16.341Z</time>
      </trkpt>
      <trkpt lat="49.49887" lon="1.0874">
        <ele>132</ele>
        <time>2026-07-07T13:12:20.340Z</time>
      </trkpt>
      <trkpt lat="49.4989" lon="1.08734">
        <ele>134</ele>
        <time>2026-07-07T13:12:25.341Z</time>
      </trkpt>
      <trkpt lat="49.49892" lon="1.08731">
        <ele>134</ele>
        <time>2026-07-07T13:12:29.340Z</time>
      </trkpt>
      <trkpt lat="49.49893" lon="1.08721">
        <ele>134</ele>
        <time>2026-07-07T13:13:34.340Z</time>
      </trkpt>
      <trkpt lat="49.49893" lon="1.08721">
        <ele>134</ele>
        <time>2026-07-07T13:13:51.341Z</time>
      </trkpt>
      <trkpt lat="49.49893" lon="1.0872">
        <ele>134</ele>
        <time>2026-07-07T13:14:02.340Z</time>
      </trkpt>
      <trkpt lat="49.49892" lon="1.08715">
        <ele>134</ele>
        <time>2026-07-07T13:14:07.340Z</time>
      </trkpt>
      <trkpt lat="49.4989" lon="1.0871">
        <ele>134</ele>
        <time>2026-07-07T13:14:11.341Z</time>
      </trkpt>
      <trkpt lat="49.49889" lon="1.08707">
        <ele>136</ele>
        <time>2026-07-07T13:14:15.668Z</time>
      </trkpt>
      <trkpt lat="49.49888" lon="1.087">
        <ele>136</ele>
        <time>2026-07-07T13:14:19.829Z</time>
      </trkpt>
      <trkpt lat="49.49887" lon="1.08694">
        <ele>136</ele>
        <time>2026-07-07T13:14:24.008Z</time>
      </trkpt>
      <trkpt lat="49.49886" lon="1.08688">
        <ele>136</ele>
        <time>2026-07-07T13:14:28.030Z</time>
      </trkpt>
      <trkpt lat="49.49886" lon="1.08681">
        <ele>136</ele>
        <time>2026-07-07T13:14:32.692Z</time>
      </trkpt>
      <trkpt lat="49.49885" lon="1.08675">
        <ele>138</ele>
        <time>2026-07-07T13:14:36.749Z</time>
      </trkpt>
      <trkpt lat="49.49885" lon="1.08668">
        <ele>138</ele>
        <time>2026-07-07T13:14:41.332Z</time>
      </trkpt>
      <trkpt lat="49.49885" lon="1.08662">
        <ele>138</ele>
        <time>2026-07-07T13:14:45.890Z</time>
      </trkpt>
      <trkpt lat="49.49883" lon="1.08656">
        <ele>138</ele>
        <time>2026-07-07T13:14:50.340Z</time>
      </trkpt>
      <trkpt lat="49.49882" lon="1.08649">
        <ele>139</ele>
        <time>2026-07-07T13:14:55.013Z</time>
      </trkpt>
      <trkpt lat="49.49881" lon="1.08642">
        <ele>139</ele>
        <time>2026-07-07T13:14:59.553Z</time>
      </trkpt>
      <trkpt lat="49.4988" lon="1.08635">
        <ele>139</ele>
        <time>2026-07-07T13:15:03.987Z</time>
      </trkpt>
      <trkpt lat="49.49877" lon="1.08628">
        <ele>139</ele>
        <time>2026-07-07T13:15:08.340Z</time>
      </trkpt>
      <trkpt lat="49.49876" lon="1.08619">
        <ele>140</ele>
        <time>2026-07-07T13:15:13.055Z</time>
      </trkpt>
      <trkpt lat="49.49874" lon="1.08611">
        <ele>143</ele>
        <time>2026-07-07T13:15:17.341Z</time>
      </trkpt>
      <trkpt lat="49.49873" lon="1.08603">
        <ele>143</ele>
        <time>2026-07-07T13:15:21.928Z</time>
      </trkpt>
      <trkpt lat="49.49872" lon="1.08596">
        <ele>143</ele>
        <time>2026-07-07T13:15:26.340Z</time>
      </trkpt>
      <trkpt lat="49.49872" lon="1.08588">
        <ele>143</ele>
        <time>2026-07-07T13:15:30.770Z</time>
      </trkpt>
      <trkpt lat="49.49873" lon="1.08584">
        <ele>143</ele>
        <time>2026-07-07T13:15:34.768Z</time>
      </trkpt>
      <trkpt lat="49.49872" lon="1.08577">
        <ele>143</ele>
        <time>2026-07-07T13:15:39.288Z</time>
      </trkpt>
      <trkpt lat="49.4987" lon="1.08571">
        <ele>143</ele>
        <time>2026-07-07T13:15:43.688Z</time>
      </trkpt>
      <trkpt lat="49.49868" lon="1.08563">
        <ele>143</ele>
        <time>2026-07-07T13:15:48.228Z</time>
      </trkpt>
      <trkpt lat="49.49867" lon="1.08556">
        <ele>143</ele>
        <time>2026-07-07T13:15:52.768Z</time>
      </trkpt>
      <trkpt lat="49.49866" lon="1.08548">
        <ele>143</ele>
        <time>2026-07-07T13:15:57.211Z</time>
      </trkpt>
      <trkpt lat="49.49865" lon="1.0854">
        <ele>143</ele>
        <time>2026-07-07T13:16:01.786Z</time>
      </trkpt>
      <trkpt lat="49.49863" lon="1.08533">
        <ele>143</ele>
        <time>2026-07-07T13:16:06.247Z</time>
      </trkpt>
      <trkpt lat="49.49861" lon="1.08527">
        <ele>143</ele>
        <time>2026-07-07T13:16:10.769Z</time>
      </trkpt>
      <trkpt lat="49.49859" lon="1.08519">
        <ele>143</ele>
        <time>2026-07-07T13:16:15.195Z</time>
      </trkpt>
      <trkpt lat="49.49859" lon="1.08511">
        <ele>143</ele>
        <time>2026-07-07T13:16:19.673Z</time>
      </trkpt>
      <trkpt lat="49.49858" lon="1.08504">
        <ele>143</ele>
        <time>2026-07-07T13:16:24.168Z</time>
      </trkpt>
      <trkpt lat="49.49856" lon="1.08498">
        <ele>143</ele>
        <time>2026-07-07T13:16:28.752Z</time>
      </trkpt>
      <trkpt lat="49.49855" lon="1.0849">
        <ele>143</ele>
        <time>2026-07-07T13:16:33.250Z</time>
      </trkpt>
      <trkpt lat="49.49853" lon="1.08482">
        <ele>143</ele>
        <time>2026-07-07T13:16:37.752Z</time>
      </trkpt>
      <trkpt lat="49.49852" lon="1.08474">
        <ele>143</ele>
        <time>2026-07-07T13:16:42.213Z</time>
      </trkpt>
      <trkpt lat="49.49851" lon="1.08467">
        <ele>143</ele>
        <time>2026-07-07T13:16:46.690Z</time>
      </trkpt>
      <trkpt lat="49.49851" lon="1.0846">
        <ele>143</ele>
        <time>2026-07-07T13:16:50.819Z</time>
      </trkpt>
      <trkpt lat="49.49849" lon="1.08452">
        <ele>142</ele>
        <time>2026-07-07T13:16:55.340Z</time>
      </trkpt>
      <trkpt lat="49.49848" lon="1.08444">
        <ele>142</ele>
        <time>2026-07-07T13:16:59.888Z</time>
      </trkpt>
      <trkpt lat="49.49847" lon="1.08437">
        <ele>145</ele>
        <time>2026-07-07T13:17:04.288Z</time>
      </trkpt>
      <trkpt lat="49.49845" lon="1.08429">
        <ele>144</ele>
        <time>2026-07-07T13:17:08.634Z</time>
      </trkpt>
      <trkpt lat="49.49844" lon="1.08422">
        <ele>144</ele>
        <time>2026-07-07T13:17:12.954Z</time>
      </trkpt>
      <trkpt lat="49.49843" lon="1.08415">
        <ele>144</ele>
        <time>2026-07-07T13:17:17.310Z</time>
      </trkpt>
      <trkpt lat="49.49842" lon="1.08408">
        <ele>144</ele>
        <time>2026-07-07T13:17:21.692Z</time>
      </trkpt>
      <trkpt lat="49.49841" lon="1.08401">
        <ele>144</ele>
        <time>2026-07-07T13:17:25.935Z</time>
      </trkpt>
      <trkpt lat="49.49839" lon="1.08394">
        <ele>144</ele>
        <time>2026-07-07T13:17:30.288Z</time>
      </trkpt>
      <trkpt lat="49.49838" lon="1.08387">
        <ele>144</ele>
        <time>2026-07-07T13:17:34.341Z</time>
      </trkpt>
      <trkpt lat="49.49837" lon="1.08379">
        <ele>144</ele>
        <time>2026-07-07T13:17:38.752Z</time>
      </trkpt>
      <trkpt lat="49.49836" lon="1.08372">
        <ele>144</ele>
        <time>2026-07-07T13:17:43.011Z</time>
      </trkpt>
      <trkpt lat="49.49837" lon="1.08365">
        <ele>144</ele>
        <time>2026-07-07T13:17:47.340Z</time>
      </trkpt>
      <trkpt lat="49.49835" lon="1.08357">
        <ele>144</ele>
        <time>2026-07-07T13:17:51.341Z</time>
      </trkpt>
      <trkpt lat="49.49835" lon="1.08351">
        <ele>144</ele>
        <time>2026-07-07T13:17:55.629Z</time>
      </trkpt>
      <trkpt lat="49.49834" lon="1.08344">
        <ele>143</ele>
        <time>2026-07-07T13:17:59.968Z</time>
      </trkpt>
      <trkpt lat="49.49831" lon="1.08337">
        <ele>143</ele>
        <time>2026-07-07T13:18:04.269Z</time>
      </trkpt>
      <trkpt lat="49.4983" lon="1.08331">
        <ele>143</ele>
        <time>2026-07-07T13:18:08.555Z</time>
      </trkpt>
      <trkpt lat="49.49829" lon="1.08324">
        <ele>143</ele>
        <time>2026-07-07T13:18:12.848Z</time>
      </trkpt>
      <trkpt lat="49.49829" lon="1.08317">
        <ele>141</ele>
        <time>2026-07-07T13:18:17.072Z</time>
      </trkpt>
      <trkpt lat="49.49828" lon="1.0831">
        <ele>141</ele>
        <time>2026-07-07T13:18:21.340Z</time>
      </trkpt>
      <trkpt lat="49.49827" lon="1.08303">
        <ele>141</ele>
        <time>2026-07-07T13:18:25.712Z</time>
      </trkpt>
      <trkpt lat="49.49827" lon="1.08297">
        <ele>141</ele>
        <time>2026-07-07T13:18:30.015Z</time>
      </trkpt>
      <trkpt lat="49.49826" lon="1.08291">
        <ele>140</ele>
        <time>2026-07-07T13:18:34.246Z</time>
      </trkpt>
      <trkpt lat="49.49824" lon="1.08285">
        <ele>140</ele>
        <time>2026-07-07T13:18:38.593Z</time>
      </trkpt>
      <trkpt lat="49.49823" lon="1.08278">
        <ele>140</ele>
        <time>2026-07-07T13:18:42.773Z</time>
      </trkpt>
      <trkpt lat="49.49822" lon="1.08269">
        <ele>140</ele>
        <time>2026-07-07T13:18:47.067Z</time>
      </trkpt>
      <trkpt lat="49.49822" lon="1.08263">
        <ele>140</ele>
        <time>2026-07-07T13:18:51.307Z</time>
      </trkpt>
      <trkpt lat="49.49821" lon="1.08255">
        <ele>140</ele>
        <time>2026-07-07T13:18:55.339Z</time>
      </trkpt>
      <trkpt lat="49.49819" lon="1.08247">
        <ele>144</ele>
        <time>2026-07-07T13:18:59.731Z</time>
      </trkpt>
      <trkpt lat="49.49817" lon="1.08239">
        <ele>144</ele>
        <time>2026-07-07T13:19:03.969Z</time>
      </trkpt>
      <trkpt lat="49.49816" lon="1.08232">
        <ele>144</ele>
        <time>2026-07-07T13:19:08.115Z</time>
      </trkpt>
      <trkpt lat="49.49816" lon="1.08226">
        <ele>144</ele>
        <time>2026-07-07T13:19:12.339Z</time>
      </trkpt>
      <trkpt lat="49.49814" lon="1.08219">
        <ele>144</ele>
        <time>2026-07-07T13:19:16.631Z</time>
      </trkpt>
      <trkpt lat="49.49812" lon="1.08211">
        <ele>144</ele>
        <time>2026-07-07T13:19:20.986Z</time>
      </trkpt>
      <trkpt lat="49.49811" lon="1.08203">
        <ele>142</ele>
        <time>2026-07-07T13:19:25.253Z</time>
      </trkpt>
      <trkpt lat="49.4981" lon="1.08195">
        <ele>142</ele>
        <time>2026-07-07T13:19:29.750Z</time>
      </trkpt>
      <trkpt lat="49.49809" lon="1.08188">
        <ele>142</ele>
        <time>2026-07-07T13:19:33.893Z</time>
      </trkpt>
      <trkpt lat="49.49808" lon="1.08181">
        <ele>142</ele>
        <time>2026-07-07T13:19:38.153Z</time>
      </trkpt>
      <trkpt lat="49.49806" lon="1.08174">
        <ele>140</ele>
        <time>2026-07-07T13:19:42.339Z</time>
      </trkpt>
      <trkpt lat="49.49805" lon="1.08167">
        <ele>140</ele>
        <time>2026-07-07T13:19:46.634Z</time>
      </trkpt>
      <trkpt lat="49.49805" lon="1.08163">
        <ele>140</ele>
        <time>2026-07-07T13:19:50.866Z</time>
      </trkpt>
      <trkpt lat="49.49803" lon="1.08158">
        <ele>140</ele>
        <time>2026-07-07T13:19:55.212Z</time>
      </trkpt>
      <trkpt lat="49.49801" lon="1.0815">
        <ele>138</ele>
        <time>2026-07-07T13:19:59.611Z</time>
      </trkpt>
      <trkpt lat="49.49799" lon="1.08144">
        <ele>138</ele>
        <time>2026-07-07T13:20:04.029Z</time>
      </trkpt>
      <trkpt lat="49.49798" lon="1.08137">
        <ele>138</ele>
        <time>2026-07-07T13:20:08.173Z</time>
      </trkpt>
      <trkpt lat="49.49798" lon="1.0813">
        <ele>138</ele>
        <time>2026-07-07T13:20:12.291Z</time>
      </trkpt>
      <trkpt lat="49.49797" lon="1.08122">
        <ele>135</ele>
        <time>2026-07-07T13:20:16.813Z</time>
      </trkpt>
      <trkpt lat="49.49796" lon="1.08115">
        <ele>135</ele>
        <time>2026-07-07T13:20:21.089Z</time>
      </trkpt>
      <trkpt lat="49.49796" lon="1.08109">
        <ele>135</ele>
        <time>2026-07-07T13:20:25.340Z</time>
      </trkpt>
      <trkpt lat="49.49795" lon="1.08103">
        <ele>135</ele>
        <time>2026-07-07T13:20:29.650Z</time>
      </trkpt>
      <trkpt lat="49.49795" lon="1.08097">
        <ele>132</ele>
        <time>2026-07-07T13:20:33.874Z</time>
      </trkpt>
      <trkpt lat="49.49795" lon="1.0809">
        <ele>132</ele>
        <time>2026-07-07T13:20:37.949Z</time>
      </trkpt>
      <trkpt lat="49.49795" lon="1.08084">
        <ele>132</ele>
        <time>2026-07-07T13:20:42.339Z</time>
      </trkpt>
      <trkpt lat="49.49793" lon="1.08079">
        <ele>132</ele>
        <time>2026-07-07T13:20:46.588Z</time>
      </trkpt>
      <trkpt lat="49.49792" lon="1.08074">
        <ele>132</ele>
        <time>2026-07-07T13:20:50.846Z</time>
      </trkpt>
      <trkpt lat="49.49793" lon="1.08072">
        <ele>132</ele>
        <time>2026-07-07T13:23:01.340Z</time>
      </trkpt>
      <trkpt lat="49.49793" lon="1.08072">
        <ele>132</ele>
        <time>2026-07-07T13:23:10.054Z</time>
      </trkpt>
      <trkpt lat="49.49789" lon="1.08068">
        <ele>133</ele>
        <time>2026-07-07T13:23:14.107Z</time>
      </trkpt>
      <trkpt lat="49.49785" lon="1.08067">
        <ele>133</ele>
        <time>2026-07-07T13:23:18.339Z</time>
      </trkpt>
      <trkpt lat="49.49782" lon="1.08065">
        <ele>133</ele>
        <time>2026-07-07T13:23:22.339Z</time>
      </trkpt>
      <trkpt lat="49.49774" lon="1.0806">
        <ele>133</ele>
        <time>2026-07-07T13:23:32.030Z</time>
      </trkpt>
      <trkpt lat="49.49773" lon="1.08059">
        <ele>133</ele>
        <time>2026-07-07T13:23:36.927Z</time>
      </trkpt>
      <trkpt lat="49.49772" lon="1.08058">
        <ele>133</ele>
        <time>2026-07-07T13:23:41.089Z</time>
      </trkpt>
      <trkpt lat="49.4977" lon="1.08056">
        <ele>133</ele>
        <time>2026-07-07T13:23:45.295Z</time>
      </trkpt>
      <trkpt lat="49.49768" lon="1.08054">
        <ele>133</ele>
        <time>2026-07-07T13:23:49.339Z</time>
      </trkpt>
      <trkpt lat="49.49765" lon="1.0805">
        <ele>133</ele>
        <time>2026-07-07T13:23:53.340Z</time>
      </trkpt>
      <trkpt lat="49.49763" lon="1.08047">
        <ele>141</ele>
        <time>2026-07-07T13:23:58.018Z</time>
      </trkpt>
      <trkpt lat="49.49761" lon="1.08044">
        <ele>141</ele>
        <time>2026-07-07T13:24:02.339Z</time>
      </trkpt>
      <trkpt lat="49.49757" lon="1.0804">
        <ele>140</ele>
        <time>2026-07-07T13:24:07.008Z</time>
      </trkpt>
      <trkpt lat="49.49752" lon="1.08037">
        <ele>140</ele>
        <time>2026-07-07T13:24:11.609Z</time>
      </trkpt>
      <trkpt lat="49.49747" lon="1.08036">
        <ele>140</ele>
        <time>2026-07-07T13:24:16.087Z</time>
      </trkpt>
      <trkpt lat="49.49743" lon="1.08034">
        <ele>140</ele>
        <time>2026-07-07T13:24:20.340Z</time>
      </trkpt>
      <trkpt lat="49.49739" lon="1.08032">
        <ele>140</ele>
        <time>2026-07-07T13:24:24.752Z</time>
      </trkpt>
      <trkpt lat="49.49735" lon="1.08028">
        <ele>147</ele>
        <time>2026-07-07T13:24:28.932Z</time>
      </trkpt>
      <trkpt lat="49.49732" lon="1.08024">
        <ele>147</ele>
        <time>2026-07-07T13:24:33.053Z</time>
      </trkpt>
      <trkpt lat="49.49729" lon="1.0802">
        <ele>147</ele>
        <time>2026-07-07T13:24:37.211Z</time>
      </trkpt>
      <trkpt lat="49.49725" lon="1.08017">
        <ele>147</ele>
        <time>2026-07-07T13:24:41.286Z</time>
      </trkpt>
      <trkpt lat="49.49722" lon="1.08014">
        <ele>146</ele>
        <time>2026-07-07T13:24:45.333Z</time>
      </trkpt>
      <trkpt lat="49.49718" lon="1.0801">
        <ele>146</ele>
        <time>2026-07-07T13:24:49.340Z</time>
      </trkpt>
      <trkpt lat="49.49715" lon="1.08007">
        <ele>146</ele>
        <time>2026-07-07T13:24:53.340Z</time>
      </trkpt>
      <trkpt lat="49.4971" lon="1.08003">
        <ele>146</ele>
        <time>2026-07-07T13:24:57.652Z</time>
      </trkpt>
      <trkpt lat="49.49706" lon="1.08">
        <ele>149</ele>
        <time>2026-07-07T13:25:01.673Z</time>
      </trkpt>
      <trkpt lat="49.49702" lon="1.07995">
        <ele>149</ele>
        <time>2026-07-07T13:25:06.327Z</time>
      </trkpt>
      <trkpt lat="49.49698" lon="1.07991">
        <ele>149</ele>
        <time>2026-07-07T13:25:10.339Z</time>
      </trkpt>
      <trkpt lat="49.49695" lon="1.07987">
        <ele>149</ele>
        <time>2026-07-07T13:25:14.339Z</time>
      </trkpt>
      <trkpt lat="49.49691" lon="1.07984">
        <ele>148</ele>
        <time>2026-07-07T13:25:19.017Z</time>
      </trkpt>
      <trkpt lat="49.49686" lon="1.07981">
        <ele>148</ele>
        <time>2026-07-07T13:25:23.668Z</time>
      </trkpt>
      <trkpt lat="49.49681" lon="1.07977">
        <ele>148</ele>
        <time>2026-07-07T13:25:28.251Z</time>
      </trkpt>
      <trkpt lat="49.49676" lon="1.07974">
        <ele>149</ele>
        <time>2026-07-07T13:25:32.870Z</time>
      </trkpt>
      <trkpt lat="49.49672" lon="1.07971">
        <ele>149</ele>
        <time>2026-07-07T13:25:36.891Z</time>
      </trkpt>
      <trkpt lat="49.49669" lon="1.07967">
        <ele>149</ele>
        <time>2026-07-07T13:25:40.913Z</time>
      </trkpt>
      <trkpt lat="49.49665" lon="1.07963">
        <ele>149</ele>
        <time>2026-07-07T13:25:45.566Z</time>
      </trkpt>
      <trkpt lat="49.49662" lon="1.07959">
        <ele>149</ele>
        <time>2026-07-07T13:25:50.058Z</time>
      </trkpt>
      <trkpt lat="49.49658" lon="1.07955">
        <ele>148</ele>
        <time>2026-07-07T13:25:54.339Z</time>
      </trkpt>
      <trkpt lat="49.49653" lon="1.07951">
        <ele>148</ele>
        <time>2026-07-07T13:25:58.832Z</time>
      </trkpt>
      <trkpt lat="49.49648" lon="1.07948">
        <ele>151</ele>
        <time>2026-07-07T13:26:03.311Z</time>
      </trkpt>
      <trkpt lat="49.49643" lon="1.07944">
        <ele>151</ele>
        <time>2026-07-07T13:26:07.834Z</time>
      </trkpt>
      <trkpt lat="49.49639" lon="1.07941">
        <ele>151</ele>
        <time>2026-07-07T13:26:12.293Z</time>
      </trkpt>
      <trkpt lat="49.49634" lon="1.07937">
        <ele>151</ele>
        <time>2026-07-07T13:26:16.753Z</time>
      </trkpt>
      <trkpt lat="49.4963" lon="1.07934">
        <ele>151</ele>
        <time>2026-07-07T13:26:21.169Z</time>
      </trkpt>
      <trkpt lat="49.49626" lon="1.07929">
        <ele>149</ele>
        <time>2026-07-07T13:26:25.709Z</time>
      </trkpt>
      <trkpt lat="49.49625" lon="1.07924">
        <ele>150</ele>
        <time>2026-07-07T13:26:30.056Z</time>
      </trkpt>
      <trkpt lat="49.49623" lon="1.07918">
        <ele>150</ele>
        <time>2026-07-07T13:26:34.568Z</time>
      </trkpt>
      <trkpt lat="49.49619" lon="1.07913">
        <ele>150</ele>
        <time>2026-07-07T13:26:38.993Z</time>
      </trkpt>
      <trkpt lat="49.49615" lon="1.07911">
        <ele>150</ele>
        <time>2026-07-07T13:26:43.339Z</time>
      </trkpt>
      <trkpt lat="49.49611" lon="1.07907">
        <ele>150</ele>
        <time>2026-07-07T13:26:47.729Z</time>
      </trkpt>
      <trkpt lat="49.49606" lon="1.07903">
        <ele>150</ele>
        <time>2026-07-07T13:26:52.128Z</time>
      </trkpt>
      <trkpt lat="49.49602" lon="1.07902">
        <ele>149</ele>
        <time>2026-07-07T13:26:56.338Z</time>
      </trkpt>
      <trkpt lat="49.49598" lon="1.07898">
        <ele>149</ele>
        <time>2026-07-07T13:27:00.926Z</time>
      </trkpt>
      <trkpt lat="49.49593" lon="1.07894">
        <ele>150</ele>
        <time>2026-07-07T13:27:05.228Z</time>
      </trkpt>
      <trkpt lat="49.49588" lon="1.0789">
        <ele>150</ele>
        <time>2026-07-07T13:27:09.595Z</time>
      </trkpt>
      <trkpt lat="49.49584" lon="1.07886">
        <ele>150</ele>
        <time>2026-07-07T13:27:13.991Z</time>
      </trkpt>
      <trkpt lat="49.4958" lon="1.07882">
        <ele>150</ele>
        <time>2026-07-07T13:27:18.188Z</time>
      </trkpt>
      <trkpt lat="49.49575" lon="1.07881">
        <ele>150</ele>
        <time>2026-07-07T13:27:22.648Z</time>
      </trkpt>
      <trkpt lat="49.49571" lon="1.07883">
        <ele>150</ele>
        <time>2026-07-07T13:27:27.338Z</time>
      </trkpt>
      <trkpt lat="49.49568" lon="1.07885">
        <ele>152</ele>
        <time>2026-07-07T13:27:31.973Z</time>
      </trkpt>
      <trkpt lat="49.49562" lon="1.07887">
        <ele>152</ele>
        <time>2026-07-07T13:27:36.338Z</time>
      </trkpt>
      <trkpt lat="49.49559" lon="1.07888">
        <ele>152</ele>
        <time>2026-07-07T13:27:40.911Z</time>
      </trkpt>
      <trkpt lat="49.49554" lon="1.0789">
        <ele>152</ele>
        <time>2026-07-07T13:27:45.338Z</time>
      </trkpt>
      <trkpt lat="49.4955" lon="1.0789">
        <ele>152</ele>
        <time>2026-07-07T13:27:49.928Z</time>
      </trkpt>
      <trkpt lat="49.49545" lon="1.07891">
        <ele>152</ele>
        <time>2026-07-07T13:27:54.338Z</time>
      </trkpt>
      <trkpt lat="49.4954" lon="1.07893">
        <ele>153</ele>
        <time>2026-07-07T13:27:58.814Z</time>
      </trkpt>
      <trkpt lat="49.49535" lon="1.07896">
        <ele>153</ele>
        <time>2026-07-07T13:28:03.358Z</time>
      </trkpt>
      <trkpt lat="49.4953" lon="1.07898">
        <ele>153</ele>
        <time>2026-07-07T13:28:07.928Z</time>
      </trkpt>
      <trkpt lat="49.49524" lon="1.07902">
        <ele>153</ele>
        <time>2026-07-07T13:28:12.338Z</time>
      </trkpt>
      <trkpt lat="49.49518" lon="1.07905">
        <ele>154</ele>
        <time>2026-07-07T13:28:16.788Z</time>
      </trkpt>
      <trkpt lat="49.49512" lon="1.07908">
        <ele>154</ele>
        <time>2026-07-07T13:28:21.310Z</time>
      </trkpt>
      <trkpt lat="49.49507" lon="1.07911">
        <ele>154</ele>
        <time>2026-07-07T13:28:25.770Z</time>
      </trkpt>
      <trkpt lat="49.49502" lon="1.07913">
        <ele>154</ele>
        <time>2026-07-07T13:28:30.187Z</time>
      </trkpt>
      <trkpt lat="49.49497" lon="1.07915">
        <ele>154</ele>
        <time>2026-07-07T13:28:34.617Z</time>
      </trkpt>
      <trkpt lat="49.49492" lon="1.07916">
        <ele>154</ele>
        <time>2026-07-07T13:28:39.050Z</time>
      </trkpt>
      <trkpt lat="49.49488" lon="1.07916">
        <ele>154</ele>
        <time>2026-07-07T13:28:43.338Z</time>
      </trkpt>
      <trkpt lat="49.49484" lon="1.07917">
        <ele>152</ele>
        <time>2026-07-07T13:28:48.169Z</time>
      </trkpt>
      <trkpt lat="49.49481" lon="1.07913">
        <ele>152</ele>
        <time>2026-07-07T13:32:54.338Z</time>
      </trkpt>
      <trkpt lat="49.49481" lon="1.07913">
        <ele>152</ele>
        <time>2026-07-07T13:33:00.337Z</time>
      </trkpt>
      <trkpt lat="49.4948" lon="1.07912">
        <ele>152</ele>
        <time>2026-07-07T13:33:04.931Z</time>
      </trkpt>
      <trkpt lat="49.4948" lon="1.07905">
        <ele>152</ele>
        <time>2026-07-07T13:33:09.054Z</time>
      </trkpt>
      <trkpt lat="49.4948" lon="1.07896">
        <ele>151</ele>
        <time>2026-07-07T13:33:13.211Z</time>
      </trkpt>
      <trkpt lat="49.4948" lon="1.07888">
        <ele>151</ele>
        <time>2026-07-07T13:33:17.338Z</time>
      </trkpt>
      <trkpt lat="49.49481" lon="1.07881">
        <ele>151</ele>
        <time>2026-07-07T13:33:21.536Z</time>
      </trkpt>
      <trkpt lat="49.49482" lon="1.07874">
        <ele>150</ele>
        <time>2026-07-07T13:33:25.766Z</time>
      </trkpt>
      <trkpt lat="49.49482" lon="1.07867">
        <ele>150</ele>
        <time>2026-07-07T13:33:29.946Z</time>
      </trkpt>
      <trkpt lat="49.49482" lon="1.0786">
        <ele>150</ele>
        <time>2026-07-07T13:33:34.152Z</time>
      </trkpt>
      <trkpt lat="49.49482" lon="1.07852">
        <ele>150</ele>
        <time>2026-07-07T13:33:38.288Z</time>
      </trkpt>
      <trkpt lat="49.49482" lon="1.07845">
        <ele>150</ele>
        <time>2026-07-07T13:33:42.309Z</time>
      </trkpt>
      <trkpt lat="49.49482" lon="1.07838">
        <ele>150</ele>
        <time>2026-07-07T13:33:46.454Z</time>
      </trkpt>
      <trkpt lat="49.49481" lon="1.0783">
        <ele>150</ele>
        <time>2026-07-07T13:33:50.554Z</time>
      </trkpt>
      <trkpt lat="49.49482" lon="1.07823">
        <ele>150</ele>
        <time>2026-07-07T13:33:54.672Z</time>
      </trkpt>
      <trkpt lat="49.49482" lon="1.07815">
        <ele>149</ele>
        <time>2026-07-07T13:33:58.790Z</time>
      </trkpt>
      <trkpt lat="49.49482" lon="1.07808">
        <ele>149</ele>
        <time>2026-07-07T13:34:02.848Z</time>
      </trkpt>
      <trkpt lat="49.49482" lon="1.07801">
        <ele>149</ele>
        <time>2026-07-07T13:34:07.009Z</time>
      </trkpt>
      <trkpt lat="49.49481" lon="1.07794">
        <ele>149</ele>
        <time>2026-07-07T13:34:11.060Z</time>
      </trkpt>
      <trkpt lat="49.49482" lon="1.07787">
        <ele>148</ele>
        <time>2026-07-07T13:34:15.148Z</time>
      </trkpt>
      <trkpt lat="49.49482" lon="1.0778">
        <ele>148</ele>
        <time>2026-07-07T13:34:19.169Z</time>
      </trkpt>
      <trkpt lat="49.49481" lon="1.07776">
        <ele>148</ele>
        <time>2026-07-07T13:34:23.288Z</time>
      </trkpt>
      <trkpt lat="49.4948" lon="1.07766">
        <ele>148</ele>
        <time>2026-07-07T13:34:27.337Z</time>
      </trkpt>
      <trkpt lat="49.4948" lon="1.07758">
        <ele>147</ele>
        <time>2026-07-07T13:34:31.612Z</time>
      </trkpt>
      <trkpt lat="49.4948" lon="1.0775">
        <ele>147</ele>
        <time>2026-07-07T13:34:35.729Z</time>
      </trkpt>
      <trkpt lat="49.4948" lon="1.07743">
        <ele>147</ele>
        <time>2026-07-07T13:34:39.953Z</time>
      </trkpt>
      <trkpt lat="49.4948" lon="1.07735">
        <ele>146</ele>
        <time>2026-07-07T13:34:44.338Z</time>
      </trkpt>
      <trkpt lat="49.4948" lon="1.07727">
        <ele>146</ele>
        <time>2026-07-07T13:34:48.549Z</time>
      </trkpt>
      <trkpt lat="49.4948" lon="1.0772">
        <ele>146</ele>
        <time>2026-07-07T13:34:52.833Z</time>
      </trkpt>
      <trkpt lat="49.4948" lon="1.07712">
        <ele>146</ele>
        <time>2026-07-07T13:34:57.337Z</time>
      </trkpt>
      <trkpt lat="49.49479" lon="1.07705">
        <ele>145</ele>
        <time>2026-07-07T13:35:01.552Z</time>
      </trkpt>
      <trkpt lat="49.49479" lon="1.07698">
        <ele>145</ele>
        <time>2026-07-07T13:35:05.810Z</time>
      </trkpt>
      <trkpt lat="49.49479" lon="1.07691">
        <ele>145</ele>
        <time>2026-07-07T13:35:09.894Z</time>
      </trkpt>
      <trkpt lat="49.4948" lon="1.07685">
        <ele>145</ele>
        <time>2026-07-07T13:35:14.074Z</time>
      </trkpt>
      <trkpt lat="49.4948" lon="1.07678">
        <ele>144</ele>
        <time>2026-07-07T13:35:18.112Z</time>
      </trkpt>
      <trkpt lat="49.4948" lon="1.0767">
        <ele>144</ele>
        <time>2026-07-07T13:35:22.338Z</time>
      </trkpt>
      <trkpt lat="49.4948" lon="1.07662">
        <ele>144</ele>
        <time>2026-07-07T13:35:27.063Z</time>
      </trkpt>
      <trkpt lat="49.4948" lon="1.07654">
        <ele>144</ele>
        <time>2026-07-07T13:35:31.151Z</time>
      </trkpt>
      <trkpt lat="49.49479" lon="1.07646">
        <ele>143</ele>
        <time>2026-07-07T13:35:35.347Z</time>
      </trkpt>
      <trkpt lat="49.49479" lon="1.07639">
        <ele>143</ele>
        <time>2026-07-07T13:35:39.474Z</time>
      </trkpt>
      <trkpt lat="49.49479" lon="1.07631">
        <ele>143</ele>
        <time>2026-07-07T13:35:43.593Z</time>
      </trkpt>
      <trkpt lat="49.49479" lon="1.07623">
        <ele>142</ele>
        <time>2026-07-07T13:35:47.649Z</time>
      </trkpt>
      <trkpt lat="49.49479" lon="1.07615">
        <ele>142</ele>
        <time>2026-07-07T13:35:52.267Z</time>
      </trkpt>
      <trkpt lat="49.49479" lon="1.07609">
        <ele>142</ele>
        <time>2026-07-07T13:35:56.337Z</time>
      </trkpt>
      <trkpt lat="49.49479" lon="1.07602">
        <ele>142</ele>
        <time>2026-07-07T13:36:00.547Z</time>
      </trkpt>
      <trkpt lat="49.49478" lon="1.07595">
        <ele>141</ele>
        <time>2026-07-07T13:36:04.814Z</time>
      </trkpt>
      <trkpt lat="49.4948" lon="1.07592">
        <ele>141</ele>
        <time>2026-07-07T13:36:09.337Z</time>
      </trkpt>
      <trkpt lat="49.49478" lon="1.07584">
        <ele>141</ele>
        <time>2026-07-07T13:36:14.337Z</time>
      </trkpt>
      <trkpt lat="49.49478" lon="1.07576">
        <ele>141</ele>
        <time>2026-07-07T13:36:18.792Z</time>
      </trkpt>
      <trkpt lat="49.49478" lon="1.07569">
        <ele>141</ele>
        <time>2026-07-07T13:36:23.350Z</time>
      </trkpt>
      <trkpt lat="49.49478" lon="1.0756">
        <ele>141</ele>
        <time>2026-07-07T13:36:27.511Z</time>
      </trkpt>
      <trkpt lat="49.49478" lon="1.07553">
        <ele>141</ele>
        <time>2026-07-07T13:36:31.629Z</time>
      </trkpt>
      <trkpt lat="49.49477" lon="1.07545">
        <ele>141</ele>
        <time>2026-07-07T13:36:35.826Z</time>
      </trkpt>
      <trkpt lat="49.49476" lon="1.07537">
        <ele>141</ele>
        <time>2026-07-07T13:36:39.909Z</time>
      </trkpt>
      <trkpt lat="49.49475" lon="1.07529">
        <ele>141</ele>
        <time>2026-07-07T13:36:44.071Z</time>
      </trkpt>
      <trkpt lat="49.49474" lon="1.07522">
        <ele>141</ele>
        <time>2026-07-07T13:36:48.173Z</time>
      </trkpt>
      <trkpt lat="49.49474" lon="1.07515">
        <ele>141</ele>
        <time>2026-07-07T13:36:52.210Z</time>
      </trkpt>
      <trkpt lat="49.49473" lon="1.07509">
        <ele>140</ele>
        <time>2026-07-07T13:36:56.251Z</time>
      </trkpt>
      <trkpt lat="49.49473" lon="1.07501">
        <ele>140</ele>
        <time>2026-07-07T13:37:00.337Z</time>
      </trkpt>
      <trkpt lat="49.49473" lon="1.07494">
        <ele>140</ele>
        <time>2026-07-07T13:37:04.468Z</time>
      </trkpt>
      <trkpt lat="49.49473" lon="1.07488">
        <ele>140</ele>
        <time>2026-07-07T13:37:08.586Z</time>
      </trkpt>
      <trkpt lat="49.49473" lon="1.07481">
        <ele>139</ele>
        <time>2026-07-07T13:37:12.669Z</time>
      </trkpt>
      <trkpt lat="49.49473" lon="1.07474">
        <ele>139</ele>
        <time>2026-07-07T13:37:16.709Z</time>
      </trkpt>
      <trkpt lat="49.49471" lon="1.07467">
        <ele>139</ele>
        <time>2026-07-07T13:37:20.852Z</time>
      </trkpt>
      <trkpt lat="49.4947" lon="1.0746">
        <ele>139</ele>
        <time>2026-07-07T13:37:24.909Z</time>
      </trkpt>
      <trkpt lat="49.49467" lon="1.07454">
        <ele>138</ele>
        <time>2026-07-07T13:37:29.193Z</time>
      </trkpt>
      <trkpt lat="49.49464" lon="1.07448">
        <ele>138</ele>
        <time>2026-07-07T13:37:33.549Z</time>
      </trkpt>
      <trkpt lat="49.4946" lon="1.07442">
        <ele>138</ele>
        <time>2026-07-07T13:37:37.790Z</time>
      </trkpt>
      <trkpt lat="49.49457" lon="1.07435">
        <ele>140</ele>
        <time>2026-07-07T13:37:42.030Z</time>
      </trkpt>
      <trkpt lat="49.49453" lon="1.0743">
        <ele>140</ele>
        <time>2026-07-07T13:37:46.289Z</time>
      </trkpt>
      <trkpt lat="49.49449" lon="1.07424">
        <ele>140</ele>
        <time>2026-07-07T13:37:50.591Z</time>
      </trkpt>
      <trkpt lat="49.49445" lon="1.07419">
        <ele>140</ele>
        <time>2026-07-07T13:37:54.788Z</time>
      </trkpt>
      <trkpt lat="49.49441" lon="1.07415">
        <ele>140</ele>
        <time>2026-07-07T13:37:58.994Z</time>
      </trkpt>
      <trkpt lat="49.49437" lon="1.07411">
        <ele>140</ele>
        <time>2026-07-07T13:38:03.252Z</time>
      </trkpt>
      <trkpt lat="49.49432" lon="1.07409">
        <ele>140</ele>
        <time>2026-07-07T13:38:07.590Z</time>
      </trkpt>
      <trkpt lat="49.49427" lon="1.07407">
        <ele>142</ele>
        <time>2026-07-07T13:38:11.955Z</time>
      </trkpt>
      <trkpt lat="49.49424" lon="1.07406">
        <ele>142</ele>
        <time>2026-07-07T13:38:16.337Z</time>
      </trkpt>
      <trkpt lat="49.49423" lon="1.07406">
        <ele>142</ele>
        <time>2026-07-07T13:38:26.730Z</time>
      </trkpt>
      <trkpt lat="49.49423" lon="1.07405">
        <ele>142</ele>
        <time>2026-07-07T13:38:31.288Z</time>
      </trkpt>
      <trkpt lat="49.49417" lon="1.07406">
        <ele>142</ele>
        <time>2026-07-07T13:38:35.608Z</time>
      </trkpt>
      <trkpt lat="49.49412" lon="1.07401">
        <ele>142</ele>
        <time>2026-07-07T13:38:39.849Z</time>
      </trkpt>
      <trkpt lat="49.49406" lon="1.07397">
        <ele>142</ele>
        <time>2026-07-07T13:38:44.072Z</time>
      </trkpt>
      <trkpt lat="49.49401" lon="1.07393">
        <ele>143</ele>
        <time>2026-07-07T13:38:48.313Z</time>
      </trkpt>
      <trkpt lat="49.49396" lon="1.07392">
        <ele>143</ele>
        <time>2026-07-07T13:38:52.588Z</time>
      </trkpt>
      <trkpt lat="49.49391" lon="1.0739">
        <ele>143</ele>
        <time>2026-07-07T13:38:56.768Z</time>
      </trkpt>
      <trkpt lat="49.49386" lon="1.07389">
        <ele>143</ele>
        <time>2026-07-07T13:39:00.948Z</time>
      </trkpt>
      <trkpt lat="49.49381" lon="1.07387">
        <ele>143</ele>
        <time>2026-07-07T13:39:05.172Z</time>
      </trkpt>
      <trkpt lat="49.49376" lon="1.07386">
        <ele>143</ele>
        <time>2026-07-07T13:39:09.350Z</time>
      </trkpt>
      <trkpt lat="49.49371" lon="1.07384">
        <ele>143</ele>
        <time>2026-07-07T13:39:13.513Z</time>
      </trkpt>
      <trkpt lat="49.49366" lon="1.07382">
        <ele>143</ele>
        <time>2026-07-07T13:39:17.648Z</time>
      </trkpt>
      <trkpt lat="49.49361" lon="1.0738">
        <ele>143</ele>
        <time>2026-07-07T13:39:21.827Z</time>
      </trkpt>
      <trkpt lat="49.49356" lon="1.07377">
        <ele>143</ele>
        <time>2026-07-07T13:39:25.972Z</time>
      </trkpt>
      <trkpt lat="49.49351" lon="1.07374">
        <ele>144</ele>
        <time>2026-07-07T13:39:30.291Z</time>
      </trkpt>
      <trkpt lat="49.49346" lon="1.07373">
        <ele>145</ele>
        <time>2026-07-07T13:39:34.629Z</time>
      </trkpt>
      <trkpt lat="49.49341" lon="1.07372">
        <ele>145</ele>
        <time>2026-07-07T13:39:38.835Z</time>
      </trkpt>
      <trkpt lat="49.49336" lon="1.0737">
        <ele>145</ele>
        <time>2026-07-07T13:39:42.970Z</time>
      </trkpt>
      <trkpt lat="49.49332" lon="1.07367">
        <ele>145</ele>
        <time>2026-07-07T13:39:47.229Z</time>
      </trkpt>
      <trkpt lat="49.49326" lon="1.07364">
        <ele>145</ele>
        <time>2026-07-07T13:39:51.337Z</time>
      </trkpt>
      <trkpt lat="49.49322" lon="1.07362">
        <ele>145</ele>
        <time>2026-07-07T13:39:55.869Z</time>
      </trkpt>
      <trkpt lat="49.49317" lon="1.0736">
        <ele>145</ele>
        <time>2026-07-07T13:40:00.336Z</time>
      </trkpt>
      <trkpt lat="49.49312" lon="1.07357">
        <ele>145</ele>
        <time>2026-07-07T13:40:04.772Z</time>
      </trkpt>
      <trkpt lat="49.49308" lon="1.07356">
        <ele>145</ele>
        <time>2026-07-07T13:40:08.828Z</time>
      </trkpt>
      <trkpt lat="49.49303" lon="1.07353">
        <ele>145</ele>
        <time>2026-07-07T13:40:12.973Z</time>
      </trkpt>
      <trkpt lat="49.49299" lon="1.0735">
        <ele>145</ele>
        <time>2026-07-07T13:40:16.967Z</time>
      </trkpt>
      <trkpt lat="49.49295" lon="1.07348">
        <ele>145</ele>
        <time>2026-07-07T13:40:21.062Z</time>
      </trkpt>
      <trkpt lat="49.49291" lon="1.07346">
        <ele>145</ele>
        <time>2026-07-07T13:40:25.231Z</time>
      </trkpt>
      <trkpt lat="49.49287" lon="1.07344">
        <ele>145</ele>
        <time>2026-07-07T13:40:29.337Z</time>
      </trkpt>
      <trkpt lat="49.49281" lon="1.07342">
        <ele>145</ele>
        <time>2026-07-07T13:40:34.054Z</time>
      </trkpt>
      <trkpt lat="49.49276" lon="1.07341">
        <ele>145</ele>
        <time>2026-07-07T13:40:38.146Z</time>
      </trkpt>
      <trkpt lat="49.49271" lon="1.07339">
        <ele>145</ele>
        <time>2026-07-07T13:40:42.634Z</time>
      </trkpt>
      <trkpt lat="49.49266" lon="1.07336">
        <ele>145</ele>
        <time>2026-07-07T13:40:46.733Z</time>
      </trkpt>
      <trkpt lat="49.49261" lon="1.07335">
        <ele>145</ele>
        <time>2026-07-07T13:40:50.808Z</time>
      </trkpt>
      <trkpt lat="49.49257" lon="1.07334">
        <ele>145</ele>
        <time>2026-07-07T13:40:54.829Z</time>
      </trkpt>
      <trkpt lat="49.49252" lon="1.07332">
        <ele>145</ele>
        <time>2026-07-07T13:40:58.850Z</time>
      </trkpt>
      <trkpt lat="49.49248" lon="1.07331">
        <ele>145</ele>
        <time>2026-07-07T13:41:02.971Z</time>
      </trkpt>
      <trkpt lat="49.49244" lon="1.07329">
        <ele>145</ele>
        <time>2026-07-07T13:41:07.069Z</time>
      </trkpt>
      <trkpt lat="49.49239" lon="1.07326">
        <ele>145</ele>
        <time>2026-07-07T13:41:11.310Z</time>
      </trkpt>
      <trkpt lat="49.49235" lon="1.07324">
        <ele>145</ele>
        <time>2026-07-07T13:41:15.336Z</time>
      </trkpt>
      <trkpt lat="49.4923" lon="1.07322">
        <ele>145</ele>
        <time>2026-07-07T13:41:19.731Z</time>
      </trkpt>
      <trkpt lat="49.49226" lon="1.0732">
        <ele>145</ele>
        <time>2026-07-07T13:41:23.910Z</time>
      </trkpt>
      <trkpt lat="49.49221" lon="1.07319">
        <ele>145</ele>
        <time>2026-07-07T13:41:28.168Z</time>
      </trkpt>
      <trkpt lat="49.49215" lon="1.07315">
        <ele>145</ele>
        <time>2026-07-07T13:43:13.337Z</time>
      </trkpt>
      <trkpt lat="49.49214" lon="1.07319">
        <ele>145</ele>
        <time>2026-07-07T13:43:17.651Z</time>
      </trkpt>
      <trkpt lat="49.49212" lon="1.07328">
        <ele>145</ele>
        <time>2026-07-07T13:43:22.233Z</time>
      </trkpt>
      <trkpt lat="49.49211" lon="1.07334">
        <ele>145</ele>
        <time>2026-07-07T13:43:26.272Z</time>
      </trkpt>
      <trkpt lat="49.49211" lon="1.07342">
        <ele>145</ele>
        <time>2026-07-07T13:43:30.311Z</time>
      </trkpt>
      <trkpt lat="49.49211" lon="1.07349">
        <ele>144</ele>
        <time>2026-07-07T13:43:34.337Z</time>
      </trkpt>
      <trkpt lat="49.49211" lon="1.07357">
        <ele>144</ele>
        <time>2026-07-07T13:43:38.610Z</time>
      </trkpt>
      <trkpt lat="49.4921" lon="1.07364">
        <ele>144</ele>
        <time>2026-07-07T13:43:42.755Z</time>
      </trkpt>
      <trkpt lat="49.4921" lon="1.07371">
        <ele>144</ele>
        <time>2026-07-07T13:43:46.908Z</time>
      </trkpt>
      <trkpt lat="49.49209" lon="1.07377">
        <ele>144</ele>
        <time>2026-07-07T13:43:50.992Z</time>
      </trkpt>
      <trkpt lat="49.49208" lon="1.07385">
        <ele>144</ele>
        <time>2026-07-07T13:43:55.030Z</time>
      </trkpt>
      <trkpt lat="49.49207" lon="1.07392">
        <ele>144</ele>
        <time>2026-07-07T13:43:59.130Z</time>
      </trkpt>
      <trkpt lat="49.49206" lon="1.07399">
        <ele>144</ele>
        <time>2026-07-07T13:44:03.293Z</time>
      </trkpt>
      <trkpt lat="49.49204" lon="1.07407">
        <ele>143</ele>
        <time>2026-07-07T13:44:07.350Z</time>
      </trkpt>
      <trkpt lat="49.49203" lon="1.07413">
        <ele>143</ele>
        <time>2026-07-07T13:44:11.512Z</time>
      </trkpt>
      <trkpt lat="49.49201" lon="1.07421">
        <ele>143</ele>
        <time>2026-07-07T13:44:15.647Z</time>
      </trkpt>
      <trkpt lat="49.492" lon="1.07429">
        <ele>143</ele>
        <time>2026-07-07T13:44:19.871Z</time>
      </trkpt>
      <trkpt lat="49.49199" lon="1.07436">
        <ele>143</ele>
        <time>2026-07-07T13:44:23.910Z</time>
      </trkpt>
      <trkpt lat="49.49197" lon="1.07443">
        <ele>143</ele>
        <time>2026-07-07T13:44:28.090Z</time>
      </trkpt>
      <trkpt lat="49.49197" lon="1.07451">
        <ele>143</ele>
        <time>2026-07-07T13:44:32.209Z</time>
      </trkpt>
      <trkpt lat="49.49194" lon="1.07459">
        <ele>142</ele>
        <time>2026-07-07T13:44:36.308Z</time>
      </trkpt>
      <trkpt lat="49.49193" lon="1.07466">
        <ele>142</ele>
        <time>2026-07-07T13:44:40.336Z</time>
      </trkpt>
      <trkpt lat="49.49191" lon="1.07473">
        <ele>142</ele>
        <time>2026-07-07T13:44:44.336Z</time>
      </trkpt>
      <trkpt lat="49.49189" lon="1.07482">
        <ele>142</ele>
        <time>2026-07-07T13:44:49.157Z</time>
      </trkpt>
      <trkpt lat="49.49188" lon="1.0749">
        <ele>142</ele>
        <time>2026-07-07T13:44:53.352Z</time>
      </trkpt>
      <trkpt lat="49.49187" lon="1.07497">
        <ele>142</ele>
        <time>2026-07-07T13:44:57.593Z</time>
      </trkpt>
      <trkpt lat="49.49186" lon="1.07505">
        <ele>142</ele>
        <time>2026-07-07T13:45:01.632Z</time>
      </trkpt>
      <trkpt lat="49.49185" lon="1.07512">
        <ele>142</ele>
        <time>2026-07-07T13:45:05.750Z</time>
      </trkpt>
      <trkpt lat="49.49184" lon="1.0752">
        <ele>142</ele>
        <time>2026-07-07T13:45:09.850Z</time>
      </trkpt>
      <trkpt lat="49.49183" lon="1.07528">
        <ele>142</ele>
        <time>2026-07-07T13:45:13.987Z</time>
      </trkpt>
      <trkpt lat="49.49182" lon="1.07536">
        <ele>142</ele>
        <time>2026-07-07T13:45:18.069Z</time>
      </trkpt>
      <trkpt lat="49.4918" lon="1.07543">
        <ele>140</ele>
        <time>2026-07-07T13:45:22.187Z</time>
      </trkpt>
      <trkpt lat="49.4918" lon="1.07549">
        <ele>140</ele>
        <time>2026-07-07T13:45:26.336Z</time>
      </trkpt>
      <trkpt lat="49.49179" lon="1.07557">
        <ele>140</ele>
        <time>2026-07-07T13:45:30.636Z</time>
      </trkpt>
      <trkpt lat="49.49178" lon="1.07563">
        <ele>140</ele>
        <time>2026-07-07T13:45:34.709Z</time>
      </trkpt>
      <trkpt lat="49.49177" lon="1.0757">
        <ele>141</ele>
        <time>2026-07-07T13:45:38.792Z</time>
      </trkpt>
      <trkpt lat="49.49176" lon="1.07576">
        <ele>141</ele>
        <time>2026-07-07T13:45:42.989Z</time>
      </trkpt>
      <trkpt lat="49.49175" lon="1.07583">
        <ele>141</ele>
        <time>2026-07-07T13:45:47.291Z</time>
      </trkpt>
      <trkpt lat="49.49173" lon="1.0759">
        <ele>141</ele>
        <time>2026-07-07T13:45:51.335Z</time>
      </trkpt>
      <trkpt lat="49.49172" lon="1.07597">
        <ele>141</ele>
        <time>2026-07-07T13:45:55.528Z</time>
      </trkpt>
      <trkpt lat="49.49171" lon="1.07604">
        <ele>140</ele>
        <time>2026-07-07T13:45:59.672Z</time>
      </trkpt>
      <trkpt lat="49.4917" lon="1.07612">
        <ele>140</ele>
        <time>2026-07-07T13:46:03.948Z</time>
      </trkpt>
      <trkpt lat="49.49169" lon="1.07619">
        <ele>140</ele>
        <time>2026-07-07T13:46:08.154Z</time>
      </trkpt>
      <trkpt lat="49.49168" lon="1.07627">
        <ele>141</ele>
        <time>2026-07-07T13:46:12.335Z</time>
      </trkpt>
      <trkpt lat="49.49167" lon="1.07636">
        <ele>141</ele>
        <time>2026-07-07T13:46:16.574Z</time>
      </trkpt>
      <trkpt lat="49.49166" lon="1.07644">
        <ele>141</ele>
        <time>2026-07-07T13:46:20.754Z</time>
      </trkpt>
      <trkpt lat="49.49165" lon="1.07651">
        <ele>141</ele>
        <time>2026-07-07T13:46:25.052Z</time>
      </trkpt>
      <trkpt lat="49.49164" lon="1.07659">
        <ele>141</ele>
        <time>2026-07-07T13:46:29.289Z</time>
      </trkpt>
      <trkpt lat="49.49163" lon="1.07666">
        <ele>141</ele>
        <time>2026-07-07T13:46:33.530Z</time>
      </trkpt>
      <trkpt lat="49.49159" lon="1.0767">
        <ele>141</ele>
        <time>2026-07-07T13:48:33.911Z</time>
      </trkpt>
      <trkpt lat="49.49157" lon="1.07674">
        <ele>141</ele>
        <time>2026-07-07T13:48:38.267Z</time>
      </trkpt>
      <trkpt lat="49.49155" lon="1.07683">
        <ele>142</ele>
        <time>2026-07-07T13:48:42.536Z</time>
      </trkpt>
      <trkpt lat="49.49154" lon="1.07691">
        <ele>142</ele>
        <time>2026-07-07T13:48:46.671Z</time>
      </trkpt>
      <trkpt lat="49.49153" lon="1.07699">
        <ele>137</ele>
        <time>2026-07-07T13:48:50.850Z</time>
      </trkpt>
      <trkpt lat="49.49151" lon="1.07707">
        <ele>137</ele>
        <time>2026-07-07T13:48:54.950Z</time>
      </trkpt>
      <trkpt lat="49.49151" lon="1.07712">
        <ele>139</ele>
        <time>2026-07-07T13:48:59.086Z</time>
      </trkpt>
      <trkpt lat="49.49151" lon="1.07721">
        <ele>139</ele>
        <time>2026-07-07T13:49:03.213Z</time>
      </trkpt>
      <trkpt lat="49.49151" lon="1.07729">
        <ele>139</ele>
        <time>2026-07-07T13:49:07.335Z</time>
      </trkpt>
      <trkpt lat="49.4915" lon="1.07738">
        <ele>139</ele>
        <time>2026-07-07T13:49:11.827Z</time>
      </trkpt>
      <trkpt lat="49.4915" lon="1.07745">
        <ele>139</ele>
        <time>2026-07-07T13:49:15.928Z</time>
      </trkpt>
      <trkpt lat="49.49149" lon="1.07752">
        <ele>139</ele>
        <time>2026-07-07T13:49:20.248Z</time>
      </trkpt>
      <trkpt lat="49.49148" lon="1.07759">
        <ele>139</ele>
        <time>2026-07-07T13:49:24.336Z</time>
      </trkpt>
      <trkpt lat="49.49147" lon="1.07766">
        <ele>140</ele>
        <time>2026-07-07T13:49:28.669Z</time>
      </trkpt>
      <trkpt lat="49.49146" lon="1.07773">
        <ele>140</ele>
        <time>2026-07-07T13:49:33.055Z</time>
      </trkpt>
      <trkpt lat="49.49146" lon="1.0778">
        <ele>140</ele>
        <time>2026-07-07T13:49:37.335Z</time>
      </trkpt>
      <trkpt lat="49.49144" lon="1.07786">
        <ele>140</ele>
        <time>2026-07-07T13:49:41.550Z</time>
      </trkpt>
      <trkpt lat="49.49143" lon="1.07793">
        <ele>140</ele>
        <time>2026-07-07T13:49:45.967Z</time>
      </trkpt>
      <trkpt lat="49.4914" lon="1.07798">
        <ele>140</ele>
        <time>2026-07-07T13:49:50.017Z</time>
      </trkpt>
      <trkpt lat="49.49139" lon="1.07804">
        <ele>140</ele>
        <time>2026-07-07T13:49:54.291Z</time>
      </trkpt>
      <trkpt lat="49.49139" lon="1.07812">
        <ele>140</ele>
        <time>2026-07-07T13:49:58.689Z</time>
      </trkpt>
      <trkpt lat="49.49138" lon="1.07819">
        <ele>140</ele>
        <time>2026-07-07T13:50:03.066Z</time>
      </trkpt>
      <trkpt lat="49.49137" lon="1.07826">
        <ele>141</ele>
        <time>2026-07-07T13:50:07.335Z</time>
      </trkpt>
      <trkpt lat="49.49134" lon="1.07832">
        <ele>141</ele>
        <time>2026-07-07T13:50:11.836Z</time>
      </trkpt>
      <trkpt lat="49.49133" lon="1.07838">
        <ele>141</ele>
        <time>2026-07-07T13:50:16.111Z</time>
      </trkpt>
      <trkpt lat="49.49132" lon="1.07845">
        <ele>141</ele>
        <time>2026-07-07T13:50:20.335Z</time>
      </trkpt>
      <trkpt lat="49.49132" lon="1.07851">
        <ele>142</ele>
        <time>2026-07-07T13:50:24.690Z</time>
      </trkpt>
      <trkpt lat="49.49131" lon="1.07858">
        <ele>142</ele>
        <time>2026-07-07T13:50:28.948Z</time>
      </trkpt>
      <trkpt lat="49.4913" lon="1.07862">
        <ele>142</ele>
        <time>2026-07-07T13:50:33.335Z</time>
      </trkpt>
      <trkpt lat="49.49129" lon="1.07868">
        <ele>142</ele>
        <time>2026-07-07T13:50:37.808Z</time>
      </trkpt>
      <trkpt lat="49.49129" lon="1.07874">
        <ele>142</ele>
        <time>2026-07-07T13:50:41.821Z</time>
      </trkpt>
      <trkpt lat="49.49128" lon="1.07882">
        <ele>143</ele>
        <time>2026-07-07T13:50:46.335Z</time>
      </trkpt>
      <trkpt lat="49.49127" lon="1.07889">
        <ele>143</ele>
        <time>2026-07-07T13:50:50.891Z</time>
      </trkpt>
      <trkpt lat="49.49127" lon="1.07895">
        <ele>143</ele>
        <time>2026-07-07T13:50:54.973Z</time>
      </trkpt>
      <trkpt lat="49.49125" lon="1.07902">
        <ele>143</ele>
        <time>2026-07-07T13:50:59.171Z</time>
      </trkpt>
      <trkpt lat="49.49124" lon="1.07909">
        <ele>146</ele>
        <time>2026-07-07T13:51:03.336Z</time>
      </trkpt>
      <trkpt lat="49.49123" lon="1.07916">
        <ele>146</ele>
        <time>2026-07-07T13:51:07.653Z</time>
      </trkpt>
      <trkpt lat="49.49121" lon="1.07921">
        <ele>146</ele>
        <time>2026-07-07T13:51:11.870Z</time>
      </trkpt>
      <trkpt lat="49.4912" lon="1.07929">
        <ele>146</ele>
        <time>2026-07-07T13:51:16.336Z</time>
      </trkpt>
      <trkpt lat="49.49119" lon="1.07937">
        <ele>147</ele>
        <time>2026-07-07T13:51:20.710Z</time>
      </trkpt>
      <trkpt lat="49.49119" lon="1.07944">
        <ele>147</ele>
        <time>2026-07-07T13:51:25.267Z</time>
      </trkpt>
      <trkpt lat="49.49118" lon="1.07949">
        <ele>147</ele>
        <time>2026-07-07T13:51:29.336Z</time>
      </trkpt>
      <trkpt lat="49.49117" lon="1.07956">
        <ele>147</ele>
        <time>2026-07-07T13:51:33.969Z</time>
      </trkpt>
      <trkpt lat="49.49116" lon="1.07961">
        <ele>145</ele>
        <time>2026-07-07T13:51:38.148Z</time>
      </trkpt>
      <trkpt lat="49.49115" lon="1.07966">
        <ele>145</ele>
        <time>2026-07-07T13:51:42.335Z</time>
      </trkpt>
      <trkpt lat="49.49114" lon="1.07972">
        <ele>145</ele>
        <time>2026-07-07T13:51:46.335Z</time>
      </trkpt>
      <trkpt lat="49.49114" lon="1.07978">
        <ele>145</ele>
        <time>2026-07-07T13:51:50.688Z</time>
      </trkpt>
      <trkpt lat="49.49113" lon="1.07984">
        <ele>145</ele>
        <time>2026-07-07T13:51:54.788Z</time>
      </trkpt>
      <trkpt lat="49.49112" lon="1.07989">
        <ele>143</ele>
        <time>2026-07-07T13:51:58.828Z</time>
      </trkpt>
      <trkpt lat="49.4911" lon="1.07994">
        <ele>143</ele>
        <time>2026-07-07T13:52:02.893Z</time>
      </trkpt>
      <trkpt lat="49.4911" lon="1.07999">
        <ele>143</ele>
        <time>2026-07-07T13:52:07.011Z</time>
      </trkpt>
      <trkpt lat="49.49111" lon="1.08006">
        <ele>143</ele>
        <time>2026-07-07T13:52:11.053Z</time>
      </trkpt>
      <trkpt lat="49.49112" lon="1.08013">
        <ele>143</ele>
        <time>2026-07-07T13:52:15.669Z</time>
      </trkpt>
      <trkpt lat="49.49114" lon="1.08019">
        <ele>144</ele>
        <time>2026-07-07T13:52:20.174Z</time>
      </trkpt>
      <trkpt lat="49.49114" lon="1.08025">
        <ele>144</ele>
        <time>2026-07-07T13:52:24.608Z</time>
      </trkpt>
      <trkpt lat="49.49115" lon="1.08031">
        <ele>144</ele>
        <time>2026-07-07T13:52:28.673Z</time>
      </trkpt>
      <trkpt lat="49.49115" lon="1.08035">
        <ele>144</ele>
        <time>2026-07-07T13:52:33.334Z</time>
      </trkpt>
      <trkpt lat="49.49116" lon="1.08033">
        <ele>144</ele>
        <time>2026-07-07T13:52:38.334Z</time>
      </trkpt>
      <trkpt lat="49.49116" lon="1.08035">
        <ele>144</ele>
        <time>2026-07-07T13:52:42.951Z</time>
      </trkpt>
      <trkpt lat="49.49117" lon="1.08045">
        <ele>146</ele>
        <time>2026-07-07T13:52:47.332Z</time>
      </trkpt>
      <trkpt lat="49.49117" lon="1.08056">
        <ele>146</ele>
        <time>2026-07-07T13:52:51.968Z</time>
      </trkpt>
      <trkpt lat="49.49116" lon="1.08064">
        <ele>146</ele>
        <time>2026-07-07T13:52:56.070Z</time>
      </trkpt>
      <trkpt lat="49.49117" lon="1.08071">
        <ele>149</ele>
        <time>2026-07-07T13:53:00.073Z</time>
      </trkpt>
      <trkpt lat="49.49118" lon="1.08079">
        <ele>149</ele>
        <time>2026-07-07T13:53:04.710Z</time>
      </trkpt>
      <trkpt lat="49.4912" lon="1.08085">
        <ele>149</ele>
        <time>2026-07-07T13:53:08.767Z</time>
      </trkpt>
      <trkpt lat="49.49121" lon="1.08089">
        <ele>149</ele>
        <time>2026-07-07T13:53:13.237Z</time>
      </trkpt>
      <trkpt lat="49.49121" lon="1.0809">
        <ele>149</ele>
        <time>2026-07-07T13:53:18.012Z</time>
      </trkpt>
      <trkpt lat="49.49123" lon="1.08098">
        <ele>151</ele>
        <time>2026-07-07T13:53:22.335Z</time>
      </trkpt>
      <trkpt lat="49.49124" lon="1.08107">
        <ele>151</ele>
        <time>2026-07-07T13:53:26.987Z</time>
      </trkpt>
      <trkpt lat="49.49123" lon="1.08114">
        <ele>151</ele>
        <time>2026-07-07T13:53:31.334Z</time>
      </trkpt>
      <trkpt lat="49.49122" lon="1.08121">
        <ele>151</ele>
        <time>2026-07-07T13:53:35.680Z</time>
      </trkpt>
      <trkpt lat="49.49121" lon="1.08128">
        <ele>153</ele>
        <time>2026-07-07T13:53:40.176Z</time>
      </trkpt>
      <trkpt lat="49.49126" lon="1.08136">
        <ele>152</ele>
        <time>2026-07-07T13:53:45.092Z</time>
      </trkpt>
      <trkpt lat="49.49128" lon="1.08143">
        <ele>152</ele>
        <time>2026-07-07T13:53:49.254Z</time>
      </trkpt>
      <trkpt lat="49.49127" lon="1.08149">
        <ele>152</ele>
        <time>2026-07-07T13:53:53.469Z</time>
      </trkpt>
      <trkpt lat="49.49126" lon="1.08155">
        <ele>155</ele>
        <time>2026-07-07T13:53:57.727Z</time>
      </trkpt>
      <trkpt lat="49.49126" lon="1.08162">
        <ele>155</ele>
        <time>2026-07-07T13:54:01.968Z</time>
      </trkpt>
      <trkpt lat="49.49127" lon="1.0817">
        <ele>155</ele>
        <time>2026-07-07T13:54:06.148Z</time>
      </trkpt>
      <trkpt lat="49.49127" lon="1.08176">
        <ele>155</ele>
        <time>2026-07-07T13:54:10.334Z</time>
      </trkpt>
      <trkpt lat="49.49126" lon="1.08182">
        <ele>158</ele>
        <time>2026-07-07T13:54:14.569Z</time>
      </trkpt>
      <trkpt lat="49.49127" lon="1.08189">
        <ele>158</ele>
        <time>2026-07-07T13:54:18.889Z</time>
      </trkpt>
      <trkpt lat="49.49128" lon="1.08196">
        <ele>158</ele>
        <time>2026-07-07T13:54:23.149Z</time>
      </trkpt>
      <trkpt lat="49.49129" lon="1.08203">
        <ele>158</ele>
        <time>2026-07-07T13:54:27.334Z</time>
      </trkpt>
      <trkpt lat="49.4913" lon="1.08211">
        <ele>159</ele>
        <time>2026-07-07T13:54:31.790Z</time>
      </trkpt>
      <trkpt lat="49.4913" lon="1.08218">
        <ele>159</ele>
        <time>2026-07-07T13:54:36.052Z</time>
      </trkpt>
      <trkpt lat="49.49131" lon="1.08227">
        <ele>159</ele>
        <time>2026-07-07T13:54:40.334Z</time>
      </trkpt>
      <trkpt lat="49.49132" lon="1.08235">
        <ele>159</ele>
        <time>2026-07-07T13:54:44.688Z</time>
      </trkpt>
      <trkpt lat="49.49132" lon="1.08242">
        <ele>159</ele>
        <time>2026-07-07T13:54:48.972Z</time>
      </trkpt>
      <trkpt lat="49.49132" lon="1.08249">
        <ele>159</ele>
        <time>2026-07-07T13:54:53.334Z</time>
      </trkpt>
      <trkpt lat="49.49134" lon="1.08251">
        <ele>159</ele>
        <time>2026-07-07T13:54:57.771Z</time>
      </trkpt>
      <trkpt lat="49.49136" lon="1.08259">
        <ele>159</ele>
        <time>2026-07-07T13:55:02.012Z</time>
      </trkpt>
      <trkpt lat="49.49137" lon="1.08266">
        <ele>159</ele>
        <time>2026-07-07T13:55:06.334Z</time>
      </trkpt>
      <trkpt lat="49.49138" lon="1.08274">
        <ele>159</ele>
        <time>2026-07-07T13:55:10.670Z</time>
      </trkpt>
      <trkpt lat="49.49138" lon="1.08281">
        <ele>159</ele>
        <time>2026-07-07T13:55:15.113Z</time>
      </trkpt>
      <trkpt lat="49.4914" lon="1.08287">
        <ele>159</ele>
        <time>2026-07-07T13:55:19.609Z</time>
      </trkpt>
      <trkpt lat="49.49139" lon="1.08293">
        <ele>159</ele>
        <time>2026-07-07T13:55:23.867Z</time>
      </trkpt>
      <trkpt lat="49.49138" lon="1.083">
        <ele>159</ele>
        <time>2026-07-07T13:55:28.134Z</time>
      </trkpt>
      <trkpt lat="49.49139" lon="1.08309">
        <ele>159</ele>
        <time>2026-07-07T13:55:32.507Z</time>
      </trkpt>
      <trkpt lat="49.49139" lon="1.08317">
        <ele>159</ele>
        <time>2026-07-07T13:55:36.932Z</time>
      </trkpt>
      <trkpt lat="49.49139" lon="1.08324">
        <ele>159</ele>
        <time>2026-07-07T13:55:41.209Z</time>
      </trkpt>
      <trkpt lat="49.4914" lon="1.08331">
        <ele>159</ele>
        <time>2026-07-07T13:55:45.494Z</time>
      </trkpt>
      <trkpt lat="49.4914" lon="1.08338">
        <ele>159</ele>
        <time>2026-07-07T13:55:49.709Z</time>
      </trkpt>
      <trkpt lat="49.4914" lon="1.08346">
        <ele>159</ele>
        <time>2026-07-07T13:55:53.935Z</time>
      </trkpt>
      <trkpt lat="49.49141" lon="1.08352">
        <ele>160</ele>
        <time>2026-07-07T13:55:58.190Z</time>
      </trkpt>
      <trkpt lat="49.49142" lon="1.0836">
        <ele>160</ele>
        <time>2026-07-07T13:56:02.528Z</time>
      </trkpt>
      <trkpt lat="49.49143" lon="1.08368">
        <ele>160</ele>
        <time>2026-07-07T13:56:06.874Z</time>
      </trkpt>
      <trkpt lat="49.49144" lon="1.08375">
        <ele>161</ele>
        <time>2026-07-07T13:56:11.107Z</time>
      </trkpt>
      <trkpt lat="49.49144" lon="1.08383">
        <ele>161</ele>
        <time>2026-07-07T13:56:15.335Z</time>
      </trkpt>
      <trkpt lat="49.49144" lon="1.08386">
        <ele>161</ele>
        <time>2026-07-07T13:56:19.649Z</time>
      </trkpt>
      <trkpt lat="49.4914" lon="1.08392">
        <ele>161</ele>
        <time>2026-07-07T14:13:53.331Z</time>
      </trkpt>
      <trkpt lat="49.4914" lon="1.08392">
        <ele>161</ele>
        <time>2026-07-07T14:13:58.332Z</time>
      </trkpt>
      <trkpt lat="49.4914" lon="1.08393">
        <ele>161</ele>
        <time>2026-07-07T14:14:03.331Z</time>
      </trkpt>
      <trkpt lat="49.49134" lon="1.08393">
        <ele>161</ele>
        <time>2026-07-07T14:14:07.634Z</time>
      </trkpt>
      <trkpt lat="49.49129" lon="1.08393">
        <ele>161</ele>
        <time>2026-07-07T14:14:11.736Z</time>
      </trkpt>
      <trkpt lat="49.49123" lon="1.0839">
        <ele>160</ele>
        <time>2026-07-07T14:14:16.028Z</time>
      </trkpt>
      <trkpt lat="49.49118" lon="1.08387">
        <ele>160</ele>
        <time>2026-07-07T14:14:20.033Z</time>
      </trkpt>
      <trkpt lat="49.49112" lon="1.08384">
        <ele>160</ele>
        <time>2026-07-07T14:14:24.057Z</time>
      </trkpt>
      <trkpt lat="49.49108" lon="1.08382">
        <ele>160</ele>
        <time>2026-07-07T14:14:28.653Z</time>
      </trkpt>
      <trkpt lat="49.49103" lon="1.08378">
        <ele>160</ele>
        <time>2026-07-07T14:14:33.332Z</time>
      </trkpt>
      <trkpt lat="49.49098" lon="1.08375">
        <ele>160</ele>
        <time>2026-07-07T14:14:37.953Z</time>
      </trkpt>
      <trkpt lat="49.49093" lon="1.08373">
        <ele>160</ele>
        <time>2026-07-07T14:14:42.211Z</time>
      </trkpt>
      <trkpt lat="49.49088" lon="1.08372">
        <ele>160</ele>
        <time>2026-07-07T14:14:46.708Z</time>
      </trkpt>
      <trkpt lat="49.49083" lon="1.0837">
        <ele>160</ele>
        <time>2026-07-07T14:14:50.789Z</time>
      </trkpt>
      <trkpt lat="49.49079" lon="1.08368">
        <ele>160</ele>
        <time>2026-07-07T14:14:54.890Z</time>
      </trkpt>
      <trkpt lat="49.49075" lon="1.08366">
        <ele>160</ele>
        <time>2026-07-07T14:14:59.309Z</time>
      </trkpt>
      <trkpt lat="49.4907" lon="1.08365">
        <ele>160</ele>
        <time>2026-07-07T14:15:03.907Z</time>
      </trkpt>
      <trkpt lat="49.49066" lon="1.08363">
        <ele>160</ele>
        <time>2026-07-07T14:15:08.069Z</time>
      </trkpt>
      <trkpt lat="49.49062" lon="1.08361">
        <ele>160</ele>
        <time>2026-07-07T14:15:12.231Z</time>
      </trkpt>
      <trkpt lat="49.49057" lon="1.08358">
        <ele>160</ele>
        <time>2026-07-07T14:15:16.832Z</time>
      </trkpt>
      <trkpt lat="49.49052" lon="1.08357">
        <ele>160</ele>
        <time>2026-07-07T14:15:20.872Z</time>
      </trkpt>
      <trkpt lat="49.49048" lon="1.08356">
        <ele>160</ele>
        <time>2026-07-07T14:15:25.008Z</time>
      </trkpt>
      <trkpt lat="49.49043" lon="1.08354">
        <ele>160</ele>
        <time>2026-07-07T14:15:29.107Z</time>
      </trkpt>
      <trkpt lat="49.49039" lon="1.08353">
        <ele>157</ele>
        <time>2026-07-07T14:15:33.173Z</time>
      </trkpt>
      <trkpt lat="49.49035" lon="1.08352">
        <ele>157</ele>
        <time>2026-07-07T14:15:37.195Z</time>
      </trkpt>
      <trkpt lat="49.49029" lon="1.08349">
        <ele>157</ele>
        <time>2026-07-07T14:15:41.769Z</time>
      </trkpt>
      <trkpt lat="49.49024" lon="1.08347">
        <ele>157</ele>
        <time>2026-07-07T14:15:45.931Z</time>
      </trkpt>
      <trkpt lat="49.49019" lon="1.08347">
        <ele>158</ele>
        <time>2026-07-07T14:15:50.093Z</time>
      </trkpt>
      <trkpt lat="49.49014" lon="1.08346">
        <ele>158</ele>
        <time>2026-07-07T14:15:54.211Z</time>
      </trkpt>
      <trkpt lat="49.4901" lon="1.08344">
        <ele>155</ele>
        <time>2026-07-07T14:15:58.795Z</time>
      </trkpt>
      <trkpt lat="49.49005" lon="1.08343">
        <ele>155</ele>
        <time>2026-07-07T14:16:02.871Z</time>
      </trkpt>
      <trkpt lat="49.49" lon="1.08341">
        <ele>155</ele>
        <time>2026-07-07T14:16:07.060Z</time>
      </trkpt>
      <trkpt lat="49.48996" lon="1.0834">
        <ele>155</ele>
        <time>2026-07-07T14:16:11.308Z</time>
      </trkpt>
      <trkpt lat="49.48992" lon="1.08337">
        <ele>155</ele>
        <time>2026-07-07T14:16:15.331Z</time>
      </trkpt>
      <trkpt lat="49.48988" lon="1.08333">
        <ele>155</ele>
        <time>2026-07-07T14:16:19.753Z</time>
      </trkpt>
      <trkpt lat="49.48984" lon="1.0833">
        <ele>152</ele>
        <time>2026-07-07T14:16:24.170Z</time>
      </trkpt>
      <trkpt lat="49.4898" lon="1.08328">
        <ele>152</ele>
        <time>2026-07-07T14:16:28.771Z</time>
      </trkpt>
      <trkpt lat="49.48975" lon="1.08327">
        <ele>152</ele>
        <time>2026-07-07T14:16:32.968Z</time>
      </trkpt>
      <trkpt lat="49.48972" lon="1.08327">
        <ele>152</ele>
        <time>2026-07-07T14:16:37.130Z</time>
      </trkpt>
      <trkpt lat="49.48967" lon="1.08325">
        <ele>152</ele>
        <time>2026-07-07T14:16:41.247Z</time>
      </trkpt>
      <trkpt lat="49.48964" lon="1.08323">
        <ele>152</ele>
        <time>2026-07-07T14:16:45.331Z</time>
      </trkpt>
      <trkpt lat="49.48959" lon="1.08319">
        <ele>152</ele>
        <time>2026-07-07T14:16:50.274Z</time>
      </trkpt>
      <trkpt lat="49.48955" lon="1.08318">
        <ele>147</ele>
        <time>2026-07-07T14:16:54.427Z</time>
      </trkpt>
      <trkpt lat="49.48951" lon="1.08316">
        <ele>147</ele>
        <time>2026-07-07T14:16:58.968Z</time>
      </trkpt>
      <trkpt lat="49.48947" lon="1.08314">
        <ele>147</ele>
        <time>2026-07-07T14:17:03.007Z</time>
      </trkpt>
      <trkpt lat="49.48943" lon="1.08315">
        <ele>147</ele>
        <time>2026-07-07T14:17:07.332Z</time>
      </trkpt>
      <trkpt lat="49.48939" lon="1.08314">
        <ele>147</ele>
        <time>2026-07-07T14:17:11.769Z</time>
      </trkpt>
      <trkpt lat="49.48934" lon="1.08312">
        <ele>147</ele>
        <time>2026-07-07T14:17:16.167Z</time>
      </trkpt>
      <trkpt lat="49.48931" lon="1.08309">
        <ele>147</ele>
        <time>2026-07-07T14:17:20.208Z</time>
      </trkpt>
      <trkpt lat="49.48928" lon="1.08306">
        <ele>140</ele>
        <time>2026-07-07T14:17:24.332Z</time>
      </trkpt>
      <trkpt lat="49.48924" lon="1.08305">
        <ele>140</ele>
        <time>2026-07-07T14:17:28.408Z</time>
      </trkpt>
      <trkpt lat="49.4892" lon="1.08302">
        <ele>140</ele>
        <time>2026-07-07T14:17:32.614Z</time>
      </trkpt>
      <trkpt lat="49.48916" lon="1.083">
        <ele>140</ele>
        <time>2026-07-07T14:17:36.750Z</time>
      </trkpt>
      <trkpt lat="49.48913" lon="1.08299">
        <ele>140</ele>
        <time>2026-07-07T14:17:40.990Z</time>
      </trkpt>
      <trkpt lat="49.48909" lon="1.08296">
        <ele>140</ele>
        <time>2026-07-07T14:17:45.152Z</time>
      </trkpt>
      <trkpt lat="49.48906" lon="1.08294">
        <ele>140</ele>
        <time>2026-07-07T14:17:49.331Z</time>
      </trkpt>
      <trkpt lat="49.48902" lon="1.08292">
        <ele>132</ele>
        <time>2026-07-07T14:17:54.074Z</time>
      </trkpt>
      <trkpt lat="49.48901" lon="1.08291">
        <ele>132</ele>
        <time>2026-07-07T14:17:58.331Z</time>
      </trkpt>
      <trkpt lat="49.489" lon="1.08291">
        <ele>132</ele>
        <time>2026-07-07T14:18:02.768Z</time>
      </trkpt>
      <trkpt lat="49.48896" lon="1.08288">
        <ele>132</ele>
        <time>2026-07-07T14:18:06.928Z</time>
      </trkpt>
      <trkpt lat="49.48892" lon="1.08285">
        <ele>132</ele>
        <time>2026-07-07T14:18:11.331Z</time>
      </trkpt>
      <trkpt lat="49.4889" lon="1.08283">
        <ele>132</ele>
        <time>2026-07-07T14:18:15.331Z</time>
      </trkpt>
      <trkpt lat="49.48886" lon="1.08282">
        <ele>132</ele>
        <time>2026-07-07T14:18:19.950Z</time>
      </trkpt>
      <trkpt lat="49.48884" lon="1.08282">
        <ele>132</ele>
        <time>2026-07-07T14:18:23.972Z</time>
      </trkpt>
      <trkpt lat="49.48881" lon="1.0828">
        <ele>132</ele>
        <time>2026-07-07T14:18:28.072Z</time>
      </trkpt>
      <trkpt lat="49.48878" lon="1.08279">
        <ele>132</ele>
        <time>2026-07-07T14:18:32.673Z</time>
      </trkpt>
      <trkpt lat="49.48875" lon="1.08278">
        <ele>132</ele>
        <time>2026-07-07T14:18:36.809Z</time>
      </trkpt>
      <trkpt lat="49.48873" lon="1.08277">
        <ele>124</ele>
        <time>2026-07-07T14:18:41.331Z</time>
      </trkpt>
      <trkpt lat="49.4887" lon="1.08278">
        <ele>124</ele>
        <time>2026-07-07T14:18:45.608Z</time>
      </trkpt>
      <trkpt lat="49.48867" lon="1.08278">
        <ele>124</ele>
        <time>2026-07-07T14:18:49.848Z</time>
      </trkpt>
      <trkpt lat="49.48864" lon="1.08276">
        <ele>124</ele>
        <time>2026-07-07T14:18:54.331Z</time>
      </trkpt>
      <trkpt lat="49.48861" lon="1.08275">
        <ele>124</ele>
        <time>2026-07-07T14:18:59.289Z</time>
      </trkpt>
      <trkpt lat="49.48858" lon="1.08275">
        <ele>124</ele>
        <time>2026-07-07T14:19:03.950Z</time>
      </trkpt>
      <trkpt lat="49.48856" lon="1.08275">
        <ele>124</ele>
        <time>2026-07-07T14:19:08.331Z</time>
      </trkpt>
      <trkpt lat="49.48853" lon="1.08277">
        <ele>124</ele>
        <time>2026-07-07T14:19:12.555Z</time>
      </trkpt>
      <trkpt lat="49.4885" lon="1.08277">
        <ele>124</ele>
        <time>2026-07-07T14:19:16.629Z</time>
      </trkpt>
      <trkpt lat="49.48846" lon="1.08275">
        <ele>119</ele>
        <time>2026-07-07T14:19:20.667Z</time>
      </trkpt>
      <trkpt lat="49.48843" lon="1.08274">
        <ele>119</ele>
        <time>2026-07-07T14:19:25.172Z</time>
      </trkpt>
      <trkpt lat="49.4884" lon="1.08272">
        <ele>119</ele>
        <time>2026-07-07T14:19:29.529Z</time>
      </trkpt>
      <trkpt lat="49.48837" lon="1.08271">
        <ele>119</ele>
        <time>2026-07-07T14:19:34.330Z</time>
      </trkpt>
      <trkpt lat="49.48835" lon="1.08267">
        <ele>119</ele>
        <time>2026-07-07T14:19:48.028Z</time>
      </trkpt>
      <trkpt lat="49.48832" lon="1.08266">
        <ele>119</ele>
        <time>2026-07-07T14:19:52.673Z</time>
      </trkpt>
      <trkpt lat="49.48829" lon="1.08265">
        <ele>119</ele>
        <time>2026-07-07T14:19:56.993Z</time>
      </trkpt>
      <trkpt lat="49.48826" lon="1.08266">
        <ele>119</ele>
        <time>2026-07-07T14:20:01.569Z</time>
      </trkpt>
      <trkpt lat="49.48825" lon="1.08265">
        <ele>119</ele>
        <time>2026-07-07T14:20:05.668Z</time>
      </trkpt>
      <trkpt lat="49.48823" lon="1.0827">
        <ele>119</ele>
        <time>2026-07-07T14:24:19.330Z</time>
      </trkpt>
      <trkpt lat="49.48823" lon="1.0827">
        <ele>119</ele>
        <time>2026-07-07T14:24:33.115Z</time>
      </trkpt>
      <trkpt lat="49.48823" lon="1.08275">
        <ele>119</ele>
        <time>2026-07-07T14:24:37.654Z</time>
      </trkpt>
      <trkpt lat="49.48824" lon="1.08283">
        <ele>119</ele>
        <time>2026-07-07T14:24:42.290Z</time>
      </trkpt>
      <trkpt lat="49.48823" lon="1.08291">
        <ele>119</ele>
        <time>2026-07-07T14:24:46.874Z</time>
      </trkpt>
      <trkpt lat="49.48823" lon="1.08299">
        <ele>118</ele>
        <time>2026-07-07T14:24:51.330Z</time>
      </trkpt>
      <trkpt lat="49.48824" lon="1.08304">
        <ele>118</ele>
        <time>2026-07-07T14:24:55.331Z</time>
      </trkpt>
      <trkpt lat="49.48825" lon="1.08312">
        <ele>118</ele>
        <time>2026-07-07T14:25:00.054Z</time>
      </trkpt>
      <trkpt lat="49.48825" lon="1.08319">
        <ele>118</ele>
        <time>2026-07-07T14:25:04.628Z</time>
      </trkpt>
      <trkpt lat="49.48826" lon="1.08326">
        <ele>117</ele>
        <time>2026-07-07T14:25:09.151Z</time>
      </trkpt>
      <trkpt lat="49.48827" lon="1.08335">
        <ele>117</ele>
        <time>2026-07-07T14:25:13.531Z</time>
      </trkpt>
      <trkpt lat="49.48827" lon="1.08342">
        <ele>117</ele>
        <time>2026-07-07T14:25:17.914Z</time>
      </trkpt>
      <trkpt lat="49.48828" lon="1.0835">
        <ele>117</ele>
        <time>2026-07-07T14:25:22.331Z</time>
      </trkpt>
      <trkpt lat="49.48829" lon="1.08357">
        <ele>117</ele>
        <time>2026-07-07T14:25:26.668Z</time>
      </trkpt>
      <trkpt lat="49.48829" lon="1.08364">
        <ele>117</ele>
        <time>2026-07-07T14:25:31.147Z</time>
      </trkpt>
      <trkpt lat="49.4883" lon="1.08372">
        <ele>117</ele>
        <time>2026-07-07T14:25:35.729Z</time>
      </trkpt>
      <trkpt lat="49.4883" lon="1.08379">
        <ele>114</ele>
        <time>2026-07-07T14:25:40.329Z</time>
      </trkpt>
      <trkpt lat="49.4883" lon="1.08385">
        <ele>114</ele>
        <time>2026-07-07T14:25:44.330Z</time>
      </trkpt>
      <trkpt lat="49.4883" lon="1.08392">
        <ele>114</ele>
        <time>2026-07-07T14:25:48.988Z</time>
      </trkpt>
      <trkpt lat="49.48829" lon="1.08399">
        <ele>114</ele>
        <time>2026-07-07T14:25:53.572Z</time>
      </trkpt>
      <trkpt lat="49.4883" lon="1.08406">
        <ele>114</ele>
        <time>2026-07-07T14:25:58.172Z</time>
      </trkpt>
      <trkpt lat="49.4883" lon="1.08414">
        <ele>114</ele>
        <time>2026-07-07T14:26:02.730Z</time>
      </trkpt>
      <trkpt lat="49.48829" lon="1.08421">
        <ele>114</ele>
        <time>2026-07-07T14:26:07.331Z</time>
      </trkpt>
      <trkpt lat="49.48828" lon="1.08428">
        <ele>114</ele>
        <time>2026-07-07T14:26:11.932Z</time>
      </trkpt>
      <trkpt lat="49.48827" lon="1.08434">
        <ele>114</ele>
        <time>2026-07-07T14:26:16.329Z</time>
      </trkpt>
      <trkpt lat="49.48826" lon="1.0844">
        <ele>114</ele>
        <time>2026-07-07T14:26:20.547Z</time>
      </trkpt>
      <trkpt lat="49.48825" lon="1.08446">
        <ele>114</ele>
        <time>2026-07-07T14:26:24.594Z</time>
      </trkpt>
      <trkpt lat="49.48824" lon="1.0845">
        <ele>114</ele>
        <time>2026-07-07T14:26:29.032Z</time>
      </trkpt>
      <trkpt lat="49.48825" lon="1.08456">
        <ele>114</ele>
        <time>2026-07-07T14:26:33.028Z</time>
      </trkpt>
      <trkpt lat="49.48829" lon="1.08465">
        <ele>116</ele>
        <time>2026-07-07T14:26:37.330Z</time>
      </trkpt>
      <trkpt lat="49.48829" lon="1.08472">
        <ele>116</ele>
        <time>2026-07-07T14:26:41.914Z</time>
      </trkpt>
      <trkpt lat="49.48829" lon="1.0848">
        <ele>116</ele>
        <time>2026-07-07T14:26:46.329Z</time>
      </trkpt>
      <trkpt lat="49.48829" lon="1.08487">
        <ele>119</ele>
        <time>2026-07-07T14:26:51.230Z</time>
      </trkpt>
      <trkpt lat="49.48827" lon="1.08493">
        <ele>119</ele>
        <time>2026-07-07T14:26:55.814Z</time>
      </trkpt>
      <trkpt lat="49.48827" lon="1.08499">
        <ele>119</ele>
        <time>2026-07-07T14:27:00.329Z</time>
      </trkpt>
      <trkpt lat="49.48827" lon="1.08507">
        <ele>119</ele>
        <time>2026-07-07T14:27:04.990Z</time>
      </trkpt>
      <trkpt lat="49.48827" lon="1.08514">
        <ele>122</ele>
        <time>2026-07-07T14:27:09.330Z</time>
      </trkpt>
      <trkpt lat="49.48826" lon="1.08521">
        <ele>122</ele>
        <time>2026-07-07T14:27:13.948Z</time>
      </trkpt>
      <trkpt lat="49.48825" lon="1.08527">
        <ele>122</ele>
        <time>2026-07-07T14:27:17.951Z</time>
      </trkpt>
      <trkpt lat="49.48824" lon="1.08532">
        <ele>122</ele>
        <time>2026-07-07T14:27:22.329Z</time>
      </trkpt>
      <trkpt lat="49.48823" lon="1.08538">
        <ele>122</ele>
        <time>2026-07-07T14:27:26.888Z</time>
      </trkpt>
      <trkpt lat="49.48822" lon="1.08546">
        <ele>125</ele>
        <time>2026-07-07T14:27:31.329Z</time>
      </trkpt>
      <trkpt lat="49.48821" lon="1.08553">
        <ele>125</ele>
        <time>2026-07-07T14:27:35.330Z</time>
      </trkpt>
      <trkpt lat="49.48822" lon="1.08561">
        <ele>125</ele>
        <time>2026-07-07T14:27:39.769Z</time>
      </trkpt>
      <trkpt lat="49.48821" lon="1.08568">
        <ele>125</ele>
        <time>2026-07-07T14:27:44.309Z</time>
      </trkpt>
      <trkpt lat="49.48822" lon="1.08574">
        <ele>127</ele>
        <time>2026-07-07T14:27:49.086Z</time>
      </trkpt>
      <trkpt lat="49.48823" lon="1.0858">
        <ele>127</ele>
        <time>2026-07-07T14:27:53.330Z</time>
      </trkpt>
      <trkpt lat="49.48823" lon="1.08587">
        <ele>127</ele>
        <time>2026-07-07T14:27:57.907Z</time>
      </trkpt>
      <trkpt lat="49.48825" lon="1.08594">
        <ele>127</ele>
        <time>2026-07-07T14:28:02.191Z</time>
      </trkpt>
      <trkpt lat="49.48827" lon="1.086">
        <ele>129</ele>
        <time>2026-07-07T14:28:06.731Z</time>
      </trkpt>
      <trkpt lat="49.48829" lon="1.08608">
        <ele>129</ele>
        <time>2026-07-07T14:28:11.034Z</time>
      </trkpt>
      <trkpt lat="49.48831" lon="1.08612">
        <ele>129</ele>
        <time>2026-07-07T14:28:15.330Z</time>
      </trkpt>
      <trkpt lat="49.4883" lon="1.0862">
        <ele>129</ele>
        <time>2026-07-07T14:28:20.008Z</time>
      </trkpt>
      <trkpt lat="49.4883" lon="1.08627">
        <ele>131</ele>
        <time>2026-07-07T14:28:24.714Z</time>
      </trkpt>
      <trkpt lat="49.48833" lon="1.08633">
        <ele>131</ele>
        <time>2026-07-07T14:28:29.307Z</time>
      </trkpt>
      <trkpt lat="49.48836" lon="1.08639">
        <ele>131</ele>
        <time>2026-07-07T14:28:33.871Z</time>
      </trkpt>
      <trkpt lat="49.48842" lon="1.08645">
        <ele>131</ele>
        <time>2026-07-07T14:28:38.330Z</time>
      </trkpt>
      <trkpt lat="49.48846" lon="1.0865">
        <ele>131</ele>
        <time>2026-07-07T14:28:42.854Z</time>
      </trkpt>
      <trkpt lat="49.4885" lon="1.08656">
        <ele>135</ele>
        <time>2026-07-07T14:28:47.288Z</time>
      </trkpt>
      <trkpt lat="49.48852" lon="1.08662">
        <ele>135</ele>
        <time>2026-07-07T14:28:51.687Z</time>
      </trkpt>
      <trkpt lat="49.48853" lon="1.08668">
        <ele>135</ele>
        <time>2026-07-07T14:28:56.131Z</time>
      </trkpt>
      <trkpt lat="49.48856" lon="1.08673">
        <ele>135</ele>
        <time>2026-07-07T14:29:00.530Z</time>
      </trkpt>
      <trkpt lat="49.48859" lon="1.08677">
        <ele>135</ele>
        <time>2026-07-07T14:29:04.867Z</time>
      </trkpt>
      <trkpt lat="49.48863" lon="1.08682">
        <ele>136</ele>
        <time>2026-07-07T14:29:09.329Z</time>
      </trkpt>
      <trkpt lat="49.48866" lon="1.08688">
        <ele>136</ele>
        <time>2026-07-07T14:29:14.272Z</time>
      </trkpt>
      <trkpt lat="49.48868" lon="1.08695">
        <ele>136</ele>
        <time>2026-07-07T14:29:18.750Z</time>
      </trkpt>
      <trkpt lat="49.4887" lon="1.08701">
        <ele>136</ele>
        <time>2026-07-07T14:29:23.193Z</time>
      </trkpt>
      <trkpt lat="49.48873" lon="1.08708">
        <ele>136</ele>
        <time>2026-07-07T14:29:27.609Z</time>
      </trkpt>
      <trkpt lat="49.48877" lon="1.08714">
        <ele>136</ele>
        <time>2026-07-07T14:29:31.991Z</time>
      </trkpt>
      <trkpt lat="49.4888" lon="1.08719">
        <ele>136</ele>
        <time>2026-07-07T14:29:36.330Z</time>
      </trkpt>
      <trkpt lat="49.48884" lon="1.08724">
        <ele>136</ele>
        <time>2026-07-07T14:29:40.789Z</time>
      </trkpt>
      <trkpt lat="49.48887" lon="1.08729">
        <ele>136</ele>
        <time>2026-07-07T14:29:45.109Z</time>
      </trkpt>
      <trkpt lat="49.48891" lon="1.08735">
        <ele>136</ele>
        <time>2026-07-07T14:29:49.330Z</time>
      </trkpt>
      <trkpt lat="49.48893" lon="1.08739">
        <ele>138</ele>
        <time>2026-07-07T14:29:53.767Z</time>
      </trkpt>
      <trkpt lat="49.48895" lon="1.08746">
        <ele>138</ele>
        <time>2026-07-07T14:29:58.131Z</time>
      </trkpt>
      <trkpt lat="49.48898" lon="1.08754">
        <ele>138</ele>
        <time>2026-07-07T14:30:02.548Z</time>
      </trkpt>
      <trkpt lat="49.48901" lon="1.08759">
        <ele>138</ele>
        <time>2026-07-07T14:30:06.973Z</time>
      </trkpt>
      <trkpt lat="49.48904" lon="1.08764">
        <ele>136</ele>
        <time>2026-07-07T14:30:11.408Z</time>
      </trkpt>
      <trkpt lat="49.48908" lon="1.08768">
        <ele>137</ele>
        <time>2026-07-07T14:30:15.894Z</time>
      </trkpt>
      <trkpt lat="49.48912" lon="1.08773">
        <ele>137</ele>
        <time>2026-07-07T14:30:20.329Z</time>
      </trkpt>
      <trkpt lat="49.48915" lon="1.08779">
        <ele>137</ele>
        <time>2026-07-07T14:30:24.808Z</time>
      </trkpt>
      <trkpt lat="49.48917" lon="1.08786">
        <ele>137</ele>
        <time>2026-07-07T14:30:29.293Z</time>
      </trkpt>
      <trkpt lat="49.48921" lon="1.08793">
        <ele>139</ele>
        <time>2026-07-07T14:30:33.692Z</time>
      </trkpt>
      <trkpt lat="49.48922" lon="1.088">
        <ele>139</ele>
        <time>2026-07-07T14:30:38.012Z</time>
      </trkpt>
      <trkpt lat="49.48922" lon="1.08805">
        <ele>139</ele>
        <time>2026-07-07T14:30:42.113Z</time>
      </trkpt>
      <trkpt lat="49.48926" lon="1.0881">
        <ele>139</ele>
        <time>2026-07-07T14:30:46.329Z</time>
      </trkpt>
      <trkpt lat="49.4893" lon="1.08815">
        <ele>139</ele>
        <time>2026-07-07T14:30:50.569Z</time>
      </trkpt>
      <trkpt lat="49.48932" lon="1.08822">
        <ele>141</ele>
        <time>2026-07-07T14:30:54.809Z</time>
      </trkpt>
      <trkpt lat="49.48934" lon="1.08828">
        <ele>141</ele>
        <time>2026-07-07T14:30:59.227Z</time>
      </trkpt>
      <trkpt lat="49.48936" lon="1.08834">
        <ele>141</ele>
        <time>2026-07-07T14:31:03.607Z</time>
      </trkpt>
      <trkpt lat="49.48937" lon="1.08841">
        <ele>141</ele>
        <time>2026-07-07T14:31:08.033Z</time>
      </trkpt>
      <trkpt lat="49.48939" lon="1.08847">
        <ele>140</ele>
        <time>2026-07-07T14:31:12.291Z</time>
      </trkpt>
      <trkpt lat="49.4894" lon="1.08854">
        <ele>140</ele>
        <time>2026-07-07T14:31:16.673Z</time>
      </trkpt>
      <trkpt lat="49.48941" lon="1.08861">
        <ele>140</ele>
        <time>2026-07-07T14:31:21.168Z</time>
      </trkpt>
      <trkpt lat="49.48942" lon="1.08868">
        <ele>140</ele>
        <time>2026-07-07T14:31:25.594Z</time>
      </trkpt>
      <trkpt lat="49.48942" lon="1.08875">
        <ele>140</ele>
        <time>2026-07-07T14:31:29.914Z</time>
      </trkpt>
      <trkpt lat="49.48942" lon="1.08881">
        <ele>141</ele>
        <time>2026-07-07T14:31:34.234Z</time>
      </trkpt>
      <trkpt lat="49.48941" lon="1.08887">
        <ele>141</ele>
        <time>2026-07-07T14:31:38.589Z</time>
      </trkpt>
      <trkpt lat="49.4894" lon="1.08894">
        <ele>141</ele>
        <time>2026-07-07T14:31:42.989Z</time>
      </trkpt>
      <trkpt lat="49.48938" lon="1.08898">
        <ele>141</ele>
        <time>2026-07-07T14:31:47.133Z</time>
      </trkpt>
      <trkpt lat="49.48937" lon="1.08904">
        <ele>141</ele>
        <time>2026-07-07T14:31:51.532Z</time>
      </trkpt>
      <trkpt lat="49.48936" lon="1.08912">
        <ele>141</ele>
        <time>2026-07-07T14:31:55.835Z</time>
      </trkpt>
      <trkpt lat="49.48936" lon="1.08919">
        <ele>141</ele>
        <time>2026-07-07T14:32:00.207Z</time>
      </trkpt>
      <trkpt lat="49.48938" lon="1.08928">
        <ele>141</ele>
        <time>2026-07-07T14:32:05.088Z</time>
      </trkpt>
      <trkpt lat="49.48938" lon="1.08935">
        <ele>141</ele>
        <time>2026-07-07T14:32:09.329Z</time>
      </trkpt>
      <trkpt lat="49.48938" lon="1.08942">
        <ele>141</ele>
        <time>2026-07-07T14:32:13.773Z</time>
      </trkpt>
      <trkpt lat="49.48937" lon="1.08949">
        <ele>141</ele>
        <time>2026-07-07T14:32:18.111Z</time>
      </trkpt>
      <trkpt lat="49.48938" lon="1.08956">
        <ele>141</ele>
        <time>2026-07-07T14:32:22.328Z</time>
      </trkpt>
      <trkpt lat="49.48938" lon="1.08963">
        <ele>140</ele>
        <time>2026-07-07T14:32:26.909Z</time>
      </trkpt>
      <trkpt lat="49.48938" lon="1.0897">
        <ele>140</ele>
        <time>2026-07-07T14:32:31.328Z</time>
      </trkpt>
      <trkpt lat="49.48939" lon="1.08978">
        <ele>140</ele>
        <time>2026-07-07T14:32:35.847Z</time>
      </trkpt>
      <trkpt lat="49.48939" lon="1.08986">
        <ele>140</ele>
        <time>2026-07-07T14:32:40.194Z</time>
      </trkpt>
      <trkpt lat="49.48939" lon="1.08993">
        <ele>139</ele>
        <time>2026-07-07T14:32:44.328Z</time>
      </trkpt>
      <trkpt lat="49.48938" lon="1.09001">
        <ele>139</ele>
        <time>2026-07-07T14:32:48.711Z</time>
      </trkpt>
      <trkpt lat="49.48936" lon="1.09008">
        <ele>139</ele>
        <time>2026-07-07T14:32:53.189Z</time>
      </trkpt>
      <trkpt lat="49.48935" lon="1.09014">
        <ele>139</ele>
        <time>2026-07-07T14:32:57.913Z</time>
      </trkpt>
      <trkpt lat="49.48934" lon="1.0902">
        <ele>139</ele>
        <time>2026-07-07T14:33:02.233Z</time>
      </trkpt>
      <trkpt lat="49.48934" lon="1.09028">
        <ele>139</ele>
        <time>2026-07-07T14:33:06.553Z</time>
      </trkpt>
      <trkpt lat="49.48934" lon="1.09036">
        <ele>139</ele>
        <time>2026-07-07T14:33:10.811Z</time>
      </trkpt>
      <trkpt lat="49.48935" lon="1.09043">
        <ele>139</ele>
        <time>2026-07-07T14:33:15.149Z</time>
      </trkpt>
      <trkpt lat="49.48936" lon="1.09049">
        <ele>139</ele>
        <time>2026-07-07T14:33:19.329Z</time>
      </trkpt>
      <trkpt lat="49.48937" lon="1.09056">
        <ele>139</ele>
        <time>2026-07-07T14:33:23.728Z</time>
      </trkpt>
      <trkpt lat="49.48939" lon="1.09062">
        <ele>139</ele>
        <time>2026-07-07T14:33:27.750Z</time>
      </trkpt>
      <trkpt lat="49.48941" lon="1.09069">
        <ele>139</ele>
        <time>2026-07-07T14:33:32.008Z</time>
      </trkpt>
      <trkpt lat="49.4894" lon="1.09076">
        <ele>141</ele>
        <time>2026-07-07T14:33:36.328Z</time>
      </trkpt>
      <trkpt lat="49.48939" lon="1.09084">
        <ele>141</ele>
        <time>2026-07-07T14:33:40.692Z</time>
      </trkpt>
      <trkpt lat="49.48938" lon="1.0909">
        <ele>141</ele>
        <time>2026-07-07T14:33:44.934Z</time>
      </trkpt>
      <trkpt lat="49.48936" lon="1.09097">
        <ele>141</ele>
        <time>2026-07-07T14:33:49.209Z</time>
      </trkpt>
      <trkpt lat="49.48936" lon="1.09105">
        <ele>143</ele>
        <time>2026-07-07T14:33:53.628Z</time>
      </trkpt>
      <trkpt lat="49.48934" lon="1.09111">
        <ele>143</ele>
        <time>2026-07-07T14:33:57.789Z</time>
      </trkpt>
      <trkpt lat="49.48933" lon="1.09118">
        <ele>143</ele>
        <time>2026-07-07T14:34:02.092Z</time>
      </trkpt>
      <trkpt lat="49.48933" lon="1.09125">
        <ele>145</ele>
        <time>2026-07-07T14:34:06.113Z</time>
      </trkpt>
      <trkpt lat="49.48933" lon="1.09133">
        <ele>145</ele>
        <time>2026-07-07T14:34:10.548Z</time>
      </trkpt>
      <trkpt lat="49.48936" lon="1.0914">
        <ele>145</ele>
        <time>2026-07-07T14:34:14.972Z</time>
      </trkpt>
      <trkpt lat="49.48937" lon="1.09147">
        <ele>145</ele>
        <time>2026-07-07T14:34:19.213Z</time>
      </trkpt>
      <trkpt lat="49.48939" lon="1.09154">
        <ele>146</ele>
        <time>2026-07-07T14:34:23.630Z</time>
      </trkpt>
      <trkpt lat="49.4894" lon="1.09161">
        <ele>146</ele>
        <time>2026-07-07T14:34:27.950Z</time>
      </trkpt>
      <trkpt lat="49.4894" lon="1.09168">
        <ele>146</ele>
        <time>2026-07-07T14:34:32.331Z</time>
      </trkpt>
      <trkpt lat="49.48941" lon="1.09175">
        <ele>146</ele>
        <time>2026-07-07T14:34:36.669Z</time>
      </trkpt>
      <trkpt lat="49.48941" lon="1.09182">
        <ele>148</ele>
        <time>2026-07-07T14:34:40.927Z</time>
      </trkpt>
      <trkpt lat="49.48942" lon="1.09189">
        <ele>148</ele>
        <time>2026-07-07T14:34:45.275Z</time>
      </trkpt>
      <trkpt lat="49.48944" lon="1.09196">
        <ele>148</ele>
        <time>2026-07-07T14:34:49.597Z</time>
      </trkpt>
      <trkpt lat="49.48946" lon="1.09202">
        <ele>148</ele>
        <time>2026-07-07T14:34:54.011Z</time>
      </trkpt>
      <trkpt lat="49.48949" lon="1.09208">
        <ele>148</ele>
        <time>2026-07-07T14:34:58.252Z</time>
      </trkpt>
      <trkpt lat="49.48952" lon="1.09213">
        <ele>150</ele>
        <time>2026-07-07T14:35:02.573Z</time>
      </trkpt>
      <trkpt lat="49.48956" lon="1.09218">
        <ele>150</ele>
        <time>2026-07-07T14:35:06.928Z</time>
      </trkpt>
      <trkpt lat="49.48959" lon="1.09223">
        <ele>149</ele>
        <time>2026-07-07T14:35:11.309Z</time>
      </trkpt>
      <trkpt lat="49.48963" lon="1.09228">
        <ele>149</ele>
        <time>2026-07-07T14:35:15.673Z</time>
      </trkpt>
      <trkpt lat="49.48967" lon="1.09232">
        <ele>149</ele>
        <time>2026-07-07T14:35:20.152Z</time>
      </trkpt>
      <trkpt lat="49.48971" lon="1.09236">
        <ele>149</ele>
        <time>2026-07-07T14:35:24.629Z</time>
      </trkpt>
      <trkpt lat="49.48975" lon="1.0924">
        <ele>152</ele>
        <time>2026-07-07T14:35:28.870Z</time>
      </trkpt>
      <trkpt lat="49.48979" lon="1.09245">
        <ele>152</ele>
        <time>2026-07-07T14:35:33.207Z</time>
      </trkpt>
      <trkpt lat="49.48983" lon="1.09249">
        <ele>152</ele>
        <time>2026-07-07T14:35:37.468Z</time>
      </trkpt>
      <trkpt lat="49.48987" lon="1.09253">
        <ele>152</ele>
        <time>2026-07-07T14:35:41.910Z</time>
      </trkpt>
      <trkpt lat="49.4899" lon="1.0926">
        <ele>152</ele>
        <time>2026-07-07T14:35:46.328Z</time>
      </trkpt>
      <trkpt lat="49.4899" lon="1.09266">
        <ele>154</ele>
        <time>2026-07-07T14:35:50.328Z</time>
      </trkpt>
      <trkpt lat="49.48991" lon="1.09273">
        <ele>154</ele>
        <time>2026-07-07T14:35:54.827Z</time>
      </trkpt>
      <trkpt lat="49.48998" lon="1.0929">
        <ele>154</ele>
        <time>2026-07-07T14:37:08.992Z</time>
      </trkpt>
      <trkpt lat="49.48998" lon="1.09294">
        <ele>157</ele>
        <time>2026-07-07T14:37:13.328Z</time>
      </trkpt>
      <trkpt lat="49.48995" lon="1.09301">
        <ele>157</ele>
        <time>2026-07-07T14:37:17.527Z</time>
      </trkpt>
      <trkpt lat="49.48989" lon="1.09306">
        <ele>157</ele>
        <time>2026-07-07T14:37:21.813Z</time>
      </trkpt>
      <trkpt lat="49.48984" lon="1.09311">
        <ele>156</ele>
        <time>2026-07-07T14:37:26.335Z</time>
      </trkpt>
      <trkpt lat="49.4898" lon="1.09315">
        <ele>156</ele>
        <time>2026-07-07T14:37:30.691Z</time>
      </trkpt>
      <trkpt lat="49.48976" lon="1.09316">
        <ele>156</ele>
        <time>2026-07-07T14:37:35.169Z</time>
      </trkpt>
      <trkpt lat="49.48971" lon="1.0932">
        <ele>159</ele>
        <time>2026-07-07T14:37:39.328Z</time>
      </trkpt>
      <trkpt lat="49.48967" lon="1.09324">
        <ele>159</ele>
        <time>2026-07-07T14:37:43.970Z</time>
      </trkpt>
      <trkpt lat="49.48964" lon="1.09325">
        <ele>159</ele>
        <time>2026-07-07T14:37:48.008Z</time>
      </trkpt>
      <trkpt lat="49.4896" lon="1.09328">
        <ele>159</ele>
        <time>2026-07-07T14:37:52.091Z</time>
      </trkpt>
      <trkpt lat="49.48955" lon="1.0933">
        <ele>159</ele>
        <time>2026-07-07T14:37:56.313Z</time>
      </trkpt>
      <trkpt lat="49.48952" lon="1.09333">
        <ele>159</ele>
        <time>2026-07-07T14:38:00.914Z</time>
      </trkpt>
      <trkpt lat="49.48948" lon="1.09335">
        <ele>159</ele>
        <time>2026-07-07T14:38:05.568Z</time>
      </trkpt>
      <trkpt lat="49.48944" lon="1.09336">
        <ele>159</ele>
        <time>2026-07-07T14:38:10.231Z</time>
      </trkpt>
      <trkpt lat="49.4894" lon="1.09336">
        <ele>159</ele>
        <time>2026-07-07T14:38:14.867Z</time>
      </trkpt>
      <trkpt lat="49.48938" lon="1.0934">
        <ele>159</ele>
        <time>2026-07-07T14:38:19.328Z</time>
      </trkpt>
      <trkpt lat="49.48933" lon="1.09349">
        <ele>160</ele>
        <time>2026-07-07T14:38:37.908Z</time>
      </trkpt>
      <trkpt lat="49.48934" lon="1.09351">
        <ele>160</ele>
        <time>2026-07-07T14:38:42.307Z</time>
      </trkpt>
      <trkpt lat="49.48934" lon="1.09352">
        <ele>160</ele>
        <time>2026-07-07T14:38:46.327Z</time>
      </trkpt>
      <trkpt lat="49.48935" lon="1.09354">
        <ele>160</ele>
        <time>2026-07-07T14:38:50.808Z</time>
      </trkpt>
      <trkpt lat="49.48942" lon="1.09356">
        <ele>160</ele>
        <time>2026-07-07T14:38:54.892Z</time>
      </trkpt>
      <trkpt lat="49.48942" lon="1.09355">
        <ele>160</ele>
        <time>2026-07-07T14:39:14.328Z</time>
      </trkpt>
      <trkpt lat="49.48942" lon="1.09356">
        <ele>160</ele>
        <time>2026-07-07T14:39:18.331Z</time>
      </trkpt>
      <trkpt lat="49.48943" lon="1.09355">
        <ele>160</ele>
        <time>2026-07-07T14:39:22.327Z</time>
      </trkpt>
      <trkpt lat="49.48944" lon="1.09354">
        <ele>160</ele>
        <time>2026-07-07T14:39:27.069Z</time>
      </trkpt>
      <trkpt lat="49.48948" lon="1.09353">
        <ele>160</ele>
        <time>2026-07-07T14:39:31.248Z</time>
      </trkpt>
      <trkpt lat="49.48953" lon="1.09352">
        <ele>160</ele>
        <time>2026-07-07T14:39:35.333Z</time>
      </trkpt>
      <trkpt lat="49.48958" lon="1.09351">
        <ele>160</ele>
        <time>2026-07-07T14:39:39.327Z</time>
      </trkpt>
      <trkpt lat="49.48963" lon="1.0935">
        <ele>161</ele>
        <time>2026-07-07T14:39:43.551Z</time>
      </trkpt>
      <trkpt lat="49.48967" lon="1.09349">
        <ele>161</ele>
        <time>2026-07-07T14:39:48.248Z</time>
      </trkpt>
      <trkpt lat="49.48969" lon="1.09351">
        <ele>161</ele>
        <time>2026-07-07T14:39:52.328Z</time>
      </trkpt>
      <trkpt lat="49.4897" lon="1.09354">
        <ele>161</ele>
        <time>2026-07-07T14:39:57.327Z</time>
      </trkpt>
      <trkpt lat="49.48971" lon="1.09357">
        <ele>161</ele>
        <time>2026-07-07T14:40:01.327Z</time>
      </trkpt>
      <trkpt lat="49.48968" lon="1.09365">
        <ele>161</ele>
        <time>2026-07-07T14:40:06.102Z</time>
      </trkpt>
      <trkpt lat="49.48966" lon="1.09371">
        <ele>161</ele>
        <time>2026-07-07T14:40:10.327Z</time>
      </trkpt>
      <trkpt lat="49.48965" lon="1.09376">
        <ele>161</ele>
        <time>2026-07-07T14:40:14.610Z</time>
      </trkpt>
      <trkpt lat="49.48964" lon="1.09381">
        <ele>161</ele>
        <time>2026-07-07T14:40:18.650Z</time>
      </trkpt>
      <trkpt lat="49.48963" lon="1.09387">
        <ele>161</ele>
        <time>2026-07-07T14:40:22.688Z</time>
      </trkpt>
      <trkpt lat="49.48963" lon="1.09392">
        <ele>161</ele>
        <time>2026-07-07T14:40:27.327Z</time>
      </trkpt>
      <trkpt lat="49.48962" lon="1.094">
        <ele>161</ele>
        <time>2026-07-07T14:40:31.327Z</time>
      </trkpt>
      <trkpt lat="49.48961" lon="1.09407">
        <ele>162</ele>
        <time>2026-07-07T14:40:35.327Z</time>
      </trkpt>
      <trkpt lat="49.48959" lon="1.09415">
        <ele>162</ele>
        <time>2026-07-07T14:40:40.233Z</time>
      </trkpt>
      <trkpt lat="49.48957" lon="1.0942">
        <ele>161</ele>
        <time>2026-07-07T14:40:44.527Z</time>
      </trkpt>
      <trkpt lat="49.48956" lon="1.09427">
        <ele>161</ele>
        <time>2026-07-07T14:40:49.251Z</time>
      </trkpt>
      <trkpt lat="49.48954" lon="1.09431">
        <ele>161</ele>
        <time>2026-07-07T14:40:53.307Z</time>
      </trkpt>
      <trkpt lat="49.48952" lon="1.09435">
        <ele>161</ele>
        <time>2026-07-07T14:40:57.328Z</time>
      </trkpt>
      <trkpt lat="49.4895" lon="1.09441">
        <ele>161</ele>
        <time>2026-07-07T14:41:02.167Z</time>
      </trkpt>
      <trkpt lat="49.48949" lon="1.09447">
        <ele>161</ele>
        <time>2026-07-07T14:41:06.327Z</time>
      </trkpt>
      <trkpt lat="49.48946" lon="1.09453">
        <ele>161</ele>
        <time>2026-07-07T14:41:10.808Z</time>
      </trkpt>
      <trkpt lat="49.48944" lon="1.09459">
        <ele>162</ele>
        <time>2026-07-07T14:41:15.269Z</time>
      </trkpt>
      <trkpt lat="49.48942" lon="1.09465">
        <ele>162</ele>
        <time>2026-07-07T14:41:19.730Z</time>
      </trkpt>
      <trkpt lat="49.4894" lon="1.09471">
        <ele>162</ele>
        <time>2026-07-07T14:41:24.209Z</time>
      </trkpt>
      <trkpt lat="49.48939" lon="1.09477">
        <ele>162</ele>
        <time>2026-07-07T14:41:28.327Z</time>
      </trkpt>
      <trkpt lat="49.48937" lon="1.09483">
        <ele>162</ele>
        <time>2026-07-07T14:41:32.611Z</time>
      </trkpt>
      <trkpt lat="49.48936" lon="1.0949">
        <ele>162</ele>
        <time>2026-07-07T14:41:37.072Z</time>
      </trkpt>
      <trkpt lat="49.48935" lon="1.09497">
        <ele>162</ele>
        <time>2026-07-07T14:41:41.692Z</time>
      </trkpt>
      <trkpt lat="49.48934" lon="1.09504">
        <ele>162</ele>
        <time>2026-07-07T14:41:46.152Z</time>
      </trkpt>
      <trkpt lat="49.48932" lon="1.09511">
        <ele>162</ele>
        <time>2026-07-07T14:41:50.709Z</time>
      </trkpt>
      <trkpt lat="49.48931" lon="1.09518">
        <ele>162</ele>
        <time>2026-07-07T14:41:55.231Z</time>
      </trkpt>
      <trkpt lat="49.4893" lon="1.09523">
        <ele>162</ele>
        <time>2026-07-07T14:41:59.552Z</time>
      </trkpt>
      <trkpt lat="49.48929" lon="1.0953">
        <ele>162</ele>
        <time>2026-07-07T14:42:04.109Z</time>
      </trkpt>
      <trkpt lat="49.48929" lon="1.09537">
        <ele>162</ele>
        <time>2026-07-07T14:42:08.439Z</time>
      </trkpt>
      <trkpt lat="49.48928" lon="1.09543">
        <ele>163</ele>
        <time>2026-07-07T14:42:12.610Z</time>
      </trkpt>
      <trkpt lat="49.48926" lon="1.0955">
        <ele>163</ele>
        <time>2026-07-07T14:42:17.149Z</time>
      </trkpt>
      <trkpt lat="49.48926" lon="1.09558">
        <ele>163</ele>
        <time>2026-07-07T14:42:21.750Z</time>
      </trkpt>
      <trkpt lat="49.48926" lon="1.09567">
        <ele>163</ele>
        <time>2026-07-07T14:42:26.228Z</time>
      </trkpt>
      <trkpt lat="49.48921" lon="1.09576">
        <ele>164</ele>
        <time>2026-07-07T14:43:00.254Z</time>
      </trkpt>
      <trkpt lat="49.48916" lon="1.09574">
        <ele>164</ele>
        <time>2026-07-07T14:43:04.487Z</time>
      </trkpt>
      <trkpt lat="49.48912" lon="1.09577">
        <ele>164</ele>
        <time>2026-07-07T14:43:08.850Z</time>
      </trkpt>
      <trkpt lat="49.4891" lon="1.09579">
        <ele>164</ele>
        <time>2026-07-07T14:43:13.328Z</time>
      </trkpt>
      <trkpt lat="49.48905" lon="1.09584">
        <ele>164</ele>
        <time>2026-07-07T14:43:17.570Z</time>
      </trkpt>
      <trkpt lat="49.48902" lon="1.09588">
        <ele>165</ele>
        <time>2026-07-07T14:43:21.715Z</time>
      </trkpt>
      <trkpt lat="49.48898" lon="1.09592">
        <ele>165</ele>
        <time>2026-07-07T14:43:25.912Z</time>
      </trkpt>
      <trkpt lat="49.48893" lon="1.09592">
        <ele>165</ele>
        <time>2026-07-07T14:43:30.249Z</time>
      </trkpt>
      <trkpt lat="49.48888" lon="1.09592">
        <ele>165</ele>
        <time>2026-07-07T14:43:34.492Z</time>
      </trkpt>
      <trkpt lat="49.48883" lon="1.09595">
        <ele>165</ele>
        <time>2026-07-07T14:43:38.714Z</time>
      </trkpt>
      <trkpt lat="49.48879" lon="1.096">
        <ele>166</ele>
        <time>2026-07-07T14:43:42.753Z</time>
      </trkpt>
      <trkpt lat="49.48874" lon="1.09602">
        <ele>166</ele>
        <time>2026-07-07T14:43:46.889Z</time>
      </trkpt>
      <trkpt lat="49.4887" lon="1.09604">
        <ele>166</ele>
        <time>2026-07-07T14:43:51.174Z</time>
      </trkpt>
      <trkpt lat="49.48866" lon="1.09607">
        <ele>166</ele>
        <time>2026-07-07T14:43:55.328Z</time>
      </trkpt>
      <trkpt lat="49.48861" lon="1.09607">
        <ele>166</ele>
        <time>2026-07-07T14:43:59.754Z</time>
      </trkpt>
      <trkpt lat="49.48857" lon="1.09607">
        <ele>166</ele>
        <time>2026-07-07T14:44:04.060Z</time>
      </trkpt>
      <trkpt lat="49.48853" lon="1.09602">
        <ele>166</ele>
        <time>2026-07-07T14:44:08.327Z</time>
      </trkpt>
      <trkpt lat="49.4885" lon="1.09597">
        <ele>166</ele>
        <time>2026-07-07T14:44:12.590Z</time>
      </trkpt>
      <trkpt lat="49.48847" lon="1.09592">
        <ele>166</ele>
        <time>2026-07-07T14:44:16.893Z</time>
      </trkpt>
      <trkpt lat="49.48843" lon="1.09587">
        <ele>166</ele>
        <time>2026-07-07T14:44:21.108Z</time>
      </trkpt>
      <trkpt lat="49.48839" lon="1.09583">
        <ele>166</ele>
        <time>2026-07-07T14:44:25.327Z</time>
      </trkpt>
      <trkpt lat="49.48835" lon="1.09578">
        <ele>166</ele>
        <time>2026-07-07T14:44:29.590Z</time>
      </trkpt>
      <trkpt lat="49.48832" lon="1.09573">
        <ele>166</ele>
        <time>2026-07-07T14:44:33.893Z</time>
      </trkpt>
      <trkpt lat="49.48828" lon="1.0957">
        <ele>166</ele>
        <time>2026-07-07T14:44:37.967Z</time>
      </trkpt>
      <trkpt lat="49.48823" lon="1.09568">
        <ele>166</ele>
        <time>2026-07-07T14:44:42.209Z</time>
      </trkpt>
      <trkpt lat="49.48819" lon="1.09568">
        <ele>166</ele>
        <time>2026-07-07T14:44:46.327Z</time>
      </trkpt>
      <trkpt lat="49.48814" lon="1.09567">
        <ele>166</ele>
        <time>2026-07-07T14:44:50.326Z</time>
      </trkpt>
      <trkpt lat="49.4881" lon="1.09566">
        <ele>166</ele>
        <time>2026-07-07T14:44:54.607Z</time>
      </trkpt>
      <trkpt lat="49.48806" lon="1.09565">
        <ele>166</ele>
        <time>2026-07-07T14:44:58.708Z</time>
      </trkpt>
      <trkpt lat="49.48804" lon="1.09562">
        <ele>166</ele>
        <time>2026-07-07T14:46:50.327Z</time>
      </trkpt>
      <trkpt lat="49.48799" lon="1.09563">
        <ele>166</ele>
        <time>2026-07-07T14:46:55.327Z</time>
      </trkpt>
      <trkpt lat="49.48796" lon="1.09563">
        <ele>166</ele>
        <time>2026-07-07T14:46:59.326Z</time>
      </trkpt>
      <trkpt lat="49.48792" lon="1.09564">
        <ele>168</ele>
        <time>2026-07-07T14:47:04.326Z</time>
      </trkpt>
      <trkpt lat="49.48787" lon="1.09567">
        <ele>168</ele>
        <time>2026-07-07T14:47:08.872Z</time>
      </trkpt>
      <trkpt lat="49.48783" lon="1.0957">
        <ele>168</ele>
        <time>2026-07-07T14:47:13.229Z</time>
      </trkpt>
      <trkpt lat="49.48778" lon="1.09573">
        <ele>168</ele>
        <time>2026-07-07T14:47:17.714Z</time>
      </trkpt>
      <trkpt lat="49.48774" lon="1.09575">
        <ele>168</ele>
        <time>2026-07-07T14:47:22.148Z</time>
      </trkpt>
      <trkpt lat="49.4877" lon="1.09578">
        <ele>168</ele>
        <time>2026-07-07T14:47:26.327Z</time>
      </trkpt>
      <trkpt lat="49.48765" lon="1.09581">
        <ele>168</ele>
        <time>2026-07-07T14:47:30.973Z</time>
      </trkpt>
      <trkpt lat="49.48762" lon="1.09584">
        <ele>169</ele>
        <time>2026-07-07T14:47:35.293Z</time>
      </trkpt>
      <trkpt lat="49.48759" lon="1.09589">
        <ele>169</ele>
        <time>2026-07-07T14:47:39.648Z</time>
      </trkpt>
      <trkpt lat="49.48757" lon="1.09595">
        <ele>169</ele>
        <time>2026-07-07T14:47:43.969Z</time>
      </trkpt>
      <trkpt lat="49.48754" lon="1.09602">
        <ele>169</ele>
        <time>2026-07-07T14:47:48.326Z</time>
      </trkpt>
      <trkpt lat="49.48751" lon="1.09606">
        <ele>169</ele>
        <time>2026-07-07T14:47:52.608Z</time>
      </trkpt>
      <trkpt lat="49.48747" lon="1.0961">
        <ele>169</ele>
        <time>2026-07-07T14:47:56.990Z</time>
      </trkpt>
      <trkpt lat="49.48743" lon="1.09613">
        <ele>169</ele>
        <time>2026-07-07T14:48:01.311Z</time>
      </trkpt>
      <trkpt lat="49.48738" lon="1.09616">
        <ele>169</ele>
        <time>2026-07-07T14:48:05.772Z</time>
      </trkpt>
      <trkpt lat="49.48734" lon="1.0962">
        <ele>169</ele>
        <time>2026-07-07T14:48:09.968Z</time>
      </trkpt>
      <trkpt lat="49.4873" lon="1.09623">
        <ele>169</ele>
        <time>2026-07-07T14:48:14.307Z</time>
      </trkpt>
      <trkpt lat="49.48726" lon="1.09625">
        <ele>169</ele>
        <time>2026-07-07T14:48:18.609Z</time>
      </trkpt>
      <trkpt lat="49.48722" lon="1.09629">
        <ele>169</ele>
        <time>2026-07-07T14:48:22.995Z</time>
      </trkpt>
      <trkpt lat="49.48719" lon="1.09635">
        <ele>169</ele>
        <time>2026-07-07T14:48:27.232Z</time>
      </trkpt>
      <trkpt lat="49.48716" lon="1.09642">
        <ele>169</ele>
        <time>2026-07-07T14:48:31.326Z</time>
      </trkpt>
      <trkpt lat="49.48712" lon="1.09646">
        <ele>169</ele>
        <time>2026-07-07T14:48:35.549Z</time>
      </trkpt>
      <trkpt lat="49.48708" lon="1.0965">
        <ele>171</ele>
        <time>2026-07-07T14:48:39.868Z</time>
      </trkpt>
      <trkpt lat="49.48704" lon="1.09655">
        <ele>172</ele>
        <time>2026-07-07T14:48:44.127Z</time>
      </trkpt>
      <trkpt lat="49.48701" lon="1.0966">
        <ele>172</ele>
        <time>2026-07-07T14:48:48.327Z</time>
      </trkpt>
      <trkpt lat="49.48699" lon="1.09666">
        <ele>172</ele>
        <time>2026-07-07T14:48:52.830Z</time>
      </trkpt>
      <trkpt lat="49.48697" lon="1.09672">
        <ele>172</ele>
        <time>2026-07-07T14:48:57.231Z</time>
      </trkpt>
      <trkpt lat="49.48695" lon="1.09678">
        <ele>172</ele>
        <time>2026-07-07T14:49:01.327Z</time>
      </trkpt>
      <trkpt lat="49.48692" lon="1.09684">
        <ele>171</ele>
        <time>2026-07-07T14:49:05.749Z</time>
      </trkpt>
      <trkpt lat="49.4869" lon="1.0969">
        <ele>171</ele>
        <time>2026-07-07T14:49:10.132Z</time>
      </trkpt>
      <trkpt lat="49.48689" lon="1.09697">
        <ele>171</ele>
        <time>2026-07-07T14:49:14.326Z</time>
      </trkpt>
      <trkpt lat="49.48688" lon="1.09704">
        <ele>171</ele>
        <time>2026-07-07T14:49:18.791Z</time>
      </trkpt>
      <trkpt lat="49.48687" lon="1.0971">
        <ele>171</ele>
        <time>2026-07-07T14:49:22.848Z</time>
      </trkpt>
      <trkpt lat="49.48685" lon="1.09716">
        <ele>171</ele>
        <time>2026-07-07T14:49:27.274Z</time>
      </trkpt>
      <trkpt lat="49.48685" lon="1.09718">
        <ele>171</ele>
        <time>2026-07-07T14:49:31.788Z</time>
      </trkpt>
      <trkpt lat="49.48685" lon="1.09717">
        <ele>171</ele>
        <time>2026-07-07T14:49:36.326Z</time>
      </trkpt>
      <trkpt lat="49.48686" lon="1.09719">
        <ele>171</ele>
        <time>2026-07-07T14:49:39.326Z</time>
      </trkpt>
      <trkpt lat="49.48686" lon="1.09726">
        <ele>171</ele>
        <time>2026-07-07T14:49:47.925Z</time>
      </trkpt>
      <trkpt lat="49.48684" lon="1.09735">
        <ele>171</ele>
        <time>2026-07-07T14:49:52.327Z</time>
      </trkpt>
      <trkpt lat="49.48683" lon="1.09738">
        <ele>170</ele>
        <time>2026-07-07T14:51:21.325Z</time>
      </trkpt>
      <trkpt lat="49.48683" lon="1.09738">
        <ele>170</ele>
        <time>2026-07-07T14:51:25.326Z</time>
      </trkpt>
      <trkpt lat="49.48682" lon="1.0974">
        <ele>170</ele>
        <time>2026-07-07T14:51:29.842Z</time>
      </trkpt>
      <trkpt lat="49.48687" lon="1.09745">
        <ele>170</ele>
        <time>2026-07-07T14:51:34.325Z</time>
      </trkpt>
      <trkpt lat="49.48686" lon="1.09754">
        <ele>170</ele>
        <time>2026-07-07T14:51:38.326Z</time>
      </trkpt>
      <trkpt lat="49.48685" lon="1.09762">
        <ele>170</ele>
        <time>2026-07-07T14:51:43.280Z</time>
      </trkpt>
      <trkpt lat="49.48687" lon="1.09766">
        <ele>171</ele>
        <time>2026-07-07T14:51:47.326Z</time>
      </trkpt>
      <trkpt lat="49.48691" lon="1.09767">
        <ele>171</ele>
        <time>2026-07-07T14:51:51.842Z</time>
      </trkpt>
      <trkpt lat="49.48694" lon="1.0977">
        <ele>171</ele>
        <time>2026-07-07T14:51:55.917Z</time>
      </trkpt>
      <trkpt lat="49.487" lon="1.09772">
        <ele>171</ele>
        <time>2026-07-07T14:52:00.299Z</time>
      </trkpt>
      <trkpt lat="49.48704" lon="1.09774">
        <ele>171</ele>
        <time>2026-07-07T14:52:04.325Z</time>
      </trkpt>
      <trkpt lat="49.48705" lon="1.09773">
        <ele>171</ele>
        <time>2026-07-07T14:52:08.804Z</time>
      </trkpt>
      <trkpt lat="49.48711" lon="1.09773">
        <ele>169</ele>
        <time>2026-07-07T14:52:13.319Z</time>
      </trkpt>
      <trkpt lat="49.48716" lon="1.09776">
        <ele>169</ele>
        <time>2026-07-07T14:52:17.885Z</time>
      </trkpt>
      <trkpt lat="49.48719" lon="1.0978">
        <ele>169</ele>
        <time>2026-07-07T14:52:21.926Z</time>
      </trkpt>
      <trkpt lat="49.48723" lon="1.09782">
        <ele>169</ele>
        <time>2026-07-07T14:52:25.938Z</time>
      </trkpt>
      <trkpt lat="49.48728" lon="1.09781">
        <ele>169</ele>
        <time>2026-07-07T14:52:29.959Z</time>
      </trkpt>
      <trkpt lat="49.48733" lon="1.09781">
        <ele>169</ele>
        <time>2026-07-07T14:52:35.184Z</time>
      </trkpt>
      <trkpt lat="49.48738" lon="1.09784">
        <ele>169</ele>
        <time>2026-07-07T14:52:39.202Z</time>
      </trkpt>
      <trkpt lat="49.48742" lon="1.09783">
        <ele>169</ele>
        <time>2026-07-07T14:52:43.662Z</time>
      </trkpt>
      <trkpt lat="49.48748" lon="1.09785">
        <ele>169</ele>
        <time>2026-07-07T14:52:48.142Z</time>
      </trkpt>
      <trkpt lat="49.48751" lon="1.0979">
        <ele>169</ele>
        <time>2026-07-07T14:52:52.700Z</time>
      </trkpt>
      <trkpt lat="49.48755" lon="1.09794">
        <ele>169</ele>
        <time>2026-07-07T14:52:56.765Z</time>
      </trkpt>
      <trkpt lat="49.48759" lon="1.09797">
        <ele>169</ele>
        <time>2026-07-07T14:53:01.323Z</time>
      </trkpt>
      <trkpt lat="49.48763" lon="1.098">
        <ele>169</ele>
        <time>2026-07-07T14:53:05.459Z</time>
      </trkpt>
      <trkpt lat="49.48768" lon="1.09802">
        <ele>170</ele>
        <time>2026-07-07T14:53:09.543Z</time>
      </trkpt>
      <trkpt lat="49.48773" lon="1.09803">
        <ele>170</ele>
        <time>2026-07-07T14:53:14.144Z</time>
      </trkpt>
      <trkpt lat="49.48779" lon="1.09805">
        <ele>170</ele>
        <time>2026-07-07T14:53:18.219Z</time>
      </trkpt>
      <trkpt lat="49.48784" lon="1.09806">
        <ele>170</ele>
        <time>2026-07-07T14:53:22.258Z</time>
      </trkpt>
      <trkpt lat="49.4879" lon="1.09807">
        <ele>170</ele>
        <time>2026-07-07T14:53:26.326Z</time>
      </trkpt>
      <trkpt lat="49.48796" lon="1.09807">
        <ele>170</ele>
        <time>2026-07-07T14:53:30.899Z</time>
      </trkpt>
      <trkpt lat="49.48802" lon="1.09806">
        <ele>170</ele>
        <time>2026-07-07T14:53:35Z</time>
      </trkpt>
      <trkpt lat="49.48807" lon="1.09806">
        <ele>170</ele>
        <time>2026-07-07T14:53:39.060Z</time>
      </trkpt>
      <trkpt lat="49.48813" lon="1.09807">
        <ele>170</ele>
        <time>2026-07-07T14:53:43.106Z</time>
      </trkpt>
      <trkpt lat="49.48817" lon="1.09807">
        <ele>170</ele>
        <time>2026-07-07T14:53:47.223Z</time>
      </trkpt>
      <trkpt lat="49.48822" lon="1.09806">
        <ele>169</ele>
        <time>2026-07-07T14:53:51.326Z</time>
      </trkpt>
      <trkpt lat="49.48827" lon="1.09807">
        <ele>169</ele>
        <time>2026-07-07T14:53:56.005Z</time>
      </trkpt>
      <trkpt lat="49.48831" lon="1.09808">
        <ele>169</ele>
        <time>2026-07-07T14:54:00.185Z</time>
      </trkpt>
      <trkpt lat="49.48836" lon="1.0981">
        <ele>169</ele>
        <time>2026-07-07T14:54:04.321Z</time>
      </trkpt>
      <trkpt lat="49.4884" lon="1.09811">
        <ele>169</ele>
        <time>2026-07-07T14:54:08.504Z</time>
      </trkpt>
      <trkpt lat="49.48845" lon="1.09812">
        <ele>169</ele>
        <time>2026-07-07T14:54:12.584Z</time>
      </trkpt>
      <trkpt lat="49.48858" lon="1.09815">
        <ele>167</ele>
        <time>2026-07-07T14:54:29.743Z</time>
      </trkpt>
      <trkpt lat="49.48862" lon="1.09817">
        <ele>167</ele>
        <time>2026-07-07T14:54:34.325Z</time>
      </trkpt>
      <trkpt lat="49.48869" lon="1.09818">
        <ele>167</ele>
        <time>2026-07-07T14:54:38.783Z</time>
      </trkpt>
      <trkpt lat="49.48872" lon="1.09822">
        <ele>167</ele>
        <time>2026-07-07T14:54:42.923Z</time>
      </trkpt>
      <trkpt lat="49.48874" lon="1.09832">
        <ele>167</ele>
        <time>2026-07-07T14:54:46.980Z</time>
      </trkpt>
      <trkpt lat="49.48872" lon="1.09839">
        <ele>167</ele>
        <time>2026-07-07T14:54:50.987Z</time>
      </trkpt>
      <trkpt lat="49.48871" lon="1.09846">
        <ele>167</ele>
        <time>2026-07-07T14:54:55.078Z</time>
      </trkpt>
      <trkpt lat="49.4887" lon="1.09855">
        <ele>167</ele>
        <time>2026-07-07T14:54:59.287Z</time>
      </trkpt>
      <trkpt lat="49.48869" lon="1.09863">
        <ele>167</ele>
        <time>2026-07-07T14:55:03.482Z</time>
      </trkpt>
      <trkpt lat="49.48868" lon="1.09869">
        <ele>167</ele>
        <time>2026-07-07T14:55:07.478Z</time>
      </trkpt>
      <trkpt lat="49.48867" lon="1.09876">
        <ele>168</ele>
        <time>2026-07-07T14:55:11.938Z</time>
      </trkpt>
      <trkpt lat="49.48865" lon="1.09881">
        <ele>168</ele>
        <time>2026-07-07T14:55:16.241Z</time>
      </trkpt>
      <trkpt lat="49.48863" lon="1.09889">
        <ele>168</ele>
        <time>2026-07-07T14:55:20.281Z</time>
      </trkpt>
      <trkpt lat="49.48864" lon="1.09897">
        <ele>168</ele>
        <time>2026-07-07T14:55:24.882Z</time>
      </trkpt>
      <trkpt lat="49.48864" lon="1.09903">
        <ele>168</ele>
        <time>2026-07-07T14:55:29.018Z</time>
      </trkpt>
      <trkpt lat="49.48863" lon="1.09909">
        <ele>168</ele>
        <time>2026-07-07T14:55:33.242Z</time>
      </trkpt>
      <trkpt lat="49.48863" lon="1.09922">
        <ele>168</ele>
        <time>2026-07-07T14:55:37.264Z</time>
      </trkpt>
      <trkpt lat="49.48865" lon="1.09925">
        <ele>168</ele>
        <time>2026-07-07T14:55:49.681Z</time>
      </trkpt>
      <trkpt lat="49.4887" lon="1.0993">
        <ele>168</ele>
        <time>2026-07-07T14:55:53.826Z</time>
      </trkpt>
      <trkpt lat="49.48876" lon="1.0993">
        <ele>167</ele>
        <time>2026-07-07T14:55:57.917Z</time>
      </trkpt>
      <trkpt lat="49.48883" lon="1.09926">
        <ele>167</ele>
        <time>2026-07-07T14:56:02.325Z</time>
      </trkpt>
      <trkpt lat="49.48889" lon="1.09923">
        <ele>167</ele>
        <time>2026-07-07T14:56:06.326Z</time>
      </trkpt>
      <trkpt lat="49.48895" lon="1.09924">
        <ele>167</ele>
        <time>2026-07-07T14:56:11.159Z</time>
      </trkpt>
      <trkpt lat="49.489" lon="1.09924">
        <ele>167</ele>
        <time>2026-07-07T14:56:15.277Z</time>
      </trkpt>
      <trkpt lat="49.48905" lon="1.09925">
        <ele>167</ele>
        <time>2026-07-07T14:56:19.326Z</time>
      </trkpt>
      <trkpt lat="49.4891" lon="1.09925">
        <ele>167</ele>
        <time>2026-07-07T14:56:23.540Z</time>
      </trkpt>
      <trkpt lat="49.48915" lon="1.09925">
        <ele>167</ele>
        <time>2026-07-07T14:56:27.737Z</time>
      </trkpt>
      <trkpt lat="49.48919" lon="1.09926">
        <ele>167</ele>
        <time>2026-07-07T14:56:31.820Z</time>
      </trkpt>
      <trkpt lat="49.48924" lon="1.09926">
        <ele>167</ele>
        <time>2026-07-07T14:56:35.965Z</time>
      </trkpt>
      <trkpt lat="49.48929" lon="1.09926">
        <ele>167</ele>
        <time>2026-07-07T14:56:40.022Z</time>
      </trkpt>
      <trkpt lat="49.48934" lon="1.09926">
        <ele>167</ele>
        <time>2026-07-07T14:56:44.122Z</time>
      </trkpt>
      <trkpt lat="49.48938" lon="1.09925">
        <ele>167</ele>
        <time>2026-07-07T14:56:48.325Z</time>
      </trkpt>
      <trkpt lat="49.48943" lon="1.09924">
        <ele>167</ele>
        <time>2026-07-07T14:56:52.500Z</time>
      </trkpt>
      <trkpt lat="49.48948" lon="1.09926">
        <ele>167</ele>
        <time>2026-07-07T14:56:56.647Z</time>
      </trkpt>
      <trkpt lat="49.48952" lon="1.09927">
        <ele>167</ele>
        <time>2026-07-07T14:57:00.859Z</time>
      </trkpt>
      <trkpt lat="49.48956" lon="1.09927">
        <ele>167</ele>
        <time>2026-07-07T14:57:05.003Z</time>
      </trkpt>
      <trkpt lat="49.48961" lon="1.09929">
        <ele>167</ele>
        <time>2026-07-07T14:57:09.157Z</time>
      </trkpt>
      <trkpt lat="49.48966" lon="1.09933">
        <ele>166</ele>
        <time>2026-07-07T14:57:13.205Z</time>
      </trkpt>
      <trkpt lat="49.4897" lon="1.09932">
        <ele>166</ele>
        <time>2026-07-07T14:57:17.245Z</time>
      </trkpt>
      <trkpt lat="49.48973" lon="1.09931">
        <ele>166</ele>
        <time>2026-07-07T14:57:21.325Z</time>
      </trkpt>
      <trkpt lat="49.48978" lon="1.09931">
        <ele>166</ele>
        <time>2026-07-07T14:57:25.497Z</time>
      </trkpt>
      <trkpt lat="49.48982" lon="1.09933">
        <ele>166</ele>
        <time>2026-07-07T14:57:29.642Z</time>
      </trkpt>
      <trkpt lat="49.48985" lon="1.09934">
        <ele>166</ele>
        <time>2026-07-07T14:57:33.997Z</time>
      </trkpt>
      <trkpt lat="49.4899" lon="1.09937">
        <ele>167</ele>
        <time>2026-07-07T14:57:38.037Z</time>
      </trkpt>
      <trkpt lat="49.48994" lon="1.09943">
        <ele>167</ele>
        <time>2026-07-07T14:57:42.321Z</time>
      </trkpt>
      <trkpt lat="49.48996" lon="1.09948">
        <ele>167</ele>
        <time>2026-07-07T14:57:46.599Z</time>
      </trkpt>
      <trkpt lat="49.48997" lon="1.09955">
        <ele>167</ele>
        <time>2026-07-07T14:57:50.962Z</time>
      </trkpt>
      <trkpt lat="49.48997" lon="1.09962">
        <ele>167</ele>
        <time>2026-07-07T14:57:55.221Z</time>
      </trkpt>
      <trkpt lat="49.49" lon="1.09969">
        <ele>167</ele>
        <time>2026-07-07T14:57:59.324Z</time>
      </trkpt>
      <trkpt lat="49.49002" lon="1.09977">
        <ele>167</ele>
        <time>2026-07-07T14:58:03.880Z</time>
      </trkpt>
      <trkpt lat="49.49002" lon="1.09985">
        <ele>167</ele>
        <time>2026-07-07T14:58:08.323Z</time>
      </trkpt>
      <trkpt lat="49.49001" lon="1.09993">
        <ele>168</ele>
        <time>2026-07-07T14:58:12.681Z</time>
      </trkpt>
      <trkpt lat="49.48999" lon="1.10001">
        <ele>168</ele>
        <time>2026-07-07T14:58:17.063Z</time>
      </trkpt>
      <trkpt lat="49.48998" lon="1.10009">
        <ele>168</ele>
        <time>2026-07-07T14:58:21.324Z</time>
      </trkpt>
      <trkpt lat="49.48996" lon="1.10016">
        <ele>169</ele>
        <time>2026-07-07T14:58:25.823Z</time>
      </trkpt>
      <trkpt lat="49.48995" lon="1.10022">
        <ele>169</ele>
        <time>2026-07-07T14:58:30.160Z</time>
      </trkpt>
      <trkpt lat="49.48994" lon="1.10029">
        <ele>169</ele>
        <time>2026-07-07T14:58:34.621Z</time>
      </trkpt>
      <trkpt lat="49.48993" lon="1.10036">
        <ele>169</ele>
        <time>2026-07-07T14:58:38.960Z</time>
      </trkpt>
      <trkpt lat="49.48993" lon="1.10043">
        <ele>169</ele>
        <time>2026-07-07T14:58:43.325Z</time>
      </trkpt>
      <trkpt lat="49.48992" lon="1.10049">
        <ele>169</ele>
        <time>2026-07-07T14:58:47.740Z</time>
      </trkpt>
      <trkpt lat="49.48991" lon="1.10056">
        <ele>169</ele>
        <time>2026-07-07T14:58:52.139Z</time>
      </trkpt>
      <trkpt lat="49.4899" lon="1.10063">
        <ele>169</ele>
        <time>2026-07-07T14:58:56.538Z</time>
      </trkpt>
      <trkpt lat="49.4899" lon="1.1007">
        <ele>171</ele>
        <time>2026-07-07T14:59:01.025Z</time>
      </trkpt>
      <trkpt lat="49.48991" lon="1.10078">
        <ele>171</ele>
        <time>2026-07-07T14:59:05.240Z</time>
      </trkpt>
      <trkpt lat="49.48991" lon="1.10085">
        <ele>171</ele>
        <time>2026-07-07T14:59:09.498Z</time>
      </trkpt>
      <trkpt lat="49.48993" lon="1.10093">
        <ele>171</ele>
        <time>2026-07-07T14:59:13.740Z</time>
      </trkpt>
      <trkpt lat="49.48991" lon="1.10101">
        <ele>172</ele>
        <time>2026-07-07T14:59:18.103Z</time>
      </trkpt>
      <trkpt lat="49.48992" lon="1.10108">
        <ele>172</ele>
        <time>2026-07-07T14:59:22.325Z</time>
      </trkpt>
      <trkpt lat="49.48991" lon="1.10115">
        <ele>172</ele>
        <time>2026-07-07T14:59:26.841Z</time>
      </trkpt>
      <trkpt lat="49.48991" lon="1.10122">
        <ele>172</ele>
        <time>2026-07-07T14:59:31.284Z</time>
      </trkpt>
      <trkpt lat="49.48991" lon="1.10129">
        <ele>174</ele>
        <time>2026-07-07T14:59:35.639Z</time>
      </trkpt>
      <trkpt lat="49.48993" lon="1.10136">
        <ele>174</ele>
        <time>2026-07-07T14:59:40.065Z</time>
      </trkpt>
      <trkpt lat="49.48994" lon="1.10143">
        <ele>174</ele>
        <time>2026-07-07T14:59:44.325Z</time>
      </trkpt>
      <trkpt lat="49.48995" lon="1.10151">
        <ele>174</ele>
        <time>2026-07-07T14:59:48.819Z</time>
      </trkpt>
      <trkpt lat="49.48996" lon="1.10158">
        <ele>175</ele>
        <time>2026-07-07T14:59:53.201Z</time>
      </trkpt>
      <trkpt lat="49.48996" lon="1.10166">
        <ele>175</ele>
        <time>2026-07-07T14:59:57.564Z</time>
      </trkpt>
      <trkpt lat="49.48996" lon="1.10173">
        <ele>175</ele>
        <time>2026-07-07T15:00:01.921Z</time>
      </trkpt>
      <trkpt lat="49.48997" lon="1.1018">
        <ele>175</ele>
        <time>2026-07-07T15:00:06.204Z</time>
      </trkpt>
      <trkpt lat="49.48998" lon="1.10188">
        <ele>175</ele>
        <time>2026-07-07T15:00:10.324Z</time>
      </trkpt>
      <trkpt lat="49.48999" lon="1.10195">
        <ele>175</ele>
        <time>2026-07-07T15:00:14.800Z</time>
      </trkpt>
      <trkpt lat="49.48999" lon="1.10202">
        <ele>175</ele>
        <time>2026-07-07T15:00:19.025Z</time>
      </trkpt>
      <trkpt lat="49.49001" lon="1.1021">
        <ele>175</ele>
        <time>2026-07-07T15:00:23.324Z</time>
      </trkpt>
      <trkpt lat="49.49003" lon="1.10215">
        <ele>175</ele>
        <time>2026-07-07T15:00:27.779Z</time>
      </trkpt>
      <trkpt lat="49.49005" lon="1.10222">
        <ele>175</ele>
        <time>2026-07-07T15:00:31.898Z</time>
      </trkpt>
      <trkpt lat="49.49007" lon="1.10226">
        <ele>175</ele>
        <time>2026-07-07T15:00:36.056Z</time>
      </trkpt>
      <trkpt lat="49.49004" lon="1.10235">
        <ele>175</ele>
        <time>2026-07-07T15:00:40.143Z</time>
      </trkpt>
      <trkpt lat="49.49005" lon="1.10243">
        <ele>174</ele>
        <time>2026-07-07T15:00:44.325Z</time>
      </trkpt>
      <trkpt lat="49.49005" lon="1.1025">
        <ele>174</ele>
        <time>2026-07-07T15:00:48.537Z</time>
      </trkpt>
      <trkpt lat="49.49005" lon="1.10255">
        <ele>174</ele>
        <time>2026-07-07T15:00:52.840Z</time>
      </trkpt>
      <trkpt lat="49.49005" lon="1.10261">
        <ele>174</ele>
        <time>2026-07-07T15:00:57.266Z</time>
      </trkpt>
      <trkpt lat="49.49005" lon="1.10267">
        <ele>174</ele>
        <time>2026-07-07T15:01:01.324Z</time>
      </trkpt>
      <trkpt lat="49.49006" lon="1.10272">
        <ele>174</ele>
        <time>2026-07-07T15:01:05.844Z</time>
      </trkpt>
      <trkpt lat="49.49006" lon="1.10277">
        <ele>174</ele>
        <time>2026-07-07T15:01:10.103Z</time>
      </trkpt>
      <trkpt lat="49.49006" lon="1.10281">
        <ele>174</ele>
        <time>2026-07-07T15:01:14.324Z</time>
      </trkpt>
      <trkpt lat="49.49006" lon="1.10288">
        <ele>174</ele>
        <time>2026-07-07T15:01:18.638Z</time>
      </trkpt>
      <trkpt lat="49.49008" lon="1.10296">
        <ele>174</ele>
        <time>2026-07-07T15:01:22.861Z</time>
      </trkpt>
      <trkpt lat="49.4901" lon="1.10303">
        <ele>174</ele>
        <time>2026-07-07T15:01:27.199Z</time>
      </trkpt>
      <trkpt lat="49.49011" lon="1.1031">
        <ele>174</ele>
        <time>2026-07-07T15:01:31.581Z</time>
      </trkpt>
      <trkpt lat="49.49012" lon="1.10317">
        <ele>174</ele>
        <time>2026-07-07T15:01:35.979Z</time>
      </trkpt>
      <trkpt lat="49.49014" lon="1.10325">
        <ele>174</ele>
        <time>2026-07-07T15:01:40.158Z</time>
      </trkpt>
      <trkpt lat="49.49016" lon="1.10331">
        <ele>174</ele>
        <time>2026-07-07T15:01:44.325Z</time>
      </trkpt>
      <trkpt lat="49.49016" lon="1.10339">
        <ele>174</ele>
        <time>2026-07-07T15:01:48.825Z</time>
      </trkpt>
      <trkpt lat="49.49015" lon="1.10356">
        <ele>171</ele>
        <time>2026-07-07T15:02:24.879Z</time>
      </trkpt>
      <trkpt lat="49.49016" lon="1.10358">
        <ele>171</ele>
        <time>2026-07-07T15:02:29.323Z</time>
      </trkpt>
      <trkpt lat="49.49016" lon="1.10361">
        <ele>171</ele>
        <time>2026-07-07T15:02:33.324Z</time>
      </trkpt>
      <trkpt lat="49.49017" lon="1.10361">
        <ele>171</ele>
        <time>2026-07-07T15:02:40.324Z</time>
      </trkpt>
      <trkpt lat="49.49017" lon="1.10362">
        <ele>171</ele>
        <time>2026-07-07T15:02:45.325Z</time>
      </trkpt>
    </trkseg>
  </trk>
</gpx>